<?xml version="1.0" encoding="UTF-8" standalone="no" ?>
<gpx xmlns="http://www.topografix.com/GPX/1/1" xmlns:xsi="http://www.w3.org/2001/XMLSchema-instance" xsi:schemaLocation="http://www.topografix.com/GPX/1/1 http://www.topografix.com/GPX/1/1/gpx.xsd" version="1.1" creator="VisuGPX - https://www.visugpx.com">
  <metadata>
    <name>Tour du Cantal 5</name>
  </metadata>
  <trk>
    <name><![CDATA[Tour du Cantal - 2025-10-17]]></name>
    <trkseg>
      <trkpt lat="45.10183" lon="2.58519">
        <ele>1011.93</ele>
        <time>2025-10-17T06:16:32Z</time>
      </trkpt>
      <trkpt lat="45.10184" lon="2.58529">
        <ele>991.74</ele>
        <time>2025-10-17T06:16:39Z</time>
      </trkpt>
      <trkpt lat="45.10185" lon="2.58555">
        <ele>989.81</ele>
        <time>2025-10-17T06:16:57Z</time>
      </trkpt>
      <trkpt lat="45.10185" lon="2.58589">
        <ele>987.89</ele>
        <time>2025-10-17T06:17:15Z</time>
      </trkpt>
      <trkpt lat="45.10187" lon="2.58615">
        <ele>985.49</ele>
        <time>2025-10-17T06:17:32Z</time>
      </trkpt>
      <trkpt lat="45.10191" lon="2.58638">
        <ele>983.57</ele>
        <time>2025-10-17T06:17:47Z</time>
      </trkpt>
      <trkpt lat="45.10192" lon="2.58664">
        <ele>981.64</ele>
        <time>2025-10-17T06:18:03Z</time>
      </trkpt>
      <trkpt lat="45.10192" lon="2.58682">
        <ele>980.2</ele>
        <time>2025-10-17T06:18:15Z</time>
      </trkpt>
      <trkpt lat="45.10196" lon="2.58706">
        <ele>978.28</ele>
        <time>2025-10-17T06:18:30Z</time>
      </trkpt>
      <trkpt lat="45.10203" lon="2.5873">
        <ele>975.88</ele>
        <time>2025-10-17T06:18:46Z</time>
      </trkpt>
      <trkpt lat="45.1021" lon="2.58752">
        <ele>974.43</ele>
        <time>2025-10-17T06:19:00Z</time>
      </trkpt>
      <trkpt lat="45.10221" lon="2.58774">
        <ele>972.51</ele>
        <time>2025-10-17T06:19:16Z</time>
      </trkpt>
      <trkpt lat="45.10229" lon="2.58793">
        <ele>970.59</ele>
        <time>2025-10-17T06:19:31Z</time>
      </trkpt>
      <trkpt lat="45.10236" lon="2.58808">
        <ele>969.63</ele>
        <time>2025-10-17T06:19:50Z</time>
      </trkpt>
      <trkpt lat="45.10244" lon="2.58827">
        <ele>967.22</ele>
        <time>2025-10-17T06:20:04Z</time>
      </trkpt>
      <trkpt lat="45.10251" lon="2.58846">
        <ele>965.78</ele>
        <time>2025-10-17T06:20:18Z</time>
      </trkpt>
      <trkpt lat="45.10254" lon="2.58861">
        <ele>964.82</ele>
        <time>2025-10-17T06:20:29Z</time>
      </trkpt>
      <trkpt lat="45.1026" lon="2.58883">
        <ele>962.42</ele>
        <time>2025-10-17T06:20:45Z</time>
      </trkpt>
      <trkpt lat="45.10268" lon="2.58906">
        <ele>960.01</ele>
        <time>2025-10-17T06:21:01Z</time>
      </trkpt>
      <trkpt lat="45.10279" lon="2.58926">
        <ele>958.09</ele>
        <time>2025-10-17T06:21:16Z</time>
      </trkpt>
      <trkpt lat="45.10289" lon="2.58944">
        <ele>956.17</ele>
        <time>2025-10-17T06:21:30Z</time>
      </trkpt>
      <trkpt lat="45.10298" lon="2.58963">
        <ele>954.73</ele>
        <time>2025-10-17T06:21:44Z</time>
      </trkpt>
      <trkpt lat="45.10307" lon="2.58981">
        <ele>952.8</ele>
        <time>2025-10-17T06:21:59Z</time>
      </trkpt>
      <trkpt lat="45.10317" lon="2.59">
        <ele>950.88</ele>
        <time>2025-10-17T06:22:14Z</time>
      </trkpt>
      <trkpt lat="45.10323" lon="2.59016">
        <ele>949.44</ele>
        <time>2025-10-17T06:22:27Z</time>
      </trkpt>
      <trkpt lat="45.10323" lon="2.59017">
        <ele>948.96</ele>
        <time>2025-10-17T06:22:28Z</time>
      </trkpt>
      <trkpt lat="45.10329" lon="2.59037">
        <ele>947.52</ele>
        <time>2025-10-17T06:22:42Z</time>
      </trkpt>
      <trkpt lat="45.10335" lon="2.59059">
        <ele>946.07</ele>
        <time>2025-10-17T06:22:57Z</time>
      </trkpt>
      <trkpt lat="45.10339" lon="2.59082">
        <ele>944.63</ele>
        <time>2025-10-17T06:23:12Z</time>
      </trkpt>
      <trkpt lat="45.10337" lon="2.59103">
        <ele>942.71</ele>
        <time>2025-10-17T06:23:26Z</time>
      </trkpt>
      <trkpt lat="45.10326" lon="2.59119">
        <ele>940.31</ele>
        <time>2025-10-17T06:23:39Z</time>
      </trkpt>
      <trkpt lat="45.10313" lon="2.59132">
        <ele>939.35</ele>
        <time>2025-10-17T06:23:53Z</time>
      </trkpt>
      <trkpt lat="45.10304" lon="2.59141">
        <ele>938.38</ele>
        <time>2025-10-17T06:24:03Z</time>
      </trkpt>
      <trkpt lat="45.10292" lon="2.59151">
        <ele>936.94</ele>
        <time>2025-10-17T06:24:15Z</time>
      </trkpt>
      <trkpt lat="45.10282" lon="2.5916">
        <ele>935.98</ele>
        <time>2025-10-17T06:24:26Z</time>
      </trkpt>
      <trkpt lat="45.10269" lon="2.59172">
        <ele>934.54</ele>
        <time>2025-10-17T06:24:39Z</time>
      </trkpt>
      <trkpt lat="45.10264" lon="2.59177">
        <ele>933.58</ele>
        <time>2025-10-17T06:24:44Z</time>
      </trkpt>
      <trkpt lat="45.1026" lon="2.59183">
        <ele>933.58</ele>
        <time>2025-10-17T06:24:49Z</time>
      </trkpt>
      <trkpt lat="45.10247" lon="2.59193">
        <ele>933.58</ele>
        <time>2025-10-17T06:25:02Z</time>
      </trkpt>
      <trkpt lat="45.10235" lon="2.59203">
        <ele>933.58</ele>
        <time>2025-10-17T06:25:14Z</time>
      </trkpt>
      <trkpt lat="45.10229" lon="2.59211">
        <ele>933.58</ele>
        <time>2025-10-17T06:25:22Z</time>
      </trkpt>
      <trkpt lat="45.10228" lon="2.59214">
        <ele>935.02</ele>
        <time>2025-10-17T06:25:25Z</time>
      </trkpt>
      <trkpt lat="45.10221" lon="2.5923">
        <ele>935.5</ele>
        <time>2025-10-17T06:25:38Z</time>
      </trkpt>
      <trkpt lat="45.10214" lon="2.59247">
        <ele>935.5</ele>
        <time>2025-10-17T06:25:51Z</time>
      </trkpt>
      <trkpt lat="45.10214" lon="2.59267">
        <ele>935.5</ele>
        <time>2025-10-17T06:26:04Z</time>
      </trkpt>
      <trkpt lat="45.10217" lon="2.59287">
        <ele>935.5</ele>
        <time>2025-10-17T06:26:17Z</time>
      </trkpt>
      <trkpt lat="45.10219" lon="2.59295">
        <ele>934.54</ele>
        <time>2025-10-17T06:26:22Z</time>
      </trkpt>
      <trkpt lat="45.10223" lon="2.59316">
        <ele>934.54</ele>
        <time>2025-10-17T06:26:35Z</time>
      </trkpt>
      <trkpt lat="45.10229" lon="2.59328">
        <ele>935.98</ele>
        <time>2025-10-17T06:26:45Z</time>
      </trkpt>
      <trkpt lat="45.10234" lon="2.5934">
        <ele>936.46</ele>
        <time>2025-10-17T06:26:55Z</time>
      </trkpt>
      <trkpt lat="45.10238" lon="2.59346">
        <ele>936.46</ele>
        <time>2025-10-17T06:27:00Z</time>
      </trkpt>
      <trkpt lat="45.10243" lon="2.59349">
        <ele>936.46</ele>
        <time>2025-10-17T06:27:06Z</time>
      </trkpt>
      <trkpt lat="45.10248" lon="2.5935">
        <ele>936.46</ele>
        <time>2025-10-17T06:27:11Z</time>
      </trkpt>
      <trkpt lat="45.10263" lon="2.5936">
        <ele>936.94</ele>
        <time>2025-10-17T06:27:25Z</time>
      </trkpt>
      <trkpt lat="45.10273" lon="2.59376">
        <ele>936.94</ele>
        <time>2025-10-17T06:27:38Z</time>
      </trkpt>
      <trkpt lat="45.10274" lon="2.59377">
        <ele>936.94</ele>
        <time>2025-10-17T06:27:39Z</time>
      </trkpt>
      <trkpt lat="45.10282" lon="2.59406">
        <ele>935.98</ele>
        <time>2025-10-17T06:27:55Z</time>
      </trkpt>
      <trkpt lat="45.10289" lon="2.59429">
        <ele>935.5</ele>
        <time>2025-10-17T06:28:09Z</time>
      </trkpt>
      <trkpt lat="45.10294" lon="2.59453">
        <ele>935.02</ele>
        <time>2025-10-17T06:28:24Z</time>
      </trkpt>
      <trkpt lat="45.10296" lon="2.59456">
        <ele>935.98</ele>
        <time>2025-10-17T06:28:28Z</time>
      </trkpt>
      <trkpt lat="45.10302" lon="2.59474">
        <ele>938.38</ele>
        <time>2025-10-17T06:28:41Z</time>
      </trkpt>
      <trkpt lat="45.10307" lon="2.59491">
        <ele>939.83</ele>
        <time>2025-10-17T06:28:53Z</time>
      </trkpt>
      <trkpt lat="45.10315" lon="2.59504">
        <ele>940.79</ele>
        <time>2025-10-17T06:29:05Z</time>
      </trkpt>
      <trkpt lat="45.10321" lon="2.59512">
        <ele>942.23</ele>
        <time>2025-10-17T06:29:15Z</time>
      </trkpt>
      <trkpt lat="45.1033" lon="2.59523">
        <ele>943.19</ele>
        <time>2025-10-17T06:29:27Z</time>
      </trkpt>
      <trkpt lat="45.10341" lon="2.59539">
        <ele>943.67</ele>
        <time>2025-10-17T06:29:40Z</time>
      </trkpt>
      <trkpt lat="45.10352" lon="2.59553">
        <ele>943.67</ele>
        <time>2025-10-17T06:29:53Z</time>
      </trkpt>
      <trkpt lat="45.10366" lon="2.59558">
        <ele>944.63</ele>
        <time>2025-10-17T06:30:07Z</time>
      </trkpt>
      <trkpt lat="45.10374" lon="2.59559">
        <ele>945.11</ele>
        <time>2025-10-17T06:30:16Z</time>
      </trkpt>
      <trkpt lat="45.10379" lon="2.59559">
        <ele>946.07</ele>
        <time>2025-10-17T06:30:20Z</time>
      </trkpt>
      <trkpt lat="45.10392" lon="2.59566">
        <ele>946.56</ele>
        <time>2025-10-17T06:30:33Z</time>
      </trkpt>
      <trkpt lat="45.10404" lon="2.59576">
        <ele>947.52</ele>
        <time>2025-10-17T06:30:45Z</time>
      </trkpt>
      <trkpt lat="45.10409" lon="2.59583">
        <ele>948</ele>
        <time>2025-10-17T06:30:52Z</time>
      </trkpt>
      <trkpt lat="45.10422" lon="2.59588">
        <ele>948.96</ele>
        <time>2025-10-17T06:31:05Z</time>
      </trkpt>
      <trkpt lat="45.10429" lon="2.59592">
        <ele>948.96</ele>
        <time>2025-10-17T06:31:13Z</time>
      </trkpt>
      <trkpt lat="45.10431" lon="2.59595">
        <ele>948.96</ele>
        <time>2025-10-17T06:31:16Z</time>
      </trkpt>
      <trkpt lat="45.10434" lon="2.59602">
        <ele>948.96</ele>
        <time>2025-10-17T06:31:21Z</time>
      </trkpt>
      <trkpt lat="45.10444" lon="2.59621">
        <ele>948.96</ele>
        <time>2025-10-17T06:31:35Z</time>
      </trkpt>
      <trkpt lat="45.1045" lon="2.59641">
        <ele>947.52</ele>
        <time>2025-10-17T06:31:48Z</time>
      </trkpt>
      <trkpt lat="45.10449" lon="2.59661">
        <ele>947.52</ele>
        <time>2025-10-17T06:32:01Z</time>
      </trkpt>
      <trkpt lat="45.10444" lon="2.59682">
        <ele>948.48</ele>
        <time>2025-10-17T06:32:14Z</time>
      </trkpt>
      <trkpt lat="45.10443" lon="2.59693">
        <ele>948.96</ele>
        <time>2025-10-17T06:32:23Z</time>
      </trkpt>
      <trkpt lat="45.10445" lon="2.59708">
        <ele>950.88</ele>
        <time>2025-10-17T06:32:35Z</time>
      </trkpt>
      <trkpt lat="45.10447" lon="2.59711">
        <ele>951.36</ele>
        <time>2025-10-17T06:32:39Z</time>
      </trkpt>
      <trkpt lat="45.10447" lon="2.59714">
        <ele>952.32</ele>
        <time>2025-10-17T06:32:41Z</time>
      </trkpt>
      <trkpt lat="45.10449" lon="2.59724">
        <ele>953.77</ele>
        <time>2025-10-17T06:32:54Z</time>
      </trkpt>
      <trkpt lat="45.1045" lon="2.59736">
        <ele>954.73</ele>
        <time>2025-10-17T06:33:06Z</time>
      </trkpt>
      <trkpt lat="45.10454" lon="2.5975">
        <ele>956.17</ele>
        <time>2025-10-17T06:33:16Z</time>
      </trkpt>
      <trkpt lat="45.10458" lon="2.59764">
        <ele>957.61</ele>
        <time>2025-10-17T06:33:29Z</time>
      </trkpt>
      <trkpt lat="45.10461" lon="2.59784">
        <ele>960.49</ele>
        <time>2025-10-17T06:33:47Z</time>
      </trkpt>
      <trkpt lat="45.10462" lon="2.59788">
        <ele>960.98</ele>
        <time>2025-10-17T06:33:51Z</time>
      </trkpt>
      <trkpt lat="45.10463" lon="2.59796">
        <ele>961.94</ele>
        <time>2025-10-17T06:33:57Z</time>
      </trkpt>
      <trkpt lat="45.10465" lon="2.59808">
        <ele>962.9</ele>
        <time>2025-10-17T06:34:08Z</time>
      </trkpt>
      <trkpt lat="45.10466" lon="2.59812">
        <ele>963.38</ele>
        <time>2025-10-17T06:34:11Z</time>
      </trkpt>
      <trkpt lat="45.10471" lon="2.59826">
        <ele>964.82</ele>
        <time>2025-10-17T06:34:23Z</time>
      </trkpt>
      <trkpt lat="45.10478" lon="2.59841">
        <ele>965.78</ele>
        <time>2025-10-17T06:34:37Z</time>
      </trkpt>
      <trkpt lat="45.10482" lon="2.59849">
        <ele>966.26</ele>
        <time>2025-10-17T06:34:44Z</time>
      </trkpt>
      <trkpt lat="45.10484" lon="2.59852">
        <ele>967.22</ele>
        <time>2025-10-17T06:34:47Z</time>
      </trkpt>
      <trkpt lat="45.10486" lon="2.59856">
        <ele>967.22</ele>
        <time>2025-10-17T06:34:51Z</time>
      </trkpt>
      <trkpt lat="45.10494" lon="2.5987">
        <ele>967.7</ele>
        <time>2025-10-17T06:35:04Z</time>
      </trkpt>
      <trkpt lat="45.10496" lon="2.59874">
        <ele>968.18</ele>
        <time>2025-10-17T06:35:08Z</time>
      </trkpt>
      <trkpt lat="45.10504" lon="2.59889">
        <ele>969.15</ele>
        <time>2025-10-17T06:35:22Z</time>
      </trkpt>
      <trkpt lat="45.10507" lon="2.59898">
        <ele>969.63</ele>
        <time>2025-10-17T06:35:29Z</time>
      </trkpt>
      <trkpt lat="45.1051" lon="2.59906">
        <ele>970.11</ele>
        <time>2025-10-17T06:35:36Z</time>
      </trkpt>
      <trkpt lat="45.10517" lon="2.59921">
        <ele>971.07</ele>
        <time>2025-10-17T06:35:49Z</time>
      </trkpt>
      <trkpt lat="45.10524" lon="2.59933">
        <ele>971.55</ele>
        <time>2025-10-17T06:36:00Z</time>
      </trkpt>
      <trkpt lat="45.10526" lon="2.59938">
        <ele>972.03</ele>
        <time>2025-10-17T06:36:05Z</time>
      </trkpt>
      <trkpt lat="45.10528" lon="2.59941">
        <ele>972.51</ele>
        <time>2025-10-17T06:36:08Z</time>
      </trkpt>
      <trkpt lat="45.10532" lon="2.59948">
        <ele>972.99</ele>
        <time>2025-10-17T06:36:16Z</time>
      </trkpt>
      <trkpt lat="45.10534" lon="2.59949">
        <ele>972.99</ele>
        <time>2025-10-17T06:36:18Z</time>
      </trkpt>
      <trkpt lat="45.10539" lon="2.59958">
        <ele>973.95</ele>
        <time>2025-10-17T06:36:30Z</time>
      </trkpt>
      <trkpt lat="45.10544" lon="2.5997">
        <ele>974.43</ele>
        <time>2025-10-17T06:36:41Z</time>
      </trkpt>
      <trkpt lat="45.10546" lon="2.59972">
        <ele>974.91</ele>
        <time>2025-10-17T06:36:43Z</time>
      </trkpt>
      <trkpt lat="45.1055" lon="2.59978">
        <ele>975.39</ele>
        <time>2025-10-17T06:36:50Z</time>
      </trkpt>
      <trkpt lat="45.10555" lon="2.59985">
        <ele>975.39</ele>
        <time>2025-10-17T06:36:57Z</time>
      </trkpt>
      <trkpt lat="45.10556" lon="2.59987">
        <ele>975.88</ele>
        <time>2025-10-17T06:37:00Z</time>
      </trkpt>
      <trkpt lat="45.10566" lon="2.59999">
        <ele>977.32</ele>
        <time>2025-10-17T06:37:13Z</time>
      </trkpt>
      <trkpt lat="45.1057" lon="2.60005">
        <ele>978.76</ele>
        <time>2025-10-17T06:37:20Z</time>
      </trkpt>
      <trkpt lat="45.10571" lon="2.60007">
        <ele>978.28</ele>
        <time>2025-10-17T06:37:22Z</time>
      </trkpt>
      <trkpt lat="45.10579" lon="2.60016">
        <ele>980.2</ele>
        <time>2025-10-17T06:37:35Z</time>
      </trkpt>
      <trkpt lat="45.10586" lon="2.60025">
        <ele>981.16</ele>
        <time>2025-10-17T06:37:46Z</time>
      </trkpt>
      <trkpt lat="45.10593" lon="2.60036">
        <ele>982.6</ele>
        <time>2025-10-17T06:37:58Z</time>
      </trkpt>
      <trkpt lat="45.10599" lon="2.60046">
        <ele>984.05</ele>
        <time>2025-10-17T06:38:09Z</time>
      </trkpt>
      <trkpt lat="45.10605" lon="2.60056">
        <ele>985.01</ele>
        <time>2025-10-17T06:38:20Z</time>
      </trkpt>
      <trkpt lat="45.10609" lon="2.60067">
        <ele>986.93</ele>
        <time>2025-10-17T06:38:31Z</time>
      </trkpt>
      <trkpt lat="45.10615" lon="2.60084">
        <ele>988.37</ele>
        <time>2025-10-17T06:38:47Z</time>
      </trkpt>
      <trkpt lat="45.10622" lon="2.60096">
        <ele>990.3</ele>
        <time>2025-10-17T06:39:04Z</time>
      </trkpt>
      <trkpt lat="45.1063" lon="2.60112">
        <ele>991.74</ele>
        <time>2025-10-17T06:39:23Z</time>
      </trkpt>
      <trkpt lat="45.10637" lon="2.60129">
        <ele>993.66</ele>
        <time>2025-10-17T06:39:40Z</time>
      </trkpt>
      <trkpt lat="45.10645" lon="2.60143">
        <ele>995.1</ele>
        <time>2025-10-17T06:39:58Z</time>
      </trkpt>
      <trkpt lat="45.10657" lon="2.60149">
        <ele>997.02</ele>
        <time>2025-10-17T06:40:17Z</time>
      </trkpt>
      <trkpt lat="45.10674" lon="2.60155">
        <ele>998.95</ele>
        <time>2025-10-17T06:40:36Z</time>
      </trkpt>
      <trkpt lat="45.10684" lon="2.60158">
        <ele>1000.39</ele>
        <time>2025-10-17T06:40:54Z</time>
      </trkpt>
      <trkpt lat="45.10687" lon="2.60158">
        <ele>1000.39</ele>
        <time>2025-10-17T06:40:58Z</time>
      </trkpt>
      <trkpt lat="45.10696" lon="2.60162">
        <ele>1002.31</ele>
        <time>2025-10-17T06:41:10Z</time>
      </trkpt>
      <trkpt lat="45.10705" lon="2.60162">
        <ele>1003.27</ele>
        <time>2025-10-17T06:41:22Z</time>
      </trkpt>
      <trkpt lat="45.10714" lon="2.60159">
        <ele>1004.72</ele>
        <time>2025-10-17T06:41:34Z</time>
      </trkpt>
      <trkpt lat="45.10725" lon="2.60162">
        <ele>1006.16</ele>
        <time>2025-10-17T06:41:46Z</time>
      </trkpt>
      <trkpt lat="45.10735" lon="2.60167">
        <ele>1008.08</ele>
        <time>2025-10-17T06:42:00Z</time>
      </trkpt>
      <trkpt lat="45.10745" lon="2.60174">
        <ele>1009.04</ele>
        <time>2025-10-17T06:42:12Z</time>
      </trkpt>
      <trkpt lat="45.10752" lon="2.60182">
        <ele>1010.48</ele>
        <time>2025-10-17T06:42:23Z</time>
      </trkpt>
      <trkpt lat="45.10759" lon="2.60192">
        <ele>1011.44</ele>
        <time>2025-10-17T06:42:34Z</time>
      </trkpt>
      <trkpt lat="45.10765" lon="2.602">
        <ele>1012.89</ele>
        <time>2025-10-17T06:42:45Z</time>
      </trkpt>
      <trkpt lat="45.10771" lon="2.60207">
        <ele>1013.85</ele>
        <time>2025-10-17T06:42:55Z</time>
      </trkpt>
      <trkpt lat="45.10781" lon="2.60211">
        <ele>1015.29</ele>
        <time>2025-10-17T06:43:07Z</time>
      </trkpt>
      <trkpt lat="45.10785" lon="2.60213">
        <ele>1015.77</ele>
        <time>2025-10-17T06:43:13Z</time>
      </trkpt>
      <trkpt lat="45.10793" lon="2.60222">
        <ele>1017.21</ele>
        <time>2025-10-17T06:43:26Z</time>
      </trkpt>
      <trkpt lat="45.10801" lon="2.60227">
        <ele>1019.62</ele>
        <time>2025-10-17T06:43:38Z</time>
      </trkpt>
      <trkpt lat="45.10809" lon="2.60233">
        <ele>1020.58</ele>
        <time>2025-10-17T06:43:51Z</time>
      </trkpt>
      <trkpt lat="45.10814" lon="2.60236">
        <ele>1021.54</ele>
        <time>2025-10-17T06:43:57Z</time>
      </trkpt>
      <trkpt lat="45.10821" lon="2.60247">
        <ele>1022.98</ele>
        <time>2025-10-17T06:44:10Z</time>
      </trkpt>
      <trkpt lat="45.10831" lon="2.6025">
        <ele>1024.42</ele>
        <time>2025-10-17T06:44:21Z</time>
      </trkpt>
      <trkpt lat="45.10841" lon="2.60257">
        <ele>1025.86</ele>
        <time>2025-10-17T06:44:33Z</time>
      </trkpt>
      <trkpt lat="45.1085" lon="2.60262">
        <ele>1027.31</ele>
        <time>2025-10-17T06:44:45Z</time>
      </trkpt>
      <trkpt lat="45.10857" lon="2.60266">
        <ele>1028.75</ele>
        <time>2025-10-17T06:44:57Z</time>
      </trkpt>
      <trkpt lat="45.10867" lon="2.60271">
        <ele>1030.67</ele>
        <time>2025-10-17T06:45:10Z</time>
      </trkpt>
      <trkpt lat="45.10874" lon="2.60283">
        <ele>1031.63</ele>
        <time>2025-10-17T06:45:23Z</time>
      </trkpt>
      <trkpt lat="45.10886" lon="2.60301">
        <ele>1033.55</ele>
        <time>2025-10-17T06:45:40Z</time>
      </trkpt>
      <trkpt lat="45.10896" lon="2.60314">
        <ele>1035</ele>
        <time>2025-10-17T06:45:53Z</time>
      </trkpt>
      <trkpt lat="45.10904" lon="2.60323">
        <ele>1036.44</ele>
        <time>2025-10-17T06:46:05Z</time>
      </trkpt>
      <trkpt lat="45.10911" lon="2.60327">
        <ele>1036.92</ele>
        <time>2025-10-17T06:46:15Z</time>
      </trkpt>
      <trkpt lat="45.10917" lon="2.60334">
        <ele>1037.88</ele>
        <time>2025-10-17T06:46:28Z</time>
      </trkpt>
      <trkpt lat="45.10921" lon="2.60344">
        <ele>1038.36</ele>
        <time>2025-10-17T06:46:39Z</time>
      </trkpt>
      <trkpt lat="45.10927" lon="2.60355">
        <ele>1040.28</ele>
        <time>2025-10-17T06:46:51Z</time>
      </trkpt>
      <trkpt lat="45.10934" lon="2.60363">
        <ele>1041.25</ele>
        <time>2025-10-17T06:47:03Z</time>
      </trkpt>
      <trkpt lat="45.10943" lon="2.60375">
        <ele>1042.69</ele>
        <time>2025-10-17T06:47:17Z</time>
      </trkpt>
      <trkpt lat="45.10945" lon="2.60379">
        <ele>1042.69</ele>
        <time>2025-10-17T06:47:20Z</time>
      </trkpt>
      <trkpt lat="45.10957" lon="2.60392">
        <ele>1043.65</ele>
        <time>2025-10-17T06:47:34Z</time>
      </trkpt>
      <trkpt lat="45.10957" lon="2.60393">
        <ele>1043.65</ele>
        <time>2025-10-17T06:47:35Z</time>
      </trkpt>
      <trkpt lat="45.10963" lon="2.60398">
        <ele>1044.13</ele>
        <time>2025-10-17T06:47:42Z</time>
      </trkpt>
      <trkpt lat="45.10971" lon="2.6041">
        <ele>1044.61</ele>
        <time>2025-10-17T06:47:55Z</time>
      </trkpt>
      <trkpt lat="45.10975" lon="2.60416">
        <ele>1046.05</ele>
        <time>2025-10-17T06:48:01Z</time>
      </trkpt>
      <trkpt lat="45.10978" lon="2.6042">
        <ele>1046.05</ele>
        <time>2025-10-17T06:48:05Z</time>
      </trkpt>
      <trkpt lat="45.1098" lon="2.60424">
        <ele>1046.05</ele>
        <time>2025-10-17T06:48:09Z</time>
      </trkpt>
      <trkpt lat="45.10988" lon="2.60435">
        <ele>1047.01</ele>
        <time>2025-10-17T06:48:21Z</time>
      </trkpt>
      <trkpt lat="45.10995" lon="2.60443">
        <ele>1047.49</ele>
        <time>2025-10-17T06:48:30Z</time>
      </trkpt>
      <trkpt lat="45.11004" lon="2.60458">
        <ele>1048.94</ele>
        <time>2025-10-17T06:48:43Z</time>
      </trkpt>
      <trkpt lat="45.11005" lon="2.6046">
        <ele>1049.42</ele>
        <time>2025-10-17T06:48:45Z</time>
      </trkpt>
      <trkpt lat="45.11011" lon="2.60473">
        <ele>1049.9</ele>
        <time>2025-10-17T06:48:57Z</time>
      </trkpt>
      <trkpt lat="45.11019" lon="2.60482">
        <ele>1050.86</ele>
        <time>2025-10-17T06:49:08Z</time>
      </trkpt>
      <trkpt lat="45.11022" lon="2.60487">
        <ele>1051.82</ele>
        <time>2025-10-17T06:49:14Z</time>
      </trkpt>
      <trkpt lat="45.11028" lon="2.60498">
        <ele>1053.26</ele>
        <time>2025-10-17T06:49:27Z</time>
      </trkpt>
      <trkpt lat="45.11033" lon="2.60502">
        <ele>1053.74</ele>
        <time>2025-10-17T06:49:34Z</time>
      </trkpt>
      <trkpt lat="45.11041" lon="2.60511">
        <ele>1055.18</ele>
        <time>2025-10-17T06:49:47Z</time>
      </trkpt>
      <trkpt lat="45.11049" lon="2.60518">
        <ele>1056.15</ele>
        <time>2025-10-17T06:49:58Z</time>
      </trkpt>
      <trkpt lat="45.11056" lon="2.60528">
        <ele>1057.59</ele>
        <time>2025-10-17T06:50:09Z</time>
      </trkpt>
      <trkpt lat="45.11061" lon="2.60537">
        <ele>1058.55</ele>
        <time>2025-10-17T06:50:20Z</time>
      </trkpt>
      <trkpt lat="45.11061" lon="2.60538">
        <ele>1058.55</ele>
        <time>2025-10-17T06:50:21Z</time>
      </trkpt>
      <trkpt lat="45.11063" lon="2.60542">
        <ele>1059.51</ele>
        <time>2025-10-17T06:50:24Z</time>
      </trkpt>
      <trkpt lat="45.11063" lon="2.60552">
        <ele>1059.51</ele>
        <time>2025-10-17T06:50:31Z</time>
      </trkpt>
      <trkpt lat="45.11064" lon="2.60568">
        <ele>1060.47</ele>
        <time>2025-10-17T06:50:43Z</time>
      </trkpt>
      <trkpt lat="45.11066" lon="2.60571">
        <ele>1060.95</ele>
        <time>2025-10-17T06:50:47Z</time>
      </trkpt>
      <trkpt lat="45.1107" lon="2.60583">
        <ele>1061.43</ele>
        <time>2025-10-17T06:50:58Z</time>
      </trkpt>
      <trkpt lat="45.11071" lon="2.60584">
        <ele>1061.43</ele>
        <time>2025-10-17T06:50:59Z</time>
      </trkpt>
      <trkpt lat="45.11072" lon="2.60588">
        <ele>1062.39</ele>
        <time>2025-10-17T06:51:02Z</time>
      </trkpt>
      <trkpt lat="45.11077" lon="2.60601">
        <ele>1063.84</ele>
        <time>2025-10-17T06:51:14Z</time>
      </trkpt>
      <trkpt lat="45.11079" lon="2.60609">
        <ele>1064.32</ele>
        <time>2025-10-17T06:51:20Z</time>
      </trkpt>
      <trkpt lat="45.11079" lon="2.60613">
        <ele>1064.32</ele>
        <time>2025-10-17T06:51:23Z</time>
      </trkpt>
      <trkpt lat="45.11083" lon="2.60626">
        <ele>1065.76</ele>
        <time>2025-10-17T06:51:35Z</time>
      </trkpt>
      <trkpt lat="45.11087" lon="2.6064">
        <ele>1067.2</ele>
        <time>2025-10-17T06:51:45Z</time>
      </trkpt>
      <trkpt lat="45.1109" lon="2.60652">
        <ele>1068.16</ele>
        <time>2025-10-17T06:51:55Z</time>
      </trkpt>
      <trkpt lat="45.11093" lon="2.60666">
        <ele>1069.12</ele>
        <time>2025-10-17T06:52:06Z</time>
      </trkpt>
      <trkpt lat="45.11097" lon="2.6068">
        <ele>1070.08</ele>
        <time>2025-10-17T06:52:17Z</time>
      </trkpt>
      <trkpt lat="45.11098" lon="2.60685">
        <ele>1070.57</ele>
        <time>2025-10-17T06:52:21Z</time>
      </trkpt>
      <trkpt lat="45.11103" lon="2.60697">
        <ele>1071.53</ele>
        <time>2025-10-17T06:52:33Z</time>
      </trkpt>
      <trkpt lat="45.11106" lon="2.60714">
        <ele>1072.97</ele>
        <time>2025-10-17T06:52:45Z</time>
      </trkpt>
      <trkpt lat="45.11106" lon="2.60716">
        <ele>1072.97</ele>
        <time>2025-10-17T06:52:47Z</time>
      </trkpt>
      <trkpt lat="45.11109" lon="2.6073">
        <ele>1074.41</ele>
        <time>2025-10-17T06:52:58Z</time>
      </trkpt>
      <trkpt lat="45.11113" lon="2.60743">
        <ele>1075.37</ele>
        <time>2025-10-17T06:53:10Z</time>
      </trkpt>
      <trkpt lat="45.11113" lon="2.60744">
        <ele>1075.37</ele>
        <time>2025-10-17T06:53:11Z</time>
      </trkpt>
      <trkpt lat="45.11112" lon="2.6075">
        <ele>1075.37</ele>
        <time>2025-10-17T06:53:15Z</time>
      </trkpt>
      <trkpt lat="45.11114" lon="2.60758">
        <ele>1076.33</ele>
        <time>2025-10-17T06:53:21Z</time>
      </trkpt>
      <trkpt lat="45.11113" lon="2.60762">
        <ele>1076.81</ele>
        <time>2025-10-17T06:53:24Z</time>
      </trkpt>
      <trkpt lat="45.11115" lon="2.60778">
        <ele>1077.29</ele>
        <time>2025-10-17T06:53:36Z</time>
      </trkpt>
      <trkpt lat="45.1112" lon="2.60792">
        <ele>1078.26</ele>
        <time>2025-10-17T06:53:49Z</time>
      </trkpt>
      <trkpt lat="45.11123" lon="2.60807">
        <ele>1080.18</ele>
        <time>2025-10-17T06:54:02Z</time>
      </trkpt>
      <trkpt lat="45.11127" lon="2.60824">
        <ele>1080.66</ele>
        <time>2025-10-17T06:54:14Z</time>
      </trkpt>
      <trkpt lat="45.11129" lon="2.60838">
        <ele>1081.62</ele>
        <time>2025-10-17T06:54:25Z</time>
      </trkpt>
      <trkpt lat="45.11131" lon="2.60851">
        <ele>1083.06</ele>
        <time>2025-10-17T06:54:37Z</time>
      </trkpt>
      <trkpt lat="45.11134" lon="2.60866">
        <ele>1084.02</ele>
        <time>2025-10-17T06:54:50Z</time>
      </trkpt>
      <trkpt lat="45.11142" lon="2.60881">
        <ele>1085.47</ele>
        <time>2025-10-17T06:55:05Z</time>
      </trkpt>
      <trkpt lat="45.11146" lon="2.60896">
        <ele>1086.91</ele>
        <time>2025-10-17T06:55:18Z</time>
      </trkpt>
      <trkpt lat="45.11149" lon="2.60905">
        <ele>1087.87</ele>
        <time>2025-10-17T06:55:28Z</time>
      </trkpt>
      <trkpt lat="45.11151" lon="2.60917">
        <ele>1088.35</ele>
        <time>2025-10-17T06:55:40Z</time>
      </trkpt>
      <trkpt lat="45.11152" lon="2.60927">
        <ele>1089.31</ele>
        <time>2025-10-17T06:55:51Z</time>
      </trkpt>
      <trkpt lat="45.11155" lon="2.60949">
        <ele>1091.23</ele>
        <time>2025-10-17T06:56:10Z</time>
      </trkpt>
      <trkpt lat="45.11161" lon="2.60972">
        <ele>1093.64</ele>
        <time>2025-10-17T06:56:32Z</time>
      </trkpt>
      <trkpt lat="45.11166" lon="2.60994">
        <ele>1095.08</ele>
        <time>2025-10-17T06:56:50Z</time>
      </trkpt>
      <trkpt lat="45.11172" lon="2.61013">
        <ele>1096.52</ele>
        <time>2025-10-17T06:57:05Z</time>
      </trkpt>
      <trkpt lat="45.11174" lon="2.6103">
        <ele>1097.96</ele>
        <time>2025-10-17T06:57:20Z</time>
      </trkpt>
      <trkpt lat="45.11176" lon="2.61049">
        <ele>1099.4</ele>
        <time>2025-10-17T06:57:35Z</time>
      </trkpt>
      <trkpt lat="45.11179" lon="2.61068">
        <ele>1101.33</ele>
        <time>2025-10-17T06:57:51Z</time>
      </trkpt>
      <trkpt lat="45.11183" lon="2.61092">
        <ele>1102.77</ele>
        <time>2025-10-17T06:58:11Z</time>
      </trkpt>
      <trkpt lat="45.11186" lon="2.61112">
        <ele>1104.69</ele>
        <time>2025-10-17T06:58:26Z</time>
      </trkpt>
      <trkpt lat="45.11188" lon="2.61127">
        <ele>1106.13</ele>
        <time>2025-10-17T06:58:40Z</time>
      </trkpt>
      <trkpt lat="45.11189" lon="2.61152">
        <ele>1108.06</ele>
        <time>2025-10-17T06:58:59Z</time>
      </trkpt>
      <trkpt lat="45.11192" lon="2.61173">
        <ele>1109.5</ele>
        <time>2025-10-17T06:59:15Z</time>
      </trkpt>
      <trkpt lat="45.11193" lon="2.61182">
        <ele>1110.46</ele>
        <time>2025-10-17T06:59:22Z</time>
      </trkpt>
      <trkpt lat="45.11194" lon="2.61199">
        <ele>1111.9</ele>
        <time>2025-10-17T06:59:37Z</time>
      </trkpt>
      <trkpt lat="45.11196" lon="2.61215">
        <ele>1112.86</ele>
        <time>2025-10-17T06:59:52Z</time>
      </trkpt>
      <trkpt lat="45.11199" lon="2.61229">
        <ele>1114.31</ele>
        <time>2025-10-17T07:00:06Z</time>
      </trkpt>
      <trkpt lat="45.11204" lon="2.61246">
        <ele>1115.27</ele>
        <time>2025-10-17T07:00:22Z</time>
      </trkpt>
      <trkpt lat="45.11211" lon="2.61263">
        <ele>1117.19</ele>
        <time>2025-10-17T07:00:39Z</time>
      </trkpt>
      <trkpt lat="45.1122" lon="2.61275">
        <ele>1118.15</ele>
        <time>2025-10-17T07:00:55Z</time>
      </trkpt>
      <trkpt lat="45.1123" lon="2.61288">
        <ele>1120.07</ele>
        <time>2025-10-17T07:01:11Z</time>
      </trkpt>
      <trkpt lat="45.1124" lon="2.61307">
        <ele>1121.52</ele>
        <time>2025-10-17T07:01:31Z</time>
      </trkpt>
      <trkpt lat="45.11254" lon="2.6132">
        <ele>1123.92</ele>
        <time>2025-10-17T07:01:51Z</time>
      </trkpt>
      <trkpt lat="45.11262" lon="2.61342">
        <ele>1126.32</ele>
        <time>2025-10-17T07:02:12Z</time>
      </trkpt>
      <trkpt lat="45.11268" lon="2.61358">
        <ele>1126.8</ele>
        <time>2025-10-17T07:02:30Z</time>
      </trkpt>
      <trkpt lat="45.11274" lon="2.61381">
        <ele>1129.21</ele>
        <time>2025-10-17T07:02:49Z</time>
      </trkpt>
      <trkpt lat="45.11278" lon="2.61397">
        <ele>1130.17</ele>
        <time>2025-10-17T07:03:04Z</time>
      </trkpt>
      <trkpt lat="45.1128" lon="2.61409">
        <ele>1131.13</ele>
        <time>2025-10-17T07:03:16Z</time>
      </trkpt>
      <trkpt lat="45.11283" lon="2.61424">
        <ele>1132.57</ele>
        <time>2025-10-17T07:03:30Z</time>
      </trkpt>
      <trkpt lat="45.11287" lon="2.61438">
        <ele>1133.53</ele>
        <time>2025-10-17T07:03:44Z</time>
      </trkpt>
      <trkpt lat="45.11287" lon="2.61457">
        <ele>1135.45</ele>
        <time>2025-10-17T07:03:59Z</time>
      </trkpt>
      <trkpt lat="45.11291" lon="2.61471">
        <ele>1136.9</ele>
        <time>2025-10-17T07:04:15Z</time>
      </trkpt>
      <trkpt lat="45.11296" lon="2.61495">
        <ele>1138.34</ele>
        <time>2025-10-17T07:04:34Z</time>
      </trkpt>
      <trkpt lat="45.11302" lon="2.61514">
        <ele>1140.26</ele>
        <time>2025-10-17T07:04:50Z</time>
      </trkpt>
      <trkpt lat="45.11305" lon="2.6153">
        <ele>1141.22</ele>
        <time>2025-10-17T07:05:03Z</time>
      </trkpt>
      <trkpt lat="45.11308" lon="2.61552">
        <ele>1143.14</ele>
        <time>2025-10-17T07:05:23Z</time>
      </trkpt>
      <trkpt lat="45.11315" lon="2.61569">
        <ele>1144.59</ele>
        <time>2025-10-17T07:05:41Z</time>
      </trkpt>
      <trkpt lat="45.11324" lon="2.61585">
        <ele>1147.47</ele>
        <time>2025-10-17T07:06:02Z</time>
      </trkpt>
      <trkpt lat="45.11333" lon="2.61604">
        <ele>1149.87</ele>
        <time>2025-10-17T07:06:20Z</time>
      </trkpt>
      <trkpt lat="45.1134" lon="2.61627">
        <ele>1150.84</ele>
        <time>2025-10-17T07:06:37Z</time>
      </trkpt>
      <trkpt lat="45.11342" lon="2.61649">
        <ele>1152.76</ele>
        <time>2025-10-17T07:06:55Z</time>
      </trkpt>
      <trkpt lat="45.11341" lon="2.61668">
        <ele>1153.72</ele>
        <time>2025-10-17T07:07:14Z</time>
      </trkpt>
      <trkpt lat="45.11336" lon="2.61693">
        <ele>1155.64</ele>
        <time>2025-10-17T07:07:33Z</time>
      </trkpt>
      <trkpt lat="45.11338" lon="2.61715">
        <ele>1158.05</ele>
        <time>2025-10-17T07:07:53Z</time>
      </trkpt>
      <trkpt lat="45.11339" lon="2.6174">
        <ele>1159.49</ele>
        <time>2025-10-17T07:08:13Z</time>
      </trkpt>
      <trkpt lat="45.11337" lon="2.61764">
        <ele>1161.41</ele>
        <time>2025-10-17T07:08:34Z</time>
      </trkpt>
      <trkpt lat="45.11336" lon="2.6179">
        <ele>1162.85</ele>
        <time>2025-10-17T07:08:54Z</time>
      </trkpt>
      <trkpt lat="45.1133" lon="2.6181">
        <ele>1165.26</ele>
        <time>2025-10-17T07:09:16Z</time>
      </trkpt>
      <trkpt lat="45.11326" lon="2.61834">
        <ele>1166.7</ele>
        <time>2025-10-17T07:09:32Z</time>
      </trkpt>
      <trkpt lat="45.11328" lon="2.61852">
        <ele>1168.62</ele>
        <time>2025-10-17T07:09:48Z</time>
      </trkpt>
      <trkpt lat="45.11333" lon="2.6187">
        <ele>1169.58</ele>
        <time>2025-10-17T07:10:06Z</time>
      </trkpt>
      <trkpt lat="45.11339" lon="2.61888">
        <ele>1171.02</ele>
        <time>2025-10-17T07:10:23Z</time>
      </trkpt>
      <trkpt lat="45.11343" lon="2.61909">
        <ele>1172.95</ele>
        <time>2025-10-17T07:10:41Z</time>
      </trkpt>
      <trkpt lat="45.11341" lon="2.61933">
        <ele>1174.39</ele>
        <time>2025-10-17T07:10:59Z</time>
      </trkpt>
      <trkpt lat="45.11339" lon="2.61952">
        <ele>1176.31</ele>
        <time>2025-10-17T07:11:17Z</time>
      </trkpt>
      <trkpt lat="45.11331" lon="2.61973">
        <ele>1177.27</ele>
        <time>2025-10-17T07:11:34Z</time>
      </trkpt>
      <trkpt lat="45.11326" lon="2.61987">
        <ele>1179.19</ele>
        <time>2025-10-17T07:11:49Z</time>
      </trkpt>
      <trkpt lat="45.11323" lon="2.62005">
        <ele>1180.64</ele>
        <time>2025-10-17T07:12:08Z</time>
      </trkpt>
      <trkpt lat="45.1132" lon="2.62028">
        <ele>1183.04</ele>
        <time>2025-10-17T07:12:32Z</time>
      </trkpt>
      <trkpt lat="45.11311" lon="2.62045">
        <ele>1184.96</ele>
        <time>2025-10-17T07:12:53Z</time>
      </trkpt>
      <trkpt lat="45.113" lon="2.62072">
        <ele>1186.4</ele>
        <time>2025-10-17T07:13:16Z</time>
      </trkpt>
      <trkpt lat="45.11298" lon="2.62095">
        <ele>1188.33</ele>
        <time>2025-10-17T07:13:33Z</time>
      </trkpt>
      <trkpt lat="45.11303" lon="2.62118">
        <ele>1190.73</ele>
        <time>2025-10-17T07:13:54Z</time>
      </trkpt>
      <trkpt lat="45.11299" lon="2.62139">
        <ele>1192.65</ele>
        <time>2025-10-17T07:14:14Z</time>
      </trkpt>
      <trkpt lat="45.11296" lon="2.62164">
        <ele>1195.06</ele>
        <time>2025-10-17T07:14:37Z</time>
      </trkpt>
      <trkpt lat="45.11294" lon="2.6218">
        <ele>1196.02</ele>
        <time>2025-10-17T07:14:52Z</time>
      </trkpt>
      <trkpt lat="45.11298" lon="2.6221">
        <ele>1198.42</ele>
        <time>2025-10-17T07:15:15Z</time>
      </trkpt>
      <trkpt lat="45.11306" lon="2.62239">
        <ele>1200.34</ele>
        <time>2025-10-17T07:15:37Z</time>
      </trkpt>
      <trkpt lat="45.1131" lon="2.62263">
        <ele>1201.79</ele>
        <time>2025-10-17T07:15:57Z</time>
      </trkpt>
      <trkpt lat="45.11314" lon="2.62292">
        <ele>1204.19</ele>
        <time>2025-10-17T07:16:19Z</time>
      </trkpt>
      <trkpt lat="45.11312" lon="2.62307">
        <ele>1205.15</ele>
        <time>2025-10-17T07:16:34Z</time>
      </trkpt>
      <trkpt lat="45.11322" lon="2.62332">
        <ele>1206.59</ele>
        <time>2025-10-17T07:16:57Z</time>
      </trkpt>
      <trkpt lat="45.11333" lon="2.62354">
        <ele>1209</ele>
        <time>2025-10-17T07:17:20Z</time>
      </trkpt>
      <trkpt lat="45.11339" lon="2.62373">
        <ele>1210.92</ele>
        <time>2025-10-17T07:17:40Z</time>
      </trkpt>
      <trkpt lat="45.11349" lon="2.62394">
        <ele>1212.84</ele>
        <time>2025-10-17T07:17:59Z</time>
      </trkpt>
      <trkpt lat="45.11359" lon="2.62421">
        <ele>1214.76</ele>
        <time>2025-10-17T07:18:24Z</time>
      </trkpt>
      <trkpt lat="45.11367" lon="2.62441">
        <ele>1217.17</ele>
        <time>2025-10-17T07:18:46Z</time>
      </trkpt>
      <trkpt lat="45.11377" lon="2.62466">
        <ele>1219.57</ele>
        <time>2025-10-17T07:19:10Z</time>
      </trkpt>
      <trkpt lat="45.11385" lon="2.62493">
        <ele>1222.45</ele>
        <time>2025-10-17T07:19:35Z</time>
      </trkpt>
      <trkpt lat="45.11388" lon="2.62496">
        <ele>1222.93</ele>
        <time>2025-10-17T07:19:40Z</time>
      </trkpt>
      <trkpt lat="45.11402" lon="2.62516">
        <ele>1223.9</ele>
        <time>2025-10-17T07:20:02Z</time>
      </trkpt>
      <trkpt lat="45.11413" lon="2.62532">
        <ele>1226.3</ele>
        <time>2025-10-17T07:20:21Z</time>
      </trkpt>
      <trkpt lat="45.11419" lon="2.62562">
        <ele>1228.22</ele>
        <time>2025-10-17T07:20:44Z</time>
      </trkpt>
      <trkpt lat="45.11427" lon="2.62585">
        <ele>1231.11</ele>
        <time>2025-10-17T07:21:08Z</time>
      </trkpt>
      <trkpt lat="45.11437" lon="2.62602">
        <ele>1233.03</ele>
        <time>2025-10-17T07:21:28Z</time>
      </trkpt>
      <trkpt lat="45.11444" lon="2.62604">
        <ele>1233.99</ele>
        <time>2025-10-17T07:21:37Z</time>
      </trkpt>
      <trkpt lat="45.11456" lon="2.62612">
        <ele>1234.95</ele>
        <time>2025-10-17T07:21:58Z</time>
      </trkpt>
      <trkpt lat="45.1147" lon="2.62625">
        <ele>1236.39</ele>
        <time>2025-10-17T07:22:17Z</time>
      </trkpt>
      <trkpt lat="45.11479" lon="2.62645">
        <ele>1238.8</ele>
        <time>2025-10-17T07:22:36Z</time>
      </trkpt>
      <trkpt lat="45.1149" lon="2.62664">
        <ele>1240.72</ele>
        <time>2025-10-17T07:22:59Z</time>
      </trkpt>
      <trkpt lat="45.11482" lon="2.62668">
        <ele>1242.64</ele>
        <time>2025-10-17T07:23:19Z</time>
      </trkpt>
      <trkpt lat="45.11478" lon="2.62678">
        <ele>1244.56</ele>
        <time>2025-10-17T07:23:38Z</time>
      </trkpt>
      <trkpt lat="45.11472" lon="2.62686">
        <ele>1245.53</ele>
        <time>2025-10-17T07:24:00Z</time>
      </trkpt>
      <trkpt lat="45.11471" lon="2.62688">
        <ele>1246.01</ele>
        <time>2025-10-17T07:24:25Z</time>
      </trkpt>
      <trkpt lat="45.11479" lon="2.62694">
        <ele>1247.93</ele>
        <time>2025-10-17T07:24:43Z</time>
      </trkpt>
      <trkpt lat="45.1149" lon="2.62708">
        <ele>1251.77</ele>
        <time>2025-10-17T07:25:05Z</time>
      </trkpt>
      <trkpt lat="45.11505" lon="2.6272">
        <ele>1254.66</ele>
        <time>2025-10-17T07:25:28Z</time>
      </trkpt>
      <trkpt lat="45.11518" lon="2.62733">
        <ele>1257.54</ele>
        <time>2025-10-17T07:25:45Z</time>
      </trkpt>
      <trkpt lat="45.11521" lon="2.62747">
        <ele>1260.43</ele>
        <time>2025-10-17T07:26:07Z</time>
      </trkpt>
      <trkpt lat="45.11522" lon="2.62767">
        <ele>1263.79</ele>
        <time>2025-10-17T07:26:31Z</time>
      </trkpt>
      <trkpt lat="45.11535" lon="2.62772">
        <ele>1266.67</ele>
        <time>2025-10-17T07:26:55Z</time>
      </trkpt>
      <trkpt lat="45.11547" lon="2.62787">
        <ele>1269.08</ele>
        <time>2025-10-17T07:27:18Z</time>
      </trkpt>
      <trkpt lat="45.11556" lon="2.628">
        <ele>1272.44</ele>
        <time>2025-10-17T07:27:35Z</time>
      </trkpt>
      <trkpt lat="45.11569" lon="2.62815">
        <ele>1275.81</ele>
        <time>2025-10-17T07:28:00Z</time>
      </trkpt>
      <trkpt lat="45.11566" lon="2.62808">
        <ele>1275.81</ele>
        <time>2025-10-17T07:28:25Z</time>
      </trkpt>
      <trkpt lat="45.11569" lon="2.62829">
        <ele>1279.17</ele>
        <time>2025-10-17T07:28:47Z</time>
      </trkpt>
      <trkpt lat="45.11561" lon="2.62844">
        <ele>1282.06</ele>
        <time>2025-10-17T07:29:08Z</time>
      </trkpt>
      <trkpt lat="45.11552" lon="2.62866">
        <ele>1284.94</ele>
        <time>2025-10-17T07:29:29Z</time>
      </trkpt>
      <trkpt lat="45.11549" lon="2.62893">
        <ele>1286.38</ele>
        <time>2025-10-17T07:29:53Z</time>
      </trkpt>
      <trkpt lat="45.11549" lon="2.62921">
        <ele>1288.78</ele>
        <time>2025-10-17T07:30:19Z</time>
      </trkpt>
      <trkpt lat="45.11559" lon="2.62929">
        <ele>1287.34</ele>
        <time>2025-10-17T07:30:34Z</time>
      </trkpt>
      <trkpt lat="45.11564" lon="2.62938">
        <ele>1288.78</ele>
        <time>2025-10-17T07:30:50Z</time>
      </trkpt>
      <trkpt lat="45.11564" lon="2.62943">
        <ele>1289.27</ele>
        <time>2025-10-17T07:31:07Z</time>
      </trkpt>
      <trkpt lat="45.11562" lon="2.62947">
        <ele>1287.82</ele>
        <time>2025-10-17T07:31:16Z</time>
      </trkpt>
      <trkpt lat="45.11567" lon="2.62957">
        <ele>1289.27</ele>
        <time>2025-10-17T07:31:32Z</time>
      </trkpt>
      <trkpt lat="45.11582" lon="2.62972">
        <ele>1292.15</ele>
        <time>2025-10-17T07:31:56Z</time>
      </trkpt>
      <trkpt lat="45.11589" lon="2.62991">
        <ele>1294.55</ele>
        <time>2025-10-17T07:32:16Z</time>
      </trkpt>
      <trkpt lat="45.11595" lon="2.63017">
        <ele>1296.48</ele>
        <time>2025-10-17T07:32:35Z</time>
      </trkpt>
      <trkpt lat="45.11603" lon="2.63036">
        <ele>1297.92</ele>
        <time>2025-10-17T07:32:53Z</time>
      </trkpt>
      <trkpt lat="45.11604" lon="2.63052">
        <ele>1299.84</ele>
        <time>2025-10-17T07:33:13Z</time>
      </trkpt>
      <trkpt lat="45.11608" lon="2.63063">
        <ele>1301.76</ele>
        <time>2025-10-17T07:33:29Z</time>
      </trkpt>
      <trkpt lat="45.11613" lon="2.6308">
        <ele>1305.13</ele>
        <time>2025-10-17T07:33:46Z</time>
      </trkpt>
      <trkpt lat="45.11615" lon="2.63092">
        <ele>1304.65</ele>
        <time>2025-10-17T07:33:57Z</time>
      </trkpt>
      <trkpt lat="45.11609" lon="2.63108">
        <ele>1306.57</ele>
        <time>2025-10-17T07:34:17Z</time>
      </trkpt>
      <trkpt lat="45.11614" lon="2.63121">
        <ele>1308.01</ele>
        <time>2025-10-17T07:34:35Z</time>
      </trkpt>
      <trkpt lat="45.11619" lon="2.63129">
        <ele>1309.45</ele>
        <time>2025-10-17T07:34:51Z</time>
      </trkpt>
      <trkpt lat="45.11628" lon="2.63139">
        <ele>1311.38</ele>
        <time>2025-10-17T07:35:07Z</time>
      </trkpt>
      <trkpt lat="45.11634" lon="2.63156">
        <ele>1314.26</ele>
        <time>2025-10-17T07:35:24Z</time>
      </trkpt>
      <trkpt lat="45.11641" lon="2.63165">
        <ele>1315.22</ele>
        <time>2025-10-17T07:35:39Z</time>
      </trkpt>
      <trkpt lat="45.11649" lon="2.63175">
        <ele>1316.66</ele>
        <time>2025-10-17T07:35:53Z</time>
      </trkpt>
      <trkpt lat="45.11657" lon="2.63178">
        <ele>1318.59</ele>
        <time>2025-10-17T07:36:07Z</time>
      </trkpt>
      <trkpt lat="45.11666" lon="2.6318">
        <ele>1320.51</ele>
        <time>2025-10-17T07:36:27Z</time>
      </trkpt>
      <trkpt lat="45.11678" lon="2.63185">
        <ele>1323.39</ele>
        <time>2025-10-17T07:36:44Z</time>
      </trkpt>
      <trkpt lat="45.11683" lon="2.63199">
        <ele>1324.83</ele>
        <time>2025-10-17T07:36:59Z</time>
      </trkpt>
      <trkpt lat="45.11683" lon="2.63213">
        <ele>1326.28</ele>
        <time>2025-10-17T07:37:17Z</time>
      </trkpt>
      <trkpt lat="45.11685" lon="2.63224">
        <ele>1328.68</ele>
        <time>2025-10-17T07:37:32Z</time>
      </trkpt>
      <trkpt lat="45.11688" lon="2.63236">
        <ele>1330.6</ele>
        <time>2025-10-17T07:37:51Z</time>
      </trkpt>
      <trkpt lat="45.11688" lon="2.63245">
        <ele>1333.01</ele>
        <time>2025-10-17T07:38:06Z</time>
      </trkpt>
      <trkpt lat="45.11691" lon="2.63255">
        <ele>1334.93</ele>
        <time>2025-10-17T07:38:23Z</time>
      </trkpt>
      <trkpt lat="45.11692" lon="2.63269">
        <ele>1338.29</ele>
        <time>2025-10-17T07:38:41Z</time>
      </trkpt>
      <trkpt lat="45.11693" lon="2.63281">
        <ele>1340.22</ele>
        <time>2025-10-17T07:38:57Z</time>
      </trkpt>
      <trkpt lat="45.11695" lon="2.63289">
        <ele>1341.66</ele>
        <time>2025-10-17T07:39:10Z</time>
      </trkpt>
      <trkpt lat="45.11696" lon="2.63298">
        <ele>1344.06</ele>
        <time>2025-10-17T07:39:25Z</time>
      </trkpt>
      <trkpt lat="45.11697" lon="2.63311">
        <ele>1345.5</ele>
        <time>2025-10-17T07:39:41Z</time>
      </trkpt>
      <trkpt lat="45.11698" lon="2.6332">
        <ele>1347.43</ele>
        <time>2025-10-17T07:39:55Z</time>
      </trkpt>
      <trkpt lat="45.11699" lon="2.63331">
        <ele>1350.31</ele>
        <time>2025-10-17T07:40:12Z</time>
      </trkpt>
      <trkpt lat="45.11699" lon="2.63338">
        <ele>1350.79</ele>
        <time>2025-10-17T07:40:24Z</time>
      </trkpt>
      <trkpt lat="45.11699" lon="2.63349">
        <ele>1353.19</ele>
        <time>2025-10-17T07:40:37Z</time>
      </trkpt>
      <trkpt lat="45.11702" lon="2.63361">
        <ele>1355.6</ele>
        <time>2025-10-17T07:40:54Z</time>
      </trkpt>
      <trkpt lat="45.11703" lon="2.63373">
        <ele>1357.04</ele>
        <time>2025-10-17T07:41:09Z</time>
      </trkpt>
      <trkpt lat="45.11704" lon="2.63385">
        <ele>1358.96</ele>
        <time>2025-10-17T07:41:25Z</time>
      </trkpt>
      <trkpt lat="45.11704" lon="2.63395">
        <ele>1361.84</ele>
        <time>2025-10-17T07:41:44Z</time>
      </trkpt>
      <trkpt lat="45.11703" lon="2.63405">
        <ele>1363.77</ele>
        <time>2025-10-17T07:42:01Z</time>
      </trkpt>
      <trkpt lat="45.11703" lon="2.63415">
        <ele>1365.69</ele>
        <time>2025-10-17T07:42:16Z</time>
      </trkpt>
      <trkpt lat="45.11702" lon="2.63426">
        <ele>1367.61</ele>
        <time>2025-10-17T07:42:31Z</time>
      </trkpt>
      <trkpt lat="45.11702" lon="2.63435">
        <ele>1370.02</ele>
        <time>2025-10-17T07:42:47Z</time>
      </trkpt>
      <trkpt lat="45.11701" lon="2.6345">
        <ele>1371.94</ele>
        <time>2025-10-17T07:43:05Z</time>
      </trkpt>
      <trkpt lat="45.11698" lon="2.63455">
        <ele>1372.42</ele>
        <time>2025-10-17T07:43:10Z</time>
      </trkpt>
      <trkpt lat="45.11692" lon="2.63468">
        <ele>1373.38</ele>
        <time>2025-10-17T07:43:22Z</time>
      </trkpt>
      <trkpt lat="45.11687" lon="2.63481">
        <ele>1373.86</ele>
        <time>2025-10-17T07:43:37Z</time>
      </trkpt>
      <trkpt lat="45.11682" lon="2.63492">
        <ele>1375.3</ele>
        <time>2025-10-17T07:43:51Z</time>
      </trkpt>
      <trkpt lat="45.1168" lon="2.63504">
        <ele>1376.26</ele>
        <time>2025-10-17T07:44:04Z</time>
      </trkpt>
      <trkpt lat="45.1168" lon="2.63505">
        <ele>1376.26</ele>
        <time>2025-10-17T07:44:05Z</time>
      </trkpt>
      <trkpt lat="45.11676" lon="2.63521">
        <ele>1377.23</ele>
        <time>2025-10-17T07:44:19Z</time>
      </trkpt>
      <trkpt lat="45.11671" lon="2.6353">
        <ele>1378.19</ele>
        <time>2025-10-17T07:44:31Z</time>
      </trkpt>
      <trkpt lat="45.11672" lon="2.63531">
        <ele>1378.19</ele>
        <time>2025-10-17T07:44:48Z</time>
      </trkpt>
      <trkpt lat="45.11673" lon="2.6354">
        <ele>1378.67</ele>
        <time>2025-10-17T07:45:00Z</time>
      </trkpt>
      <trkpt lat="45.11671" lon="2.63553">
        <ele>1380.11</ele>
        <time>2025-10-17T07:45:15Z</time>
      </trkpt>
      <trkpt lat="45.11666" lon="2.63567">
        <ele>1381.55</ele>
        <time>2025-10-17T07:45:30Z</time>
      </trkpt>
      <trkpt lat="45.11662" lon="2.63583">
        <ele>1381.55</ele>
        <time>2025-10-17T07:45:43Z</time>
      </trkpt>
      <trkpt lat="45.11662" lon="2.63592">
        <ele>1382.99</ele>
        <time>2025-10-17T07:45:58Z</time>
      </trkpt>
      <trkpt lat="45.11659" lon="2.63603">
        <ele>1383.47</ele>
        <time>2025-10-17T07:46:09Z</time>
      </trkpt>
      <trkpt lat="45.11656" lon="2.63617">
        <ele>1384.92</ele>
        <time>2025-10-17T07:46:25Z</time>
      </trkpt>
      <trkpt lat="45.11653" lon="2.63629">
        <ele>1386.84</ele>
        <time>2025-10-17T07:46:39Z</time>
      </trkpt>
      <trkpt lat="45.1165" lon="2.6364">
        <ele>1388.76</ele>
        <time>2025-10-17T07:46:53Z</time>
      </trkpt>
      <trkpt lat="45.11653" lon="2.63656">
        <ele>1390.68</ele>
        <time>2025-10-17T07:47:09Z</time>
      </trkpt>
      <trkpt lat="45.11654" lon="2.63667">
        <ele>1392.61</ele>
        <time>2025-10-17T07:47:22Z</time>
      </trkpt>
      <trkpt lat="45.11654" lon="2.6368">
        <ele>1394.05</ele>
        <time>2025-10-17T07:47:37Z</time>
      </trkpt>
      <trkpt lat="45.11649" lon="2.63695">
        <ele>1395.49</ele>
        <time>2025-10-17T07:47:52Z</time>
      </trkpt>
      <trkpt lat="45.11646" lon="2.63712">
        <ele>1396.93</ele>
        <time>2025-10-17T07:48:09Z</time>
      </trkpt>
      <trkpt lat="45.11644" lon="2.63722">
        <ele>1398.37</ele>
        <time>2025-10-17T07:48:22Z</time>
      </trkpt>
      <trkpt lat="45.1164" lon="2.63735">
        <ele>1400.3</ele>
        <time>2025-10-17T07:48:39Z</time>
      </trkpt>
      <trkpt lat="45.11638" lon="2.63745">
        <ele>1401.74</ele>
        <time>2025-10-17T07:48:52Z</time>
      </trkpt>
      <trkpt lat="45.11637" lon="2.63755">
        <ele>1403.66</ele>
        <time>2025-10-17T07:49:07Z</time>
      </trkpt>
      <trkpt lat="45.11636" lon="2.63764">
        <ele>1406.07</ele>
        <time>2025-10-17T07:49:23Z</time>
      </trkpt>
      <trkpt lat="45.11635" lon="2.63769">
        <ele>1407.03</ele>
        <time>2025-10-17T07:49:32Z</time>
      </trkpt>
      <trkpt lat="45.11632" lon="2.63779">
        <ele>1408.95</ele>
        <time>2025-10-17T07:49:46Z</time>
      </trkpt>
      <trkpt lat="45.11629" lon="2.63786">
        <ele>1410.87</ele>
        <time>2025-10-17T07:49:59Z</time>
      </trkpt>
      <trkpt lat="45.11623" lon="2.63796">
        <ele>1412.79</ele>
        <time>2025-10-17T07:50:14Z</time>
      </trkpt>
      <trkpt lat="45.11619" lon="2.63806">
        <ele>1414.24</ele>
        <time>2025-10-17T07:50:28Z</time>
      </trkpt>
      <trkpt lat="45.11613" lon="2.63818">
        <ele>1416.64</ele>
        <time>2025-10-17T07:50:49Z</time>
      </trkpt>
      <trkpt lat="45.11611" lon="2.63827">
        <ele>1419.04</ele>
        <time>2025-10-17T07:51:03Z</time>
      </trkpt>
      <trkpt lat="45.11606" lon="2.63836">
        <ele>1420.97</ele>
        <time>2025-10-17T07:51:21Z</time>
      </trkpt>
      <trkpt lat="45.11602" lon="2.63841">
        <ele>1423.85</ele>
        <time>2025-10-17T07:51:35Z</time>
      </trkpt>
      <trkpt lat="45.11599" lon="2.63848">
        <ele>1425.77</ele>
        <time>2025-10-17T07:51:52Z</time>
      </trkpt>
      <trkpt lat="45.11596" lon="2.63854">
        <ele>1427.21</ele>
        <time>2025-10-17T07:52:12Z</time>
      </trkpt>
      <trkpt lat="45.11593" lon="2.63861">
        <ele>1430.1</ele>
        <time>2025-10-17T07:52:31Z</time>
      </trkpt>
      <trkpt lat="45.1159" lon="2.63865">
        <ele>1431.54</ele>
        <time>2025-10-17T07:52:44Z</time>
      </trkpt>
      <trkpt lat="45.11585" lon="2.63871">
        <ele>1433.46</ele>
        <time>2025-10-17T07:53:00Z</time>
      </trkpt>
      <trkpt lat="45.11582" lon="2.63876">
        <ele>1436.83</ele>
        <time>2025-10-17T07:53:17Z</time>
      </trkpt>
      <trkpt lat="45.11578" lon="2.63881">
        <ele>1439.23</ele>
        <time>2025-10-17T07:53:36Z</time>
      </trkpt>
      <trkpt lat="45.11574" lon="2.63887">
        <ele>1442.6</ele>
        <time>2025-10-17T07:53:53Z</time>
      </trkpt>
      <trkpt lat="45.11574" lon="2.63887">
        <ele>1442.6</ele>
        <time>2025-10-17T07:53:54Z</time>
      </trkpt>
      <trkpt lat="45.11571" lon="2.63894">
        <ele>1444.04</ele>
        <time>2025-10-17T07:54:10Z</time>
      </trkpt>
      <trkpt lat="45.11567" lon="2.63903">
        <ele>1446.92</ele>
        <time>2025-10-17T07:54:28Z</time>
      </trkpt>
      <trkpt lat="45.11563" lon="2.63907">
        <ele>1449.32</ele>
        <time>2025-10-17T07:54:46Z</time>
      </trkpt>
      <trkpt lat="45.11557" lon="2.63913">
        <ele>1451.73</ele>
        <time>2025-10-17T07:55:03Z</time>
      </trkpt>
      <trkpt lat="45.11554" lon="2.63923">
        <ele>1453.65</ele>
        <time>2025-10-17T07:55:20Z</time>
      </trkpt>
      <trkpt lat="45.11553" lon="2.63927">
        <ele>1456.05</ele>
        <time>2025-10-17T07:55:28Z</time>
      </trkpt>
      <trkpt lat="45.11549" lon="2.63932">
        <ele>1457.5</ele>
        <time>2025-10-17T07:55:42Z</time>
      </trkpt>
      <trkpt lat="45.11546" lon="2.63939">
        <ele>1459.42</ele>
        <time>2025-10-17T07:55:59Z</time>
      </trkpt>
      <trkpt lat="45.11544" lon="2.63943">
        <ele>1461.34</ele>
        <time>2025-10-17T07:56:14Z</time>
      </trkpt>
      <trkpt lat="45.11544" lon="2.63948">
        <ele>1464.23</ele>
        <time>2025-10-17T07:56:29Z</time>
      </trkpt>
      <trkpt lat="45.11543" lon="2.63955">
        <ele>1466.63</ele>
        <time>2025-10-17T07:56:49Z</time>
      </trkpt>
      <trkpt lat="45.11543" lon="2.63962">
        <ele>1469.03</ele>
        <time>2025-10-17T07:57:04Z</time>
      </trkpt>
      <trkpt lat="45.11543" lon="2.63967">
        <ele>1471.92</ele>
        <time>2025-10-17T07:57:18Z</time>
      </trkpt>
      <trkpt lat="45.1154" lon="2.63975">
        <ele>1474.32</ele>
        <time>2025-10-17T07:57:37Z</time>
      </trkpt>
      <trkpt lat="45.1154" lon="2.63982">
        <ele>1477.2</ele>
        <time>2025-10-17T07:57:53Z</time>
      </trkpt>
      <trkpt lat="45.11538" lon="2.63987">
        <ele>1478.65</ele>
        <time>2025-10-17T07:58:07Z</time>
      </trkpt>
      <trkpt lat="45.11538" lon="2.64001">
        <ele>1482.01</ele>
        <time>2025-10-17T07:58:24Z</time>
      </trkpt>
      <trkpt lat="45.11536" lon="2.64005">
        <ele>1483.93</ele>
        <time>2025-10-17T07:58:40Z</time>
      </trkpt>
      <trkpt lat="45.11535" lon="2.64011">
        <ele>1485.85</ele>
        <time>2025-10-17T07:58:57Z</time>
      </trkpt>
      <trkpt lat="45.11532" lon="2.64017">
        <ele>1486.82</ele>
        <time>2025-10-17T07:59:18Z</time>
      </trkpt>
      <trkpt lat="45.11535" lon="2.64026">
        <ele>1489.22</ele>
        <time>2025-10-17T07:59:36Z</time>
      </trkpt>
      <trkpt lat="45.11534" lon="2.6403">
        <ele>1491.14</ele>
        <time>2025-10-17T07:59:51Z</time>
      </trkpt>
      <trkpt lat="45.11535" lon="2.64036">
        <ele>1494.03</ele>
        <time>2025-10-17T08:00:08Z</time>
      </trkpt>
      <trkpt lat="45.11537" lon="2.64042">
        <ele>1497.39</ele>
        <time>2025-10-17T08:00:27Z</time>
      </trkpt>
      <trkpt lat="45.11531" lon="2.64047">
        <ele>1498.35</ele>
        <time>2025-10-17T08:00:42Z</time>
      </trkpt>
      <trkpt lat="45.11529" lon="2.64054">
        <ele>1500.76</ele>
        <time>2025-10-17T08:00:54Z</time>
      </trkpt>
      <trkpt lat="45.11531" lon="2.64057">
        <ele>1502.2</ele>
        <time>2025-10-17T08:01:10Z</time>
      </trkpt>
      <trkpt lat="45.11526" lon="2.64058">
        <ele>1502.68</ele>
        <time>2025-10-17T08:01:25Z</time>
      </trkpt>
      <trkpt lat="45.11522" lon="2.64062">
        <ele>1504.6</ele>
        <time>2025-10-17T08:01:37Z</time>
      </trkpt>
      <trkpt lat="45.1152" lon="2.64067">
        <ele>1506.04</ele>
        <time>2025-10-17T08:01:51Z</time>
      </trkpt>
      <trkpt lat="45.11518" lon="2.64066">
        <ele>1507</ele>
        <time>2025-10-17T08:02:07Z</time>
      </trkpt>
      <trkpt lat="45.11511" lon="2.6407">
        <ele>1508.93</ele>
        <time>2025-10-17T08:02:22Z</time>
      </trkpt>
      <trkpt lat="45.11508" lon="2.64071">
        <ele>1509.89</ele>
        <time>2025-10-17T08:02:28Z</time>
      </trkpt>
      <trkpt lat="45.11497" lon="2.64074">
        <ele>1510.37</ele>
        <time>2025-10-17T08:02:43Z</time>
      </trkpt>
      <trkpt lat="45.1149" lon="2.6408">
        <ele>1512.77</ele>
        <time>2025-10-17T08:02:59Z</time>
      </trkpt>
      <trkpt lat="45.11482" lon="2.64081">
        <ele>1514.69</ele>
        <time>2025-10-17T08:03:12Z</time>
      </trkpt>
      <trkpt lat="45.11478" lon="2.6408">
        <ele>1514.69</ele>
        <time>2025-10-17T08:03:27Z</time>
      </trkpt>
      <trkpt lat="45.11473" lon="2.64082">
        <ele>1515.66</ele>
        <time>2025-10-17T08:03:41Z</time>
      </trkpt>
      <trkpt lat="45.11471" lon="2.64086">
        <ele>1517.58</ele>
        <time>2025-10-17T08:03:59Z</time>
      </trkpt>
      <trkpt lat="45.11471" lon="2.64086">
        <ele>1517.58</ele>
        <time>2025-10-17T08:04:38Z</time>
      </trkpt>
      <trkpt lat="45.1147" lon="2.64086">
        <ele>1517.58</ele>
        <time>2025-10-17T08:05:19Z</time>
      </trkpt>
      <trkpt lat="45.11471" lon="2.64085">
        <ele>1517.58</ele>
        <time>2025-10-17T08:05:39Z</time>
      </trkpt>
      <trkpt lat="45.11477" lon="2.6408">
        <ele>1514.69</ele>
        <time>2025-10-17T08:05:53Z</time>
      </trkpt>
      <trkpt lat="45.1147" lon="2.64077">
        <ele>1512.77</ele>
        <time>2025-10-17T08:06:05Z</time>
      </trkpt>
      <trkpt lat="45.11468" lon="2.64079">
        <ele>1512.77</ele>
        <time>2025-10-17T08:06:08Z</time>
      </trkpt>
      <trkpt lat="45.11465" lon="2.64079">
        <ele>1514.21</ele>
        <time>2025-10-17T08:06:12Z</time>
      </trkpt>
      <trkpt lat="45.11455" lon="2.64078">
        <ele>1515.18</ele>
        <time>2025-10-17T08:06:29Z</time>
      </trkpt>
      <trkpt lat="45.11448" lon="2.64073">
        <ele>1515.18</ele>
        <time>2025-10-17T08:06:39Z</time>
      </trkpt>
      <trkpt lat="45.11445" lon="2.64069">
        <ele>1513.73</ele>
        <time>2025-10-17T08:06:43Z</time>
      </trkpt>
      <trkpt lat="45.11436" lon="2.64061">
        <ele>1515.18</ele>
        <time>2025-10-17T08:06:55Z</time>
      </trkpt>
      <trkpt lat="45.1142" lon="2.64052">
        <ele>1515.18</ele>
        <time>2025-10-17T08:07:10Z</time>
      </trkpt>
      <trkpt lat="45.11409" lon="2.64047">
        <ele>1513.25</ele>
        <time>2025-10-17T08:07:19Z</time>
      </trkpt>
      <trkpt lat="45.11396" lon="2.64035">
        <ele>1512.77</ele>
        <time>2025-10-17T08:07:34Z</time>
      </trkpt>
      <trkpt lat="45.11378" lon="2.64026">
        <ele>1512.77</ele>
        <time>2025-10-17T08:07:51Z</time>
      </trkpt>
      <trkpt lat="45.11363" lon="2.64022">
        <ele>1514.21</ele>
        <time>2025-10-17T08:08:05Z</time>
      </trkpt>
      <trkpt lat="45.11353" lon="2.64016">
        <ele>1515.18</ele>
        <time>2025-10-17T08:08:17Z</time>
      </trkpt>
      <trkpt lat="45.11349" lon="2.64013">
        <ele>1513.73</ele>
        <time>2025-10-17T08:08:22Z</time>
      </trkpt>
      <trkpt lat="45.11346" lon="2.64011">
        <ele>1515.18</ele>
        <time>2025-10-17T08:08:27Z</time>
      </trkpt>
      <trkpt lat="45.11336" lon="2.64007">
        <ele>1515.66</ele>
        <time>2025-10-17T08:08:41Z</time>
      </trkpt>
      <trkpt lat="45.11328" lon="2.63998">
        <ele>1515.66</ele>
        <time>2025-10-17T08:08:55Z</time>
      </trkpt>
      <trkpt lat="45.11327" lon="2.63995">
        <ele>1513.73</ele>
        <time>2025-10-17T08:09:00Z</time>
      </trkpt>
      <trkpt lat="45.11323" lon="2.63982">
        <ele>1512.29</ele>
        <time>2025-10-17T08:09:16Z</time>
      </trkpt>
      <trkpt lat="45.11312" lon="2.63971">
        <ele>1511.33</ele>
        <time>2025-10-17T08:09:31Z</time>
      </trkpt>
      <trkpt lat="45.11307" lon="2.63961">
        <ele>1513.25</ele>
        <time>2025-10-17T08:09:44Z</time>
      </trkpt>
      <trkpt lat="45.11299" lon="2.63957">
        <ele>1514.69</ele>
        <time>2025-10-17T08:09:59Z</time>
      </trkpt>
      <trkpt lat="45.1129" lon="2.63949">
        <ele>1516.14</ele>
        <time>2025-10-17T08:10:13Z</time>
      </trkpt>
      <trkpt lat="45.11286" lon="2.6394">
        <ele>1516.14</ele>
        <time>2025-10-17T08:10:21Z</time>
      </trkpt>
      <trkpt lat="45.11275" lon="2.63923">
        <ele>1514.21</ele>
        <time>2025-10-17T08:10:37Z</time>
      </trkpt>
      <trkpt lat="45.11267" lon="2.63917">
        <ele>1514.21</ele>
        <time>2025-10-17T08:10:46Z</time>
      </trkpt>
      <trkpt lat="45.11263" lon="2.63909">
        <ele>1515.18</ele>
        <time>2025-10-17T08:10:53Z</time>
      </trkpt>
      <trkpt lat="45.11254" lon="2.639">
        <ele>1515.66</ele>
        <time>2025-10-17T08:11:07Z</time>
      </trkpt>
      <trkpt lat="45.11244" lon="2.63889">
        <ele>1517.58</ele>
        <time>2025-10-17T08:11:23Z</time>
      </trkpt>
      <trkpt lat="45.11239" lon="2.63885">
        <ele>1518.06</ele>
        <time>2025-10-17T08:11:29Z</time>
      </trkpt>
      <trkpt lat="45.1123" lon="2.63884">
        <ele>1519.98</ele>
        <time>2025-10-17T08:11:44Z</time>
      </trkpt>
      <trkpt lat="45.11229" lon="2.63882">
        <ele>1520.94</ele>
        <time>2025-10-17T08:11:47Z</time>
      </trkpt>
      <trkpt lat="45.11215" lon="2.63873">
        <ele>1520.94</ele>
        <time>2025-10-17T08:12:03Z</time>
      </trkpt>
      <trkpt lat="45.11204" lon="2.63864">
        <ele>1522.39</ele>
        <time>2025-10-17T08:12:18Z</time>
      </trkpt>
      <trkpt lat="45.11194" lon="2.63855">
        <ele>1523.83</ele>
        <time>2025-10-17T08:12:32Z</time>
      </trkpt>
      <trkpt lat="45.1118" lon="2.63852">
        <ele>1524.79</ele>
        <time>2025-10-17T08:12:48Z</time>
      </trkpt>
      <trkpt lat="45.11168" lon="2.63847">
        <ele>1526.71</ele>
        <time>2025-10-17T08:13:03Z</time>
      </trkpt>
      <trkpt lat="45.11155" lon="2.63838">
        <ele>1527.19</ele>
        <time>2025-10-17T08:13:18Z</time>
      </trkpt>
      <trkpt lat="45.11141" lon="2.63839">
        <ele>1527.67</ele>
        <time>2025-10-17T08:13:35Z</time>
      </trkpt>
      <trkpt lat="45.11131" lon="2.63838">
        <ele>1530.56</ele>
        <time>2025-10-17T08:13:52Z</time>
      </trkpt>
      <trkpt lat="45.11121" lon="2.63827">
        <ele>1532.96</ele>
        <time>2025-10-17T08:14:11Z</time>
      </trkpt>
      <trkpt lat="45.11116" lon="2.63825">
        <ele>1535.84</ele>
        <time>2025-10-17T08:14:26Z</time>
      </trkpt>
      <trkpt lat="45.11106" lon="2.63816">
        <ele>1537.77</ele>
        <time>2025-10-17T08:14:43Z</time>
      </trkpt>
      <trkpt lat="45.11094" lon="2.63814">
        <ele>1539.69</ele>
        <time>2025-10-17T08:15:00Z</time>
      </trkpt>
      <trkpt lat="45.11082" lon="2.63808">
        <ele>1542.09</ele>
        <time>2025-10-17T08:15:19Z</time>
      </trkpt>
      <trkpt lat="45.11075" lon="2.63805">
        <ele>1543.53</ele>
        <time>2025-10-17T08:15:33Z</time>
      </trkpt>
      <trkpt lat="45.11066" lon="2.63799">
        <ele>1544.98</ele>
        <time>2025-10-17T08:15:50Z</time>
      </trkpt>
      <trkpt lat="45.11062" lon="2.63791">
        <ele>1545.46</ele>
        <time>2025-10-17T08:16:04Z</time>
      </trkpt>
      <trkpt lat="45.11057" lon="2.63784">
        <ele>1545.94</ele>
        <time>2025-10-17T08:16:19Z</time>
      </trkpt>
      <trkpt lat="45.11049" lon="2.63775">
        <ele>1548.34</ele>
        <time>2025-10-17T08:16:36Z</time>
      </trkpt>
      <trkpt lat="45.11042" lon="2.63765">
        <ele>1551.22</ele>
        <time>2025-10-17T08:16:54Z</time>
      </trkpt>
      <trkpt lat="45.11035" lon="2.63759">
        <ele>1554.11</ele>
        <time>2025-10-17T08:17:10Z</time>
      </trkpt>
      <trkpt lat="45.11029" lon="2.63756">
        <ele>1556.03</ele>
        <time>2025-10-17T08:17:26Z</time>
      </trkpt>
      <trkpt lat="45.11024" lon="2.63756">
        <ele>1557.95</ele>
        <time>2025-10-17T08:17:39Z</time>
      </trkpt>
      <trkpt lat="45.11018" lon="2.63759">
        <ele>1560.36</ele>
        <time>2025-10-17T08:17:56Z</time>
      </trkpt>
      <trkpt lat="45.11013" lon="2.63764">
        <ele>1561.32</ele>
        <time>2025-10-17T08:18:12Z</time>
      </trkpt>
      <trkpt lat="45.11009" lon="2.63768">
        <ele>1563.72</ele>
        <time>2025-10-17T08:18:21Z</time>
      </trkpt>
      <trkpt lat="45.11004" lon="2.63775">
        <ele>1565.64</ele>
        <time>2025-10-17T08:18:39Z</time>
      </trkpt>
      <trkpt lat="45.11001" lon="2.63785">
        <ele>1567.57</ele>
        <time>2025-10-17T08:18:55Z</time>
      </trkpt>
      <trkpt lat="45.10996" lon="2.63793">
        <ele>1569.97</ele>
        <time>2025-10-17T08:19:10Z</time>
      </trkpt>
      <trkpt lat="45.10987" lon="2.63793">
        <ele>1570.45</ele>
        <time>2025-10-17T08:19:23Z</time>
      </trkpt>
      <trkpt lat="45.10984" lon="2.63792">
        <ele>1570.93</ele>
        <time>2025-10-17T08:19:39Z</time>
      </trkpt>
      <trkpt lat="45.10982" lon="2.63793">
        <ele>1570.93</ele>
        <time>2025-10-17T08:19:59Z</time>
      </trkpt>
      <trkpt lat="45.10984" lon="2.63793">
        <ele>1570.93</ele>
        <time>2025-10-17T08:20:27Z</time>
      </trkpt>
      <trkpt lat="45.10984" lon="2.63794">
        <ele>1570.93</ele>
        <time>2025-10-17T08:20:54Z</time>
      </trkpt>
      <trkpt lat="45.10983" lon="2.63796">
        <ele>1570.93</ele>
        <time>2025-10-17T08:21:27Z</time>
      </trkpt>
      <trkpt lat="45.10982" lon="2.63794">
        <ele>1571.41</ele>
        <time>2025-10-17T08:21:56Z</time>
      </trkpt>
      <trkpt lat="45.10983" lon="2.63792">
        <ele>1571.41</ele>
        <time>2025-10-17T08:22:30Z</time>
      </trkpt>
      <trkpt lat="45.10983" lon="2.63791">
        <ele>1571.41</ele>
        <time>2025-10-17T08:23:04Z</time>
      </trkpt>
      <trkpt lat="45.10984" lon="2.63792">
        <ele>1571.41</ele>
        <time>2025-10-17T08:23:45Z</time>
      </trkpt>
      <trkpt lat="45.10985" lon="2.63791">
        <ele>1571.41</ele>
        <time>2025-10-17T08:24:21Z</time>
      </trkpt>
      <trkpt lat="45.10985" lon="2.63789">
        <ele>1571.41</ele>
        <time>2025-10-17T08:24:57Z</time>
      </trkpt>
      <trkpt lat="45.10985" lon="2.63789">
        <ele>1571.41</ele>
        <time>2025-10-17T08:25:29Z</time>
      </trkpt>
      <trkpt lat="45.10986" lon="2.63788">
        <ele>1570.45</ele>
        <time>2025-10-17T08:25:59Z</time>
      </trkpt>
      <trkpt lat="45.10985" lon="2.63789">
        <ele>1570.45</ele>
        <time>2025-10-17T08:26:34Z</time>
      </trkpt>
      <trkpt lat="45.10985" lon="2.63788">
        <ele>1570.45</ele>
        <time>2025-10-17T08:27:10Z</time>
      </trkpt>
      <trkpt lat="45.10985" lon="2.63793">
        <ele>1570.45</ele>
        <time>2025-10-17T08:27:35Z</time>
      </trkpt>
      <trkpt lat="45.10984" lon="2.63794">
        <ele>1570.45</ele>
        <time>2025-10-17T08:28:02Z</time>
      </trkpt>
      <trkpt lat="45.10981" lon="2.63791">
        <ele>1569.97</ele>
        <time>2025-10-17T08:28:36Z</time>
      </trkpt>
      <trkpt lat="45.10978" lon="2.63789">
        <ele>1569.97</ele>
        <time>2025-10-17T08:29:16Z</time>
      </trkpt>
      <trkpt lat="45.10976" lon="2.63786">
        <ele>1569.97</ele>
        <time>2025-10-17T08:29:55Z</time>
      </trkpt>
      <trkpt lat="45.10981" lon="2.63791">
        <ele>1571.41</ele>
        <time>2025-10-17T08:30:26Z</time>
      </trkpt>
      <trkpt lat="45.10983" lon="2.63794">
        <ele>1571.41</ele>
        <time>2025-10-17T08:31:00Z</time>
      </trkpt>
      <trkpt lat="45.10985" lon="2.63795">
        <ele>1571.41</ele>
        <time>2025-10-17T08:31:33Z</time>
      </trkpt>
      <trkpt lat="45.10984" lon="2.63795">
        <ele>1571.89</ele>
        <time>2025-10-17T08:31:55Z</time>
      </trkpt>
      <trkpt lat="45.10984" lon="2.63794">
        <ele>1571.89</ele>
        <time>2025-10-17T08:32:36Z</time>
      </trkpt>
      <trkpt lat="45.10983" lon="2.63794">
        <ele>1571.89</ele>
        <time>2025-10-17T08:33:15Z</time>
      </trkpt>
      <trkpt lat="45.10984" lon="2.63796">
        <ele>1572.37</ele>
        <time>2025-10-17T08:33:59Z</time>
      </trkpt>
      <trkpt lat="45.10984" lon="2.63802">
        <ele>1570.45</ele>
        <time>2025-10-17T08:34:06Z</time>
      </trkpt>
      <trkpt lat="45.10988" lon="2.6381">
        <ele>1570.45</ele>
        <time>2025-10-17T08:34:15Z</time>
      </trkpt>
      <trkpt lat="45.1099" lon="2.63824">
        <ele>1570.45</ele>
        <time>2025-10-17T08:34:27Z</time>
      </trkpt>
      <trkpt lat="45.1099" lon="2.63829">
        <ele>1569.97</ele>
        <time>2025-10-17T08:34:33Z</time>
      </trkpt>
      <trkpt lat="45.10989" lon="2.63834">
        <ele>1569.49</ele>
        <time>2025-10-17T08:34:37Z</time>
      </trkpt>
      <trkpt lat="45.10987" lon="2.63852">
        <ele>1567.57</ele>
        <time>2025-10-17T08:34:52Z</time>
      </trkpt>
      <trkpt lat="45.10986" lon="2.63863">
        <ele>1566.12</ele>
        <time>2025-10-17T08:35:03Z</time>
      </trkpt>
      <trkpt lat="45.10986" lon="2.63874">
        <ele>1563.24</ele>
        <time>2025-10-17T08:35:17Z</time>
      </trkpt>
      <trkpt lat="45.10984" lon="2.63885">
        <ele>1561.32</ele>
        <time>2025-10-17T08:35:30Z</time>
      </trkpt>
      <trkpt lat="45.10982" lon="2.63896">
        <ele>1559.88</ele>
        <time>2025-10-17T08:35:43Z</time>
      </trkpt>
      <trkpt lat="45.10981" lon="2.63912">
        <ele>1558.43</ele>
        <time>2025-10-17T08:35:55Z</time>
      </trkpt>
      <trkpt lat="45.10976" lon="2.63929">
        <ele>1556.99</ele>
        <time>2025-10-17T08:36:07Z</time>
      </trkpt>
      <trkpt lat="45.10964" lon="2.63957">
        <ele>1556.99</ele>
        <time>2025-10-17T08:36:30Z</time>
      </trkpt>
      <trkpt lat="45.10962" lon="2.63962">
        <ele>1558.92</ele>
        <time>2025-10-17T08:36:37Z</time>
      </trkpt>
      <trkpt lat="45.10961" lon="2.63976">
        <ele>1556.99</ele>
        <time>2025-10-17T08:36:50Z</time>
      </trkpt>
      <trkpt lat="45.10958" lon="2.63988">
        <ele>1554.59</ele>
        <time>2025-10-17T08:37:02Z</time>
      </trkpt>
      <trkpt lat="45.10955" lon="2.64005">
        <ele>1553.15</ele>
        <time>2025-10-17T08:37:15Z</time>
      </trkpt>
      <trkpt lat="45.10955" lon="2.64006">
        <ele>1553.15</ele>
        <time>2025-10-17T08:37:16Z</time>
      </trkpt>
      <trkpt lat="45.10954" lon="2.64008">
        <ele>1552.19</ele>
        <time>2025-10-17T08:37:18Z</time>
      </trkpt>
      <trkpt lat="45.10952" lon="2.64021">
        <ele>1551.22</ele>
        <time>2025-10-17T08:37:27Z</time>
      </trkpt>
      <trkpt lat="45.1095" lon="2.64031">
        <ele>1550.74</ele>
        <time>2025-10-17T08:37:36Z</time>
      </trkpt>
      <trkpt lat="45.10947" lon="2.6404">
        <ele>1549.3</ele>
        <time>2025-10-17T08:37:45Z</time>
      </trkpt>
      <trkpt lat="45.10945" lon="2.6405">
        <ele>1547.86</ele>
        <time>2025-10-17T08:37:55Z</time>
      </trkpt>
      <trkpt lat="45.10944" lon="2.64053">
        <ele>1547.38</ele>
        <time>2025-10-17T08:37:58Z</time>
      </trkpt>
      <trkpt lat="45.10943" lon="2.64062">
        <ele>1546.9</ele>
        <time>2025-10-17T08:38:05Z</time>
      </trkpt>
      <trkpt lat="45.10939" lon="2.64077">
        <ele>1546.9</ele>
        <time>2025-10-17T08:38:18Z</time>
      </trkpt>
      <trkpt lat="45.10937" lon="2.64092">
        <ele>1546.9</ele>
        <time>2025-10-17T08:38:29Z</time>
      </trkpt>
      <trkpt lat="45.10936" lon="2.64107">
        <ele>1547.86</ele>
        <time>2025-10-17T08:38:41Z</time>
      </trkpt>
      <trkpt lat="45.10932" lon="2.64117">
        <ele>1547.86</ele>
        <time>2025-10-17T08:38:52Z</time>
      </trkpt>
      <trkpt lat="45.10931" lon="2.64131">
        <ele>1547.86</ele>
        <time>2025-10-17T08:39:03Z</time>
      </trkpt>
      <trkpt lat="45.10927" lon="2.6414">
        <ele>1548.34</ele>
        <time>2025-10-17T08:39:12Z</time>
      </trkpt>
      <trkpt lat="45.10925" lon="2.64149">
        <ele>1546.42</ele>
        <time>2025-10-17T08:39:19Z</time>
      </trkpt>
      <trkpt lat="45.10925" lon="2.64151">
        <ele>1546.42</ele>
        <time>2025-10-17T08:39:21Z</time>
      </trkpt>
      <trkpt lat="45.10923" lon="2.64155">
        <ele>1546.42</ele>
        <time>2025-10-17T08:39:24Z</time>
      </trkpt>
      <trkpt lat="45.10922" lon="2.6416">
        <ele>1546.42</ele>
        <time>2025-10-17T08:39:28Z</time>
      </trkpt>
      <trkpt lat="45.10923" lon="2.64166">
        <ele>1546.42</ele>
        <time>2025-10-17T08:39:33Z</time>
      </trkpt>
      <trkpt lat="45.10919" lon="2.6418">
        <ele>1545.94</ele>
        <time>2025-10-17T08:39:46Z</time>
      </trkpt>
      <trkpt lat="45.10918" lon="2.64188">
        <ele>1545.46</ele>
        <time>2025-10-17T08:39:54Z</time>
      </trkpt>
      <trkpt lat="45.10918" lon="2.64193">
        <ele>1546.42</ele>
        <time>2025-10-17T08:39:59Z</time>
      </trkpt>
      <trkpt lat="45.10916" lon="2.642">
        <ele>1544.98</ele>
        <time>2025-10-17T08:40:05Z</time>
      </trkpt>
      <trkpt lat="45.10916" lon="2.64208">
        <ele>1544.5</ele>
        <time>2025-10-17T08:40:12Z</time>
      </trkpt>
      <trkpt lat="45.10916" lon="2.6421">
        <ele>1544.5</ele>
        <time>2025-10-17T08:40:14Z</time>
      </trkpt>
      <trkpt lat="45.10914" lon="2.64218">
        <ele>1544.5</ele>
        <time>2025-10-17T08:40:21Z</time>
      </trkpt>
      <trkpt lat="45.10915" lon="2.64221">
        <ele>1544.01</ele>
        <time>2025-10-17T08:40:24Z</time>
      </trkpt>
      <trkpt lat="45.10912" lon="2.64238">
        <ele>1543.53</ele>
        <time>2025-10-17T08:40:37Z</time>
      </trkpt>
      <trkpt lat="45.10913" lon="2.64253">
        <ele>1542.57</ele>
        <time>2025-10-17T08:40:48Z</time>
      </trkpt>
      <trkpt lat="45.10915" lon="2.64268">
        <ele>1544.01</ele>
        <time>2025-10-17T08:41:00Z</time>
      </trkpt>
      <trkpt lat="45.10917" lon="2.64276">
        <ele>1544.98</ele>
        <time>2025-10-17T08:41:07Z</time>
      </trkpt>
      <trkpt lat="45.10918" lon="2.6428">
        <ele>1544.98</ele>
        <time>2025-10-17T08:41:10Z</time>
      </trkpt>
      <trkpt lat="45.10921" lon="2.64285">
        <ele>1545.46</ele>
        <time>2025-10-17T08:41:16Z</time>
      </trkpt>
      <trkpt lat="45.10922" lon="2.64293">
        <ele>1546.42</ele>
        <time>2025-10-17T08:41:29Z</time>
      </trkpt>
      <trkpt lat="45.10922" lon="2.64297">
        <ele>1546.42</ele>
        <time>2025-10-17T08:41:52Z</time>
      </trkpt>
      <trkpt lat="45.10921" lon="2.64297">
        <ele>1544.98</ele>
        <time>2025-10-17T08:41:54Z</time>
      </trkpt>
      <trkpt lat="45.10921" lon="2.643">
        <ele>1544.98</ele>
        <time>2025-10-17T08:42:00Z</time>
      </trkpt>
      <trkpt lat="45.10919" lon="2.64309">
        <ele>1544.5</ele>
        <time>2025-10-17T08:42:07Z</time>
      </trkpt>
      <trkpt lat="45.10913" lon="2.64316">
        <ele>1544.01</ele>
        <time>2025-10-17T08:42:15Z</time>
      </trkpt>
      <trkpt lat="45.10911" lon="2.64318">
        <ele>1544.01</ele>
        <time>2025-10-17T08:42:18Z</time>
      </trkpt>
      <trkpt lat="45.10907" lon="2.64329">
        <ele>1544.01</ele>
        <time>2025-10-17T08:42:27Z</time>
      </trkpt>
      <trkpt lat="45.10901" lon="2.64346">
        <ele>1544.01</ele>
        <time>2025-10-17T08:42:39Z</time>
      </trkpt>
      <trkpt lat="45.10895" lon="2.64359">
        <ele>1543.53</ele>
        <time>2025-10-17T08:42:50Z</time>
      </trkpt>
      <trkpt lat="45.10887" lon="2.64375">
        <ele>1543.05</ele>
        <time>2025-10-17T08:43:03Z</time>
      </trkpt>
      <trkpt lat="45.10881" lon="2.64391">
        <ele>1543.05</ele>
        <time>2025-10-17T08:43:15Z</time>
      </trkpt>
      <trkpt lat="45.10875" lon="2.64404">
        <ele>1543.05</ele>
        <time>2025-10-17T08:43:26Z</time>
      </trkpt>
      <trkpt lat="45.10872" lon="2.64411">
        <ele>1543.05</ele>
        <time>2025-10-17T08:43:31Z</time>
      </trkpt>
      <trkpt lat="45.1087" lon="2.64419">
        <ele>1543.05</ele>
        <time>2025-10-17T08:43:37Z</time>
      </trkpt>
      <trkpt lat="45.10864" lon="2.64433">
        <ele>1543.05</ele>
        <time>2025-10-17T08:43:49Z</time>
      </trkpt>
      <trkpt lat="45.10857" lon="2.64451">
        <ele>1544.01</ele>
        <time>2025-10-17T08:44:03Z</time>
      </trkpt>
      <trkpt lat="45.10854" lon="2.64464">
        <ele>1544.98</ele>
        <time>2025-10-17T08:44:13Z</time>
      </trkpt>
      <trkpt lat="45.10849" lon="2.64481">
        <ele>1544.98</ele>
        <time>2025-10-17T08:44:26Z</time>
      </trkpt>
      <trkpt lat="45.10846" lon="2.6449">
        <ele>1544.98</ele>
        <time>2025-10-17T08:44:33Z</time>
      </trkpt>
      <trkpt lat="45.10845" lon="2.64493">
        <ele>1544.98</ele>
        <time>2025-10-17T08:44:36Z</time>
      </trkpt>
      <trkpt lat="45.10839" lon="2.64509">
        <ele>1545.94</ele>
        <time>2025-10-17T08:44:50Z</time>
      </trkpt>
      <trkpt lat="45.10836" lon="2.64522">
        <ele>1547.38</ele>
        <time>2025-10-17T08:45:02Z</time>
      </trkpt>
      <trkpt lat="45.10835" lon="2.64525">
        <ele>1547.86</ele>
        <time>2025-10-17T08:45:05Z</time>
      </trkpt>
      <trkpt lat="45.10833" lon="2.64527">
        <ele>1547.86</ele>
        <time>2025-10-17T08:45:08Z</time>
      </trkpt>
      <trkpt lat="45.10831" lon="2.64537">
        <ele>1549.3</ele>
        <time>2025-10-17T08:45:19Z</time>
      </trkpt>
      <trkpt lat="45.10831" lon="2.64547">
        <ele>1550.74</ele>
        <time>2025-10-17T08:45:30Z</time>
      </trkpt>
      <trkpt lat="45.10831" lon="2.64556">
        <ele>1552.67</ele>
        <time>2025-10-17T08:45:42Z</time>
      </trkpt>
      <trkpt lat="45.10833" lon="2.64566">
        <ele>1554.59</ele>
        <time>2025-10-17T08:45:54Z</time>
      </trkpt>
      <trkpt lat="45.10833" lon="2.64574">
        <ele>1555.07</ele>
        <time>2025-10-17T08:46:06Z</time>
      </trkpt>
      <trkpt lat="45.10836" lon="2.64578">
        <ele>1555.07</ele>
        <time>2025-10-17T08:46:20Z</time>
      </trkpt>
      <trkpt lat="45.10836" lon="2.64577">
        <ele>1555.07</ele>
        <time>2025-10-17T08:46:50Z</time>
      </trkpt>
      <trkpt lat="45.10837" lon="2.64578">
        <ele>1555.07</ele>
        <time>2025-10-17T08:47:21Z</time>
      </trkpt>
      <trkpt lat="45.10837" lon="2.6458">
        <ele>1555.07</ele>
        <time>2025-10-17T08:47:44Z</time>
      </trkpt>
      <trkpt lat="45.10835" lon="2.64584">
        <ele>1555.07</ele>
        <time>2025-10-17T08:48:08Z</time>
      </trkpt>
      <trkpt lat="45.10835" lon="2.64595">
        <ele>1555.07</ele>
        <time>2025-10-17T08:48:22Z</time>
      </trkpt>
      <trkpt lat="45.10834" lon="2.64601">
        <ele>1555.55</ele>
        <time>2025-10-17T08:48:45Z</time>
      </trkpt>
      <trkpt lat="45.10832" lon="2.64607">
        <ele>1555.55</ele>
        <time>2025-10-17T08:48:51Z</time>
      </trkpt>
      <trkpt lat="45.10827" lon="2.64618">
        <ele>1555.55</ele>
        <time>2025-10-17T08:49:03Z</time>
      </trkpt>
      <trkpt lat="45.10824" lon="2.64625">
        <ele>1555.55</ele>
        <time>2025-10-17T08:49:13Z</time>
      </trkpt>
      <trkpt lat="45.10818" lon="2.6463">
        <ele>1555.55</ele>
        <time>2025-10-17T08:49:24Z</time>
      </trkpt>
      <trkpt lat="45.10817" lon="2.64632">
        <ele>1554.11</ele>
        <time>2025-10-17T08:49:52Z</time>
      </trkpt>
      <trkpt lat="45.10811" lon="2.64641">
        <ele>1554.11</ele>
        <time>2025-10-17T08:50:04Z</time>
      </trkpt>
      <trkpt lat="45.10802" lon="2.64648">
        <ele>1554.11</ele>
        <time>2025-10-17T08:50:17Z</time>
      </trkpt>
      <trkpt lat="45.10795" lon="2.64653">
        <ele>1554.11</ele>
        <time>2025-10-17T08:50:29Z</time>
      </trkpt>
      <trkpt lat="45.10787" lon="2.64659">
        <ele>1553.63</ele>
        <time>2025-10-17T08:50:41Z</time>
      </trkpt>
      <trkpt lat="45.10778" lon="2.64665">
        <ele>1553.15</ele>
        <time>2025-10-17T08:50:53Z</time>
      </trkpt>
      <trkpt lat="45.10774" lon="2.64669">
        <ele>1553.15</ele>
        <time>2025-10-17T08:50:59Z</time>
      </trkpt>
      <trkpt lat="45.10769" lon="2.64677">
        <ele>1553.15</ele>
        <time>2025-10-17T08:51:10Z</time>
      </trkpt>
      <trkpt lat="45.10764" lon="2.64686">
        <ele>1553.15</ele>
        <time>2025-10-17T08:51:22Z</time>
      </trkpt>
      <trkpt lat="45.10759" lon="2.64697">
        <ele>1555.07</ele>
        <time>2025-10-17T08:51:33Z</time>
      </trkpt>
      <trkpt lat="45.1075" lon="2.6471">
        <ele>1556.03</ele>
        <time>2025-10-17T08:51:47Z</time>
      </trkpt>
      <trkpt lat="45.10749" lon="2.64711">
        <ele>1556.03</ele>
        <time>2025-10-17T08:51:48Z</time>
      </trkpt>
      <trkpt lat="45.1074" lon="2.64723">
        <ele>1556.51</ele>
        <time>2025-10-17T08:52:00Z</time>
      </trkpt>
      <trkpt lat="45.10735" lon="2.6473">
        <ele>1556.99</ele>
        <time>2025-10-17T08:52:08Z</time>
      </trkpt>
      <trkpt lat="45.10733" lon="2.64734">
        <ele>1557.95</ele>
        <time>2025-10-17T08:52:12Z</time>
      </trkpt>
      <trkpt lat="45.10731" lon="2.64737">
        <ele>1557.95</ele>
        <time>2025-10-17T08:52:15Z</time>
      </trkpt>
      <trkpt lat="45.10723" lon="2.64749">
        <ele>1558.43</ele>
        <time>2025-10-17T08:52:27Z</time>
      </trkpt>
      <trkpt lat="45.10718" lon="2.64755">
        <ele>1558.92</ele>
        <time>2025-10-17T08:52:34Z</time>
      </trkpt>
      <trkpt lat="45.10713" lon="2.64765">
        <ele>1560.36</ele>
        <time>2025-10-17T08:52:45Z</time>
      </trkpt>
      <trkpt lat="45.10707" lon="2.64773">
        <ele>1562.28</ele>
        <time>2025-10-17T08:52:56Z</time>
      </trkpt>
      <trkpt lat="45.10705" lon="2.64777">
        <ele>1562.28</ele>
        <time>2025-10-17T08:53:00Z</time>
      </trkpt>
      <trkpt lat="45.10699" lon="2.64788">
        <ele>1564.2</ele>
        <time>2025-10-17T08:53:13Z</time>
      </trkpt>
      <trkpt lat="45.10696" lon="2.64796">
        <ele>1565.64</ele>
        <time>2025-10-17T08:53:24Z</time>
      </trkpt>
      <trkpt lat="45.1069" lon="2.64807">
        <ele>1567.09</ele>
        <time>2025-10-17T08:53:37Z</time>
      </trkpt>
      <trkpt lat="45.10688" lon="2.64816">
        <ele>1568.53</ele>
        <time>2025-10-17T08:53:48Z</time>
      </trkpt>
      <trkpt lat="45.10685" lon="2.64824">
        <ele>1570.45</ele>
        <time>2025-10-17T08:53:59Z</time>
      </trkpt>
      <trkpt lat="45.10683" lon="2.64832">
        <ele>1571.41</ele>
        <time>2025-10-17T08:54:10Z</time>
      </trkpt>
      <trkpt lat="45.10681" lon="2.6484">
        <ele>1572.85</ele>
        <time>2025-10-17T08:54:20Z</time>
      </trkpt>
      <trkpt lat="45.10678" lon="2.64848">
        <ele>1574.3</ele>
        <time>2025-10-17T08:54:31Z</time>
      </trkpt>
      <trkpt lat="45.10675" lon="2.64855">
        <ele>1575.74</ele>
        <time>2025-10-17T08:54:42Z</time>
      </trkpt>
      <trkpt lat="45.10674" lon="2.64858">
        <ele>1576.22</ele>
        <time>2025-10-17T08:54:46Z</time>
      </trkpt>
      <trkpt lat="45.10669" lon="2.64868">
        <ele>1577.66</ele>
        <time>2025-10-17T08:54:58Z</time>
      </trkpt>
      <trkpt lat="45.10665" lon="2.64876">
        <ele>1579.1</ele>
        <time>2025-10-17T08:55:09Z</time>
      </trkpt>
      <trkpt lat="45.10661" lon="2.64886">
        <ele>1580.06</ele>
        <time>2025-10-17T08:55:21Z</time>
      </trkpt>
      <trkpt lat="45.10658" lon="2.64897">
        <ele>1581.99</ele>
        <time>2025-10-17T08:55:34Z</time>
      </trkpt>
      <trkpt lat="45.10653" lon="2.64905">
        <ele>1583.43</ele>
        <time>2025-10-17T08:55:45Z</time>
      </trkpt>
      <trkpt lat="45.1065" lon="2.6491">
        <ele>1584.39</ele>
        <time>2025-10-17T08:55:51Z</time>
      </trkpt>
      <trkpt lat="45.10646" lon="2.6492">
        <ele>1585.35</ele>
        <time>2025-10-17T08:56:03Z</time>
      </trkpt>
      <trkpt lat="45.10644" lon="2.64928">
        <ele>1586.79</ele>
        <time>2025-10-17T08:56:16Z</time>
      </trkpt>
      <trkpt lat="45.10641" lon="2.64933">
        <ele>1588.72</ele>
        <time>2025-10-17T08:56:35Z</time>
      </trkpt>
      <trkpt lat="45.10639" lon="2.6494">
        <ele>1589.68</ele>
        <time>2025-10-17T08:56:45Z</time>
      </trkpt>
      <trkpt lat="45.10635" lon="2.64948">
        <ele>1591.12</ele>
        <time>2025-10-17T08:56:56Z</time>
      </trkpt>
      <trkpt lat="45.10631" lon="2.64956">
        <ele>1592.08</ele>
        <time>2025-10-17T08:57:07Z</time>
      </trkpt>
      <trkpt lat="45.10627" lon="2.64964">
        <ele>1593.52</ele>
        <time>2025-10-17T08:57:18Z</time>
      </trkpt>
      <trkpt lat="45.10627" lon="2.64965">
        <ele>1593.52</ele>
        <time>2025-10-17T08:57:19Z</time>
      </trkpt>
      <trkpt lat="45.10624" lon="2.64974">
        <ele>1594</ele>
        <time>2025-10-17T08:57:29Z</time>
      </trkpt>
      <trkpt lat="45.10623" lon="2.64976">
        <ele>1594.48</ele>
        <time>2025-10-17T08:57:31Z</time>
      </trkpt>
      <trkpt lat="45.10621" lon="2.64979">
        <ele>1594.48</ele>
        <time>2025-10-17T08:57:34Z</time>
      </trkpt>
      <trkpt lat="45.10617" lon="2.64988">
        <ele>1595.93</ele>
        <time>2025-10-17T08:57:45Z</time>
      </trkpt>
      <trkpt lat="45.10616" lon="2.6499">
        <ele>1596.41</ele>
        <time>2025-10-17T08:57:48Z</time>
      </trkpt>
      <trkpt lat="45.10614" lon="2.64993">
        <ele>1596.41</ele>
        <time>2025-10-17T08:57:51Z</time>
      </trkpt>
      <trkpt lat="45.10613" lon="2.64994">
        <ele>1596.89</ele>
        <time>2025-10-17T08:57:53Z</time>
      </trkpt>
      <trkpt lat="45.10607" lon="2.65001">
        <ele>1597.37</ele>
        <time>2025-10-17T08:58:02Z</time>
      </trkpt>
      <trkpt lat="45.10605" lon="2.65003">
        <ele>1597.37</ele>
        <time>2025-10-17T08:58:04Z</time>
      </trkpt>
      <trkpt lat="45.10596" lon="2.65014">
        <ele>1598.33</ele>
        <time>2025-10-17T08:58:16Z</time>
      </trkpt>
      <trkpt lat="45.10587" lon="2.65024">
        <ele>1598.33</ele>
        <time>2025-10-17T08:58:27Z</time>
      </trkpt>
      <trkpt lat="45.1058" lon="2.65033">
        <ele>1599.29</ele>
        <time>2025-10-17T08:58:39Z</time>
      </trkpt>
      <trkpt lat="45.10572" lon="2.65041">
        <ele>1600.25</ele>
        <time>2025-10-17T08:58:50Z</time>
      </trkpt>
      <trkpt lat="45.10564" lon="2.65051">
        <ele>1600.73</ele>
        <time>2025-10-17T08:59:02Z</time>
      </trkpt>
      <trkpt lat="45.10562" lon="2.65054">
        <ele>1601.21</ele>
        <time>2025-10-17T08:59:07Z</time>
      </trkpt>
      <trkpt lat="45.10555" lon="2.6506">
        <ele>1602.66</ele>
        <time>2025-10-17T08:59:19Z</time>
      </trkpt>
      <trkpt lat="45.10548" lon="2.65063">
        <ele>1603.62</ele>
        <time>2025-10-17T08:59:30Z</time>
      </trkpt>
      <trkpt lat="45.10538" lon="2.65068">
        <ele>1604.58</ele>
        <time>2025-10-17T08:59:43Z</time>
      </trkpt>
      <trkpt lat="45.10531" lon="2.65073">
        <ele>1606.02</ele>
        <time>2025-10-17T08:59:55Z</time>
      </trkpt>
      <trkpt lat="45.10531" lon="2.65074">
        <ele>1606.02</ele>
        <time>2025-10-17T08:59:56Z</time>
      </trkpt>
      <trkpt lat="45.10525" lon="2.65083">
        <ele>1606.5</ele>
        <time>2025-10-17T09:00:05Z</time>
      </trkpt>
      <trkpt lat="45.10522" lon="2.65083">
        <ele>1606.5</ele>
        <time>2025-10-17T09:00:08Z</time>
      </trkpt>
      <trkpt lat="45.10518" lon="2.65089">
        <ele>1605.06</ele>
        <time>2025-10-17T09:00:15Z</time>
      </trkpt>
      <trkpt lat="45.10512" lon="2.65102">
        <ele>1604.58</ele>
        <time>2025-10-17T09:00:26Z</time>
      </trkpt>
      <trkpt lat="45.10511" lon="2.65107">
        <ele>1604.58</ele>
        <time>2025-10-17T09:00:30Z</time>
      </trkpt>
      <trkpt lat="45.10501" lon="2.65118">
        <ele>1604.1</ele>
        <time>2025-10-17T09:00:42Z</time>
      </trkpt>
      <trkpt lat="45.10492" lon="2.65127">
        <ele>1602.17</ele>
        <time>2025-10-17T09:00:54Z</time>
      </trkpt>
      <trkpt lat="45.10486" lon="2.65136">
        <ele>1600.25</ele>
        <time>2025-10-17T09:01:05Z</time>
      </trkpt>
      <trkpt lat="45.10483" lon="2.65139">
        <ele>1599.77</ele>
        <time>2025-10-17T09:01:21Z</time>
      </trkpt>
      <trkpt lat="45.10484" lon="2.65137">
        <ele>1599.29</ele>
        <time>2025-10-17T09:01:56Z</time>
      </trkpt>
      <trkpt lat="45.10477" lon="2.65142">
        <ele>1599.29</ele>
        <time>2025-10-17T09:02:13Z</time>
      </trkpt>
      <trkpt lat="45.10468" lon="2.65153">
        <ele>1599.29</ele>
        <time>2025-10-17T09:02:26Z</time>
      </trkpt>
      <trkpt lat="45.10463" lon="2.65162">
        <ele>1599.29</ele>
        <time>2025-10-17T09:02:34Z</time>
      </trkpt>
      <trkpt lat="45.10452" lon="2.65181">
        <ele>1600.25</ele>
        <time>2025-10-17T09:02:51Z</time>
      </trkpt>
      <trkpt lat="45.10442" lon="2.65197">
        <ele>1603.14</ele>
        <time>2025-10-17T09:03:09Z</time>
      </trkpt>
      <trkpt lat="45.10435" lon="2.65215">
        <ele>1604.58</ele>
        <time>2025-10-17T09:03:27Z</time>
      </trkpt>
      <trkpt lat="45.10424" lon="2.65234">
        <ele>1606.5</ele>
        <time>2025-10-17T09:03:47Z</time>
      </trkpt>
      <trkpt lat="45.10416" lon="2.65246">
        <ele>1608.42</ele>
        <time>2025-10-17T09:04:04Z</time>
      </trkpt>
      <trkpt lat="45.1041" lon="2.65258">
        <ele>1610.35</ele>
        <time>2025-10-17T09:04:22Z</time>
      </trkpt>
      <trkpt lat="45.10401" lon="2.65266">
        <ele>1611.79</ele>
        <time>2025-10-17T09:04:39Z</time>
      </trkpt>
      <trkpt lat="45.10392" lon="2.65276">
        <ele>1615.15</ele>
        <time>2025-10-17T09:04:57Z</time>
      </trkpt>
      <trkpt lat="45.10387" lon="2.6528">
        <ele>1615.63</ele>
        <time>2025-10-17T09:05:05Z</time>
      </trkpt>
      <trkpt lat="45.10376" lon="2.65287">
        <ele>1617.07</ele>
        <time>2025-10-17T09:05:25Z</time>
      </trkpt>
      <trkpt lat="45.10365" lon="2.65298">
        <ele>1619.48</ele>
        <time>2025-10-17T09:05:46Z</time>
      </trkpt>
      <trkpt lat="45.10356" lon="2.65312">
        <ele>1621.4</ele>
        <time>2025-10-17T09:06:04Z</time>
      </trkpt>
      <trkpt lat="45.10345" lon="2.6532">
        <ele>1622.36</ele>
        <time>2025-10-17T09:06:23Z</time>
      </trkpt>
      <trkpt lat="45.1033" lon="2.65331">
        <ele>1623.8</ele>
        <time>2025-10-17T09:06:43Z</time>
      </trkpt>
      <trkpt lat="45.10319" lon="2.65338">
        <ele>1625.73</ele>
        <time>2025-10-17T09:07:02Z</time>
      </trkpt>
      <trkpt lat="45.10303" lon="2.65345">
        <ele>1627.65</ele>
        <time>2025-10-17T09:07:26Z</time>
      </trkpt>
      <trkpt lat="45.10291" lon="2.65354">
        <ele>1629.09</ele>
        <time>2025-10-17T09:07:44Z</time>
      </trkpt>
      <trkpt lat="45.10283" lon="2.6536">
        <ele>1632.46</ele>
        <time>2025-10-17T09:08:03Z</time>
      </trkpt>
      <trkpt lat="45.1027" lon="2.65368">
        <ele>1634.38</ele>
        <time>2025-10-17T09:08:23Z</time>
      </trkpt>
      <trkpt lat="45.10259" lon="2.65378">
        <ele>1636.3</ele>
        <time>2025-10-17T09:08:43Z</time>
      </trkpt>
      <trkpt lat="45.10244" lon="2.65384">
        <ele>1638.22</ele>
        <time>2025-10-17T09:09:04Z</time>
      </trkpt>
      <trkpt lat="45.10243" lon="2.65388">
        <ele>1638.7</ele>
        <time>2025-10-17T09:09:20Z</time>
      </trkpt>
      <trkpt lat="45.10241" lon="2.6539">
        <ele>1638.7</ele>
        <time>2025-10-17T09:09:53Z</time>
      </trkpt>
      <trkpt lat="45.10242" lon="2.65389">
        <ele>1638.7</ele>
        <time>2025-10-17T09:10:20Z</time>
      </trkpt>
      <trkpt lat="45.10241" lon="2.65392">
        <ele>1639.19</ele>
        <time>2025-10-17T09:10:54Z</time>
      </trkpt>
      <trkpt lat="45.10245" lon="2.65391">
        <ele>1639.19</ele>
        <time>2025-10-17T09:11:17Z</time>
      </trkpt>
      <trkpt lat="45.10243" lon="2.65389">
        <ele>1639.67</ele>
        <time>2025-10-17T09:11:49Z</time>
      </trkpt>
      <trkpt lat="45.10242" lon="2.65389">
        <ele>1637.74</ele>
        <time>2025-10-17T09:12:07Z</time>
      </trkpt>
      <trkpt lat="45.10243" lon="2.6539">
        <ele>1638.22</ele>
        <time>2025-10-17T09:12:42Z</time>
      </trkpt>
      <trkpt lat="45.10243" lon="2.65391">
        <ele>1639.19</ele>
        <time>2025-10-17T09:13:22Z</time>
      </trkpt>
      <trkpt lat="45.10242" lon="2.6539">
        <ele>1639.19</ele>
        <time>2025-10-17T09:13:44Z</time>
      </trkpt>
      <trkpt lat="45.10242" lon="2.6539">
        <ele>1638.22</ele>
        <time>2025-10-17T09:13:52Z</time>
      </trkpt>
      <trkpt lat="45.10238" lon="2.65402">
        <ele>1636.3</ele>
        <time>2025-10-17T09:14:11Z</time>
      </trkpt>
      <trkpt lat="45.10234" lon="2.65411">
        <ele>1634.38</ele>
        <time>2025-10-17T09:14:31Z</time>
      </trkpt>
      <trkpt lat="45.10234" lon="2.65412">
        <ele>1633.42</ele>
        <time>2025-10-17T09:14:33Z</time>
      </trkpt>
      <trkpt lat="45.10228" lon="2.65423">
        <ele>1631.01</ele>
        <time>2025-10-17T09:14:52Z</time>
      </trkpt>
      <trkpt lat="45.10226" lon="2.65431">
        <ele>1627.17</ele>
        <time>2025-10-17T09:15:06Z</time>
      </trkpt>
      <trkpt lat="45.1023" lon="2.65439">
        <ele>1625.25</ele>
        <time>2025-10-17T09:15:25Z</time>
      </trkpt>
      <trkpt lat="45.10243" lon="2.65442">
        <ele>1621.4</ele>
        <time>2025-10-17T09:15:42Z</time>
      </trkpt>
      <trkpt lat="45.10243" lon="2.65442">
        <ele>1621.4</ele>
        <time>2025-10-17T09:15:43Z</time>
      </trkpt>
      <trkpt lat="45.10253" lon="2.65448">
        <ele>1619.96</ele>
        <time>2025-10-17T09:15:57Z</time>
      </trkpt>
      <trkpt lat="45.10252" lon="2.65455">
        <ele>1616.59</ele>
        <time>2025-10-17T09:16:08Z</time>
      </trkpt>
      <trkpt lat="45.1025" lon="2.65462">
        <ele>1613.71</ele>
        <time>2025-10-17T09:16:24Z</time>
      </trkpt>
      <trkpt lat="45.10248" lon="2.65469">
        <ele>1611.31</ele>
        <time>2025-10-17T09:16:41Z</time>
      </trkpt>
      <trkpt lat="45.10255" lon="2.65481">
        <ele>1607.94</ele>
        <time>2025-10-17T09:16:55Z</time>
      </trkpt>
      <trkpt lat="45.1026" lon="2.65495">
        <ele>1604.58</ele>
        <time>2025-10-17T09:17:10Z</time>
      </trkpt>
      <trkpt lat="45.10261" lon="2.65508">
        <ele>1601.69</ele>
        <time>2025-10-17T09:17:23Z</time>
      </trkpt>
      <trkpt lat="45.10265" lon="2.65521">
        <ele>1598.33</ele>
        <time>2025-10-17T09:17:35Z</time>
      </trkpt>
      <trkpt lat="45.10267" lon="2.65536">
        <ele>1594.96</ele>
        <time>2025-10-17T09:17:51Z</time>
      </trkpt>
      <trkpt lat="45.1027" lon="2.65551">
        <ele>1591.6</ele>
        <time>2025-10-17T09:18:08Z</time>
      </trkpt>
      <trkpt lat="45.10273" lon="2.65566">
        <ele>1588.72</ele>
        <time>2025-10-17T09:18:24Z</time>
      </trkpt>
      <trkpt lat="45.10277" lon="2.65575">
        <ele>1587.27</ele>
        <time>2025-10-17T09:18:35Z</time>
      </trkpt>
      <trkpt lat="45.10287" lon="2.65593">
        <ele>1583.91</ele>
        <time>2025-10-17T09:18:55Z</time>
      </trkpt>
      <trkpt lat="45.10289" lon="2.65614">
        <ele>1581.99</ele>
        <time>2025-10-17T09:19:13Z</time>
      </trkpt>
      <trkpt lat="45.10298" lon="2.65635">
        <ele>1580.06</ele>
        <time>2025-10-17T09:19:32Z</time>
      </trkpt>
      <trkpt lat="45.10302" lon="2.65658">
        <ele>1577.18</ele>
        <time>2025-10-17T09:19:50Z</time>
      </trkpt>
      <trkpt lat="45.10309" lon="2.6568">
        <ele>1576.7</ele>
        <time>2025-10-17T09:20:08Z</time>
      </trkpt>
      <trkpt lat="45.10316" lon="2.65706">
        <ele>1576.22</ele>
        <time>2025-10-17T09:20:27Z</time>
      </trkpt>
      <trkpt lat="45.10321" lon="2.65722">
        <ele>1578.62</ele>
        <time>2025-10-17T09:20:44Z</time>
      </trkpt>
      <trkpt lat="45.10325" lon="2.65732">
        <ele>1580.06</ele>
        <time>2025-10-17T09:20:59Z</time>
      </trkpt>
      <trkpt lat="45.10326" lon="2.65746">
        <ele>1581.03</ele>
        <time>2025-10-17T09:21:15Z</time>
      </trkpt>
      <trkpt lat="45.1033" lon="2.65758">
        <ele>1579.58</ele>
        <time>2025-10-17T09:21:26Z</time>
      </trkpt>
      <trkpt lat="45.10335" lon="2.65774">
        <ele>1577.18</ele>
        <time>2025-10-17T09:21:43Z</time>
      </trkpt>
      <trkpt lat="45.10339" lon="2.65789">
        <ele>1579.58</ele>
        <time>2025-10-17T09:22:01Z</time>
      </trkpt>
      <trkpt lat="45.1034" lon="2.65808">
        <ele>1580.06</ele>
        <time>2025-10-17T09:22:19Z</time>
      </trkpt>
      <trkpt lat="45.10343" lon="2.65822">
        <ele>1581.99</ele>
        <time>2025-10-17T09:22:35Z</time>
      </trkpt>
      <trkpt lat="45.10339" lon="2.65837">
        <ele>1581.51</ele>
        <time>2025-10-17T09:22:51Z</time>
      </trkpt>
      <trkpt lat="45.1034" lon="2.6585">
        <ele>1578.62</ele>
        <time>2025-10-17T09:23:08Z</time>
      </trkpt>
      <trkpt lat="45.10344" lon="2.65865">
        <ele>1577.18</ele>
        <time>2025-10-17T09:23:24Z</time>
      </trkpt>
      <trkpt lat="45.10351" lon="2.65872">
        <ele>1573.82</ele>
        <time>2025-10-17T09:23:41Z</time>
      </trkpt>
      <trkpt lat="45.10354" lon="2.65876">
        <ele>1572.85</ele>
        <time>2025-10-17T09:23:48Z</time>
      </trkpt>
      <trkpt lat="45.10367" lon="2.65889">
        <ele>1571.89</ele>
        <time>2025-10-17T09:24:05Z</time>
      </trkpt>
      <trkpt lat="45.10379" lon="2.65903">
        <ele>1570.45</ele>
        <time>2025-10-17T09:24:22Z</time>
      </trkpt>
      <trkpt lat="45.10381" lon="2.65924">
        <ele>1568.05</ele>
        <time>2025-10-17T09:24:39Z</time>
      </trkpt>
      <trkpt lat="45.10389" lon="2.65939">
        <ele>1565.16</ele>
        <time>2025-10-17T09:24:55Z</time>
      </trkpt>
      <trkpt lat="45.10393" lon="2.6595">
        <ele>1562.28</ele>
        <time>2025-10-17T09:25:08Z</time>
      </trkpt>
      <trkpt lat="45.10399" lon="2.65969">
        <ele>1559.88</ele>
        <time>2025-10-17T09:25:25Z</time>
      </trkpt>
      <trkpt lat="45.10403" lon="2.6598">
        <ele>1558.43</ele>
        <time>2025-10-17T09:25:40Z</time>
      </trkpt>
      <trkpt lat="45.10403" lon="2.65981">
        <ele>1558.43</ele>
        <time>2025-10-17T09:25:41Z</time>
      </trkpt>
      <trkpt lat="45.10409" lon="2.65996">
        <ele>1556.99</ele>
        <time>2025-10-17T09:25:54Z</time>
      </trkpt>
      <trkpt lat="45.10413" lon="2.66014">
        <ele>1553.63</ele>
        <time>2025-10-17T09:26:09Z</time>
      </trkpt>
      <trkpt lat="45.10415" lon="2.66035">
        <ele>1550.74</ele>
        <time>2025-10-17T09:26:26Z</time>
      </trkpt>
      <trkpt lat="45.10418" lon="2.66054">
        <ele>1547.86</ele>
        <time>2025-10-17T09:26:44Z</time>
      </trkpt>
      <trkpt lat="45.10424" lon="2.66069">
        <ele>1545.46</ele>
        <time>2025-10-17T09:26:59Z</time>
      </trkpt>
      <trkpt lat="45.10427" lon="2.66087">
        <ele>1542.09</ele>
        <time>2025-10-17T09:27:13Z</time>
      </trkpt>
      <trkpt lat="45.10429" lon="2.66109">
        <ele>1540.17</ele>
        <time>2025-10-17T09:27:30Z</time>
      </trkpt>
      <trkpt lat="45.10437" lon="2.66128">
        <ele>1537.29</ele>
        <time>2025-10-17T09:27:47Z</time>
      </trkpt>
      <trkpt lat="45.10439" lon="2.66152">
        <ele>1535.36</ele>
        <time>2025-10-17T09:28:04Z</time>
      </trkpt>
      <trkpt lat="45.10438" lon="2.66157">
        <ele>1534.88</ele>
        <time>2025-10-17T09:28:08Z</time>
      </trkpt>
      <trkpt lat="45.10435" lon="2.66171">
        <ele>1533.92</ele>
        <time>2025-10-17T09:28:27Z</time>
      </trkpt>
      <trkpt lat="45.10434" lon="2.66177">
        <ele>1533.92</ele>
        <time>2025-10-17T09:28:50Z</time>
      </trkpt>
      <trkpt lat="45.10434" lon="2.66177">
        <ele>1532.96</ele>
        <time>2025-10-17T09:29:01Z</time>
      </trkpt>
      <trkpt lat="45.10435" lon="2.66174">
        <ele>1534.4</ele>
        <time>2025-10-17T09:29:10Z</time>
      </trkpt>
      <trkpt lat="45.10435" lon="2.66171">
        <ele>1532.96</ele>
        <time>2025-10-17T09:29:15Z</time>
      </trkpt>
      <trkpt lat="45.10435" lon="2.6617">
        <ele>1532.96</ele>
        <time>2025-10-17T09:29:40Z</time>
      </trkpt>
      <trkpt lat="45.10435" lon="2.66171">
        <ele>1532.96</ele>
        <time>2025-10-17T09:30:21Z</time>
      </trkpt>
      <trkpt lat="45.10434" lon="2.6617">
        <ele>1532.96</ele>
        <time>2025-10-17T09:30:59Z</time>
      </trkpt>
      <trkpt lat="45.10437" lon="2.66173">
        <ele>1532.96</ele>
        <time>2025-10-17T09:31:26Z</time>
      </trkpt>
      <trkpt lat="45.10437" lon="2.66172">
        <ele>1532.96</ele>
        <time>2025-10-17T09:31:55Z</time>
      </trkpt>
      <trkpt lat="45.10438" lon="2.66174">
        <ele>1532.96</ele>
        <time>2025-10-17T09:32:26Z</time>
      </trkpt>
      <trkpt lat="45.10437" lon="2.66173">
        <ele>1532.96</ele>
        <time>2025-10-17T09:32:52Z</time>
      </trkpt>
      <trkpt lat="45.10439" lon="2.66173">
        <ele>1532.96</ele>
        <time>2025-10-17T09:33:23Z</time>
      </trkpt>
      <trkpt lat="45.10438" lon="2.66172">
        <ele>1532.96</ele>
        <time>2025-10-17T09:33:51Z</time>
      </trkpt>
      <trkpt lat="45.10438" lon="2.66173">
        <ele>1532.96</ele>
        <time>2025-10-17T09:34:24Z</time>
      </trkpt>
      <trkpt lat="45.10436" lon="2.66172">
        <ele>1532.96</ele>
        <time>2025-10-17T09:35:02Z</time>
      </trkpt>
      <trkpt lat="45.10438" lon="2.66173">
        <ele>1532.96</ele>
        <time>2025-10-17T09:35:30Z</time>
      </trkpt>
      <trkpt lat="45.10438" lon="2.66172">
        <ele>1532.96</ele>
        <time>2025-10-17T09:35:58Z</time>
      </trkpt>
      <trkpt lat="45.10438" lon="2.66173">
        <ele>1532.96</ele>
        <time>2025-10-17T09:36:28Z</time>
      </trkpt>
      <trkpt lat="45.10437" lon="2.66173">
        <ele>1532.96</ele>
        <time>2025-10-17T09:37:05Z</time>
      </trkpt>
      <trkpt lat="45.10437" lon="2.66171">
        <ele>1532.96</ele>
        <time>2025-10-17T09:37:41Z</time>
      </trkpt>
      <trkpt lat="45.10436" lon="2.66173">
        <ele>1532.96</ele>
        <time>2025-10-17T09:38:24Z</time>
      </trkpt>
      <trkpt lat="45.10435" lon="2.66172">
        <ele>1532.96</ele>
        <time>2025-10-17T09:39:03Z</time>
      </trkpt>
      <trkpt lat="45.10435" lon="2.66173">
        <ele>1532.96</ele>
        <time>2025-10-17T09:39:37Z</time>
      </trkpt>
      <trkpt lat="45.10436" lon="2.66175">
        <ele>1532.96</ele>
        <time>2025-10-17T09:40:02Z</time>
      </trkpt>
      <trkpt lat="45.10436" lon="2.66176">
        <ele>1532.96</ele>
        <time>2025-10-17T09:40:27Z</time>
      </trkpt>
      <trkpt lat="45.10435" lon="2.66176">
        <ele>1532.96</ele>
        <time>2025-10-17T09:41:00Z</time>
      </trkpt>
      <trkpt lat="45.10435" lon="2.66176">
        <ele>1532.96</ele>
        <time>2025-10-17T09:41:41Z</time>
      </trkpt>
      <trkpt lat="45.10434" lon="2.66176">
        <ele>1532.96</ele>
        <time>2025-10-17T09:42:16Z</time>
      </trkpt>
      <trkpt lat="45.10437" lon="2.66177">
        <ele>1532.48</ele>
        <time>2025-10-17T09:42:29Z</time>
      </trkpt>
      <trkpt lat="45.10436" lon="2.66187">
        <ele>1532.48</ele>
        <time>2025-10-17T09:42:46Z</time>
      </trkpt>
      <trkpt lat="45.10439" lon="2.66203">
        <ele>1530.56</ele>
        <time>2025-10-17T09:43:01Z</time>
      </trkpt>
      <trkpt lat="45.10441" lon="2.66224">
        <ele>1530.08</ele>
        <time>2025-10-17T09:43:17Z</time>
      </trkpt>
      <trkpt lat="45.10442" lon="2.6625">
        <ele>1530.08</ele>
        <time>2025-10-17T09:43:36Z</time>
      </trkpt>
      <trkpt lat="45.10441" lon="2.66254">
        <ele>1531.52</ele>
        <time>2025-10-17T09:43:40Z</time>
      </trkpt>
      <trkpt lat="45.10439" lon="2.66279">
        <ele>1532.96</ele>
        <time>2025-10-17T09:43:59Z</time>
      </trkpt>
      <trkpt lat="45.10436" lon="2.66307">
        <ele>1534.88</ele>
        <time>2025-10-17T09:44:21Z</time>
      </trkpt>
      <trkpt lat="45.10432" lon="2.66331">
        <ele>1536.32</ele>
        <time>2025-10-17T09:44:41Z</time>
      </trkpt>
      <trkpt lat="45.10431" lon="2.66355">
        <ele>1537.29</ele>
        <time>2025-10-17T09:45:00Z</time>
      </trkpt>
      <trkpt lat="45.1043" lon="2.66369">
        <ele>1538.25</ele>
        <time>2025-10-17T09:45:10Z</time>
      </trkpt>
      <trkpt lat="45.10431" lon="2.66391">
        <ele>1540.17</ele>
        <time>2025-10-17T09:45:29Z</time>
      </trkpt>
      <trkpt lat="45.10433" lon="2.66411">
        <ele>1541.61</ele>
        <time>2025-10-17T09:45:45Z</time>
      </trkpt>
      <trkpt lat="45.10434" lon="2.66423">
        <ele>1542.09</ele>
        <time>2025-10-17T09:45:54Z</time>
      </trkpt>
      <trkpt lat="45.10437" lon="2.6644">
        <ele>1543.05</ele>
        <time>2025-10-17T09:46:09Z</time>
      </trkpt>
      <trkpt lat="45.10441" lon="2.66459">
        <ele>1544.5</ele>
        <time>2025-10-17T09:46:24Z</time>
      </trkpt>
      <trkpt lat="45.10444" lon="2.66475">
        <ele>1545.46</ele>
        <time>2025-10-17T09:46:39Z</time>
      </trkpt>
      <trkpt lat="45.10449" lon="2.66493">
        <ele>1546.9</ele>
        <time>2025-10-17T09:46:55Z</time>
      </trkpt>
      <trkpt lat="45.10459" lon="2.66503">
        <ele>1547.86</ele>
        <time>2025-10-17T09:47:11Z</time>
      </trkpt>
      <trkpt lat="45.1047" lon="2.66511">
        <ele>1549.3</ele>
        <time>2025-10-17T09:47:27Z</time>
      </trkpt>
      <trkpt lat="45.10485" lon="2.66522">
        <ele>1550.74</ele>
        <time>2025-10-17T09:47:42Z</time>
      </trkpt>
      <trkpt lat="45.10487" lon="2.66545">
        <ele>1551.71</ele>
        <time>2025-10-17T09:48:00Z</time>
      </trkpt>
      <trkpt lat="45.10483" lon="2.66569">
        <ele>1553.63</ele>
        <time>2025-10-17T09:48:22Z</time>
      </trkpt>
      <trkpt lat="45.10489" lon="2.6659">
        <ele>1554.11</ele>
        <time>2025-10-17T09:48:40Z</time>
      </trkpt>
      <trkpt lat="45.10492" lon="2.66602">
        <ele>1555.07</ele>
        <time>2025-10-17T09:48:50Z</time>
      </trkpt>
      <trkpt lat="45.10495" lon="2.66626">
        <ele>1556.99</ele>
        <time>2025-10-17T09:49:09Z</time>
      </trkpt>
      <trkpt lat="45.10483" lon="2.66649">
        <ele>1557.95</ele>
        <time>2025-10-17T09:49:31Z</time>
      </trkpt>
      <trkpt lat="45.1047" lon="2.66666">
        <ele>1558.43</ele>
        <time>2025-10-17T09:49:48Z</time>
      </trkpt>
      <trkpt lat="45.10468" lon="2.66674">
        <ele>1558.43</ele>
        <time>2025-10-17T09:49:54Z</time>
      </trkpt>
      <trkpt lat="45.10467" lon="2.66692">
        <ele>1556.99</ele>
        <time>2025-10-17T09:50:06Z</time>
      </trkpt>
      <trkpt lat="45.10471" lon="2.6672">
        <ele>1556.03</ele>
        <time>2025-10-17T09:50:26Z</time>
      </trkpt>
      <trkpt lat="45.10475" lon="2.66749">
        <ele>1554.11</ele>
        <time>2025-10-17T09:50:46Z</time>
      </trkpt>
      <trkpt lat="45.10478" lon="2.66779">
        <ele>1553.15</ele>
        <time>2025-10-17T09:51:08Z</time>
      </trkpt>
      <trkpt lat="45.10482" lon="2.66791">
        <ele>1553.15</ele>
        <time>2025-10-17T09:51:23Z</time>
      </trkpt>
      <trkpt lat="45.10484" lon="2.66798">
        <ele>1553.15</ele>
        <time>2025-10-17T09:51:29Z</time>
      </trkpt>
      <trkpt lat="45.10491" lon="2.66812">
        <ele>1553.15</ele>
        <time>2025-10-17T09:51:46Z</time>
      </trkpt>
      <trkpt lat="45.10496" lon="2.66829">
        <ele>1554.11</ele>
        <time>2025-10-17T09:52:02Z</time>
      </trkpt>
      <trkpt lat="45.10506" lon="2.66842">
        <ele>1554.59</ele>
        <time>2025-10-17T09:52:17Z</time>
      </trkpt>
      <trkpt lat="45.10508" lon="2.66848">
        <ele>1555.07</ele>
        <time>2025-10-17T09:52:22Z</time>
      </trkpt>
      <trkpt lat="45.1052" lon="2.66862">
        <ele>1556.03</ele>
        <time>2025-10-17T09:52:37Z</time>
      </trkpt>
      <trkpt lat="45.10531" lon="2.66877">
        <ele>1556.03</ele>
        <time>2025-10-17T09:52:51Z</time>
      </trkpt>
      <trkpt lat="45.10544" lon="2.66894">
        <ele>1556.51</ele>
        <time>2025-10-17T09:53:07Z</time>
      </trkpt>
      <trkpt lat="45.10553" lon="2.66912">
        <ele>1556.51</ele>
        <time>2025-10-17T09:53:23Z</time>
      </trkpt>
      <trkpt lat="45.10565" lon="2.66926">
        <ele>1556.99</ele>
        <time>2025-10-17T09:53:38Z</time>
      </trkpt>
      <trkpt lat="45.10578" lon="2.66937">
        <ele>1557.47</ele>
        <time>2025-10-17T09:53:53Z</time>
      </trkpt>
      <trkpt lat="45.10592" lon="2.66948">
        <ele>1557.95</ele>
        <time>2025-10-17T09:54:08Z</time>
      </trkpt>
      <trkpt lat="45.10603" lon="2.66957">
        <ele>1558.43</ele>
        <time>2025-10-17T09:54:21Z</time>
      </trkpt>
      <trkpt lat="45.10615" lon="2.6697">
        <ele>1558.43</ele>
        <time>2025-10-17T09:54:35Z</time>
      </trkpt>
      <trkpt lat="45.10625" lon="2.66988">
        <ele>1558.43</ele>
        <time>2025-10-17T09:54:51Z</time>
      </trkpt>
      <trkpt lat="45.10633" lon="2.67006">
        <ele>1558.92</ele>
        <time>2025-10-17T09:55:06Z</time>
      </trkpt>
      <trkpt lat="45.10642" lon="2.67023">
        <ele>1559.88</ele>
        <time>2025-10-17T09:55:21Z</time>
      </trkpt>
      <trkpt lat="45.10653" lon="2.67039">
        <ele>1561.32</ele>
        <time>2025-10-17T09:55:36Z</time>
      </trkpt>
      <trkpt lat="45.10665" lon="2.67051">
        <ele>1562.28</ele>
        <time>2025-10-17T09:55:51Z</time>
      </trkpt>
      <trkpt lat="45.10675" lon="2.67067">
        <ele>1563.24</ele>
        <time>2025-10-17T09:56:08Z</time>
      </trkpt>
      <trkpt lat="45.10678" lon="2.67069">
        <ele>1563.24</ele>
        <time>2025-10-17T09:56:11Z</time>
      </trkpt>
      <trkpt lat="45.10686" lon="2.67075">
        <ele>1564.2</ele>
        <time>2025-10-17T09:56:21Z</time>
      </trkpt>
      <trkpt lat="45.10701" lon="2.6709">
        <ele>1564.2</ele>
        <time>2025-10-17T09:56:39Z</time>
      </trkpt>
      <trkpt lat="45.10715" lon="2.67106">
        <ele>1563.24</ele>
        <time>2025-10-17T09:56:57Z</time>
      </trkpt>
      <trkpt lat="45.10726" lon="2.6712">
        <ele>1563.24</ele>
        <time>2025-10-17T09:57:12Z</time>
      </trkpt>
      <trkpt lat="45.1074" lon="2.67131">
        <ele>1563.24</ele>
        <time>2025-10-17T09:57:29Z</time>
      </trkpt>
      <trkpt lat="45.10749" lon="2.67136">
        <ele>1563.24</ele>
        <time>2025-10-17T09:57:47Z</time>
      </trkpt>
      <trkpt lat="45.10766" lon="2.67136">
        <ele>1564.68</ele>
        <time>2025-10-17T09:58:06Z</time>
      </trkpt>
      <trkpt lat="45.10778" lon="2.67134">
        <ele>1565.16</ele>
        <time>2025-10-17T09:58:17Z</time>
      </trkpt>
      <trkpt lat="45.10796" lon="2.67134">
        <ele>1565.64</ele>
        <time>2025-10-17T09:58:35Z</time>
      </trkpt>
      <trkpt lat="45.10809" lon="2.67137">
        <ele>1565.64</ele>
        <time>2025-10-17T09:58:48Z</time>
      </trkpt>
      <trkpt lat="45.10827" lon="2.67145">
        <ele>1566.61</ele>
        <time>2025-10-17T09:59:07Z</time>
      </trkpt>
      <trkpt lat="45.10846" lon="2.67153">
        <ele>1566.61</ele>
        <time>2025-10-17T09:59:27Z</time>
      </trkpt>
      <trkpt lat="45.10866" lon="2.67159">
        <ele>1567.57</ele>
        <time>2025-10-17T09:59:47Z</time>
      </trkpt>
      <trkpt lat="45.10881" lon="2.67164">
        <ele>1568.05</ele>
        <time>2025-10-17T10:00:02Z</time>
      </trkpt>
      <trkpt lat="45.10899" lon="2.67169">
        <ele>1568.53</ele>
        <time>2025-10-17T10:00:20Z</time>
      </trkpt>
      <trkpt lat="45.10923" lon="2.67183">
        <ele>1569.49</ele>
        <time>2025-10-17T10:00:44Z</time>
      </trkpt>
      <trkpt lat="45.10939" lon="2.67186">
        <ele>1569.49</ele>
        <time>2025-10-17T10:01:00Z</time>
      </trkpt>
      <trkpt lat="45.10958" lon="2.67185">
        <ele>1570.45</ele>
        <time>2025-10-17T10:01:19Z</time>
      </trkpt>
      <trkpt lat="45.10977" lon="2.67184">
        <ele>1570.93</ele>
        <time>2025-10-17T10:01:38Z</time>
      </trkpt>
      <trkpt lat="45.10995" lon="2.67184">
        <ele>1570.93</ele>
        <time>2025-10-17T10:01:56Z</time>
      </trkpt>
      <trkpt lat="45.11013" lon="2.67189">
        <ele>1571.89</ele>
        <time>2025-10-17T10:02:14Z</time>
      </trkpt>
      <trkpt lat="45.11034" lon="2.67199">
        <ele>1572.37</ele>
        <time>2025-10-17T10:02:36Z</time>
      </trkpt>
      <trkpt lat="45.11053" lon="2.67196">
        <ele>1573.33</ele>
        <time>2025-10-17T10:02:55Z</time>
      </trkpt>
      <trkpt lat="45.11075" lon="2.67185">
        <ele>1574.3</ele>
        <time>2025-10-17T10:03:17Z</time>
      </trkpt>
      <trkpt lat="45.11095" lon="2.67178">
        <ele>1574.78</ele>
        <time>2025-10-17T10:03:37Z</time>
      </trkpt>
      <trkpt lat="45.11114" lon="2.67177">
        <ele>1575.26</ele>
        <time>2025-10-17T10:03:56Z</time>
      </trkpt>
      <trkpt lat="45.11133" lon="2.67178">
        <ele>1575.74</ele>
        <time>2025-10-17T10:04:15Z</time>
      </trkpt>
      <trkpt lat="45.11153" lon="2.67177">
        <ele>1576.22</ele>
        <time>2025-10-17T10:04:35Z</time>
      </trkpt>
      <trkpt lat="45.11168" lon="2.67174">
        <ele>1576.7</ele>
        <time>2025-10-17T10:04:52Z</time>
      </trkpt>
      <trkpt lat="45.11189" lon="2.67172">
        <ele>1577.18</ele>
        <time>2025-10-17T10:05:13Z</time>
      </trkpt>
      <trkpt lat="45.1119" lon="2.67172">
        <ele>1577.66</ele>
        <time>2025-10-17T10:05:14Z</time>
      </trkpt>
      <trkpt lat="45.11208" lon="2.67174">
        <ele>1578.62</ele>
        <time>2025-10-17T10:05:33Z</time>
      </trkpt>
      <trkpt lat="45.11228" lon="2.67178">
        <ele>1579.58</ele>
        <time>2025-10-17T10:05:55Z</time>
      </trkpt>
      <trkpt lat="45.11246" lon="2.67183">
        <ele>1580.06</ele>
        <time>2025-10-17T10:06:14Z</time>
      </trkpt>
      <trkpt lat="45.11262" lon="2.6718">
        <ele>1581.03</ele>
        <time>2025-10-17T10:06:32Z</time>
      </trkpt>
      <trkpt lat="45.1128" lon="2.67179">
        <ele>1581.99</ele>
        <time>2025-10-17T10:06:51Z</time>
      </trkpt>
      <trkpt lat="45.11294" lon="2.67178">
        <ele>1582.95</ele>
        <time>2025-10-17T10:07:07Z</time>
      </trkpt>
      <trkpt lat="45.11311" lon="2.67181">
        <ele>1583.43</ele>
        <time>2025-10-17T10:07:27Z</time>
      </trkpt>
      <trkpt lat="45.11312" lon="2.67181">
        <ele>1583.91</ele>
        <time>2025-10-17T10:07:28Z</time>
      </trkpt>
      <trkpt lat="45.11328" lon="2.67179">
        <ele>1584.39</ele>
        <time>2025-10-17T10:07:44Z</time>
      </trkpt>
      <trkpt lat="45.1134" lon="2.67178">
        <ele>1584.87</ele>
        <time>2025-10-17T10:07:56Z</time>
      </trkpt>
      <trkpt lat="45.11353" lon="2.67176">
        <ele>1585.83</ele>
        <time>2025-10-17T10:08:10Z</time>
      </trkpt>
      <trkpt lat="45.11368" lon="2.67172">
        <ele>1586.79</ele>
        <time>2025-10-17T10:08:26Z</time>
      </trkpt>
      <trkpt lat="45.11383" lon="2.67171">
        <ele>1587.75</ele>
        <time>2025-10-17T10:08:42Z</time>
      </trkpt>
      <trkpt lat="45.11397" lon="2.67173">
        <ele>1588.72</ele>
        <time>2025-10-17T10:08:58Z</time>
      </trkpt>
      <trkpt lat="45.11407" lon="2.67181">
        <ele>1589.2</ele>
        <time>2025-10-17T10:09:12Z</time>
      </trkpt>
      <trkpt lat="45.11414" lon="2.67182">
        <ele>1589.68</ele>
        <time>2025-10-17T10:09:29Z</time>
      </trkpt>
      <trkpt lat="45.11415" lon="2.67182">
        <ele>1589.68</ele>
        <time>2025-10-17T10:10:02Z</time>
      </trkpt>
      <trkpt lat="45.11419" lon="2.67189">
        <ele>1589.68</ele>
        <time>2025-10-17T10:10:22Z</time>
      </trkpt>
      <trkpt lat="45.11423" lon="2.67191">
        <ele>1589.68</ele>
        <time>2025-10-17T10:10:40Z</time>
      </trkpt>
      <trkpt lat="45.11423" lon="2.67192">
        <ele>1589.68</ele>
        <time>2025-10-17T10:11:02Z</time>
      </trkpt>
      <trkpt lat="45.11422" lon="2.6719">
        <ele>1589.68</ele>
        <time>2025-10-17T10:11:21Z</time>
      </trkpt>
      <trkpt lat="45.11421" lon="2.67191">
        <ele>1589.68</ele>
        <time>2025-10-17T10:11:37Z</time>
      </trkpt>
      <trkpt lat="45.11423" lon="2.67189">
        <ele>1589.68</ele>
        <time>2025-10-17T10:11:57Z</time>
      </trkpt>
      <trkpt lat="45.11425" lon="2.6719">
        <ele>1589.68</ele>
        <time>2025-10-17T10:12:14Z</time>
      </trkpt>
      <trkpt lat="45.11419" lon="2.67193">
        <ele>1589.2</ele>
        <time>2025-10-17T10:53:34Z</time>
      </trkpt>
      <trkpt lat="45.11411" lon="2.6719">
        <ele>1589.2</ele>
        <time>2025-10-17T10:53:53Z</time>
      </trkpt>
      <trkpt lat="45.11419" lon="2.67189">
        <ele>1589.2</ele>
        <time>2025-10-17T10:54:29Z</time>
      </trkpt>
      <trkpt lat="45.1142" lon="2.67184">
        <ele>1589.2</ele>
        <time>2025-10-17T10:54:52Z</time>
      </trkpt>
      <trkpt lat="45.11421" lon="2.67185">
        <ele>1589.2</ele>
        <time>2025-10-17T10:55:25Z</time>
      </trkpt>
      <trkpt lat="45.11415" lon="2.67193">
        <ele>1589.2</ele>
        <time>2025-10-17T10:55:49Z</time>
      </trkpt>
      <trkpt lat="45.11394" lon="2.67212">
        <ele>1588.24</ele>
        <time>2025-10-17T10:56:13Z</time>
      </trkpt>
      <trkpt lat="45.11379" lon="2.67229">
        <ele>1587.75</ele>
        <time>2025-10-17T10:56:35Z</time>
      </trkpt>
      <trkpt lat="45.11364" lon="2.67238">
        <ele>1586.31</ele>
        <time>2025-10-17T10:56:57Z</time>
      </trkpt>
      <trkpt lat="45.11363" lon="2.67239">
        <ele>1585.83</ele>
        <time>2025-10-17T10:56:59Z</time>
      </trkpt>
      <trkpt lat="45.11346" lon="2.67279">
        <ele>1583.91</ele>
        <time>2025-10-17T10:57:20Z</time>
      </trkpt>
      <trkpt lat="45.11329" lon="2.67305">
        <ele>1581.51</ele>
        <time>2025-10-17T10:57:45Z</time>
      </trkpt>
      <trkpt lat="45.11312" lon="2.67344">
        <ele>1578.62</ele>
        <time>2025-10-17T10:58:13Z</time>
      </trkpt>
      <trkpt lat="45.11298" lon="2.67377">
        <ele>1575.26</ele>
        <time>2025-10-17T10:58:37Z</time>
      </trkpt>
      <trkpt lat="45.11282" lon="2.67429">
        <ele>1572.85</ele>
        <time>2025-10-17T10:59:05Z</time>
      </trkpt>
      <trkpt lat="45.11277" lon="2.67453">
        <ele>1569.49</ele>
        <time>2025-10-17T10:59:23Z</time>
      </trkpt>
      <trkpt lat="45.11272" lon="2.67478">
        <ele>1567.57</ele>
        <time>2025-10-17T10:59:40Z</time>
      </trkpt>
      <trkpt lat="45.11257" lon="2.67495">
        <ele>1567.57</ele>
        <time>2025-10-17T10:59:58Z</time>
      </trkpt>
      <trkpt lat="45.11252" lon="2.67514">
        <ele>1567.57</ele>
        <time>2025-10-17T11:00:17Z</time>
      </trkpt>
      <trkpt lat="45.11248" lon="2.67522">
        <ele>1566.12</ele>
        <time>2025-10-17T11:00:27Z</time>
      </trkpt>
      <trkpt lat="45.1125" lon="2.67539">
        <ele>1564.2</ele>
        <time>2025-10-17T11:00:45Z</time>
      </trkpt>
      <trkpt lat="45.11239" lon="2.67558">
        <ele>1563.24</ele>
        <time>2025-10-17T11:01:03Z</time>
      </trkpt>
      <trkpt lat="45.11223" lon="2.67578">
        <ele>1563.24</ele>
        <time>2025-10-17T11:01:22Z</time>
      </trkpt>
      <trkpt lat="45.11211" lon="2.67594">
        <ele>1561.8</ele>
        <time>2025-10-17T11:01:41Z</time>
      </trkpt>
      <trkpt lat="45.11205" lon="2.67615">
        <ele>1560.84</ele>
        <time>2025-10-17T11:01:56Z</time>
      </trkpt>
      <trkpt lat="45.11202" lon="2.67625">
        <ele>1561.32</ele>
        <time>2025-10-17T11:02:04Z</time>
      </trkpt>
      <trkpt lat="45.11198" lon="2.67633">
        <ele>1559.88</ele>
        <time>2025-10-17T11:02:11Z</time>
      </trkpt>
      <trkpt lat="45.11193" lon="2.6765">
        <ele>1556.99</ele>
        <time>2025-10-17T11:02:28Z</time>
      </trkpt>
      <trkpt lat="45.11186" lon="2.67679">
        <ele>1554.59</ele>
        <time>2025-10-17T11:02:50Z</time>
      </trkpt>
      <trkpt lat="45.11182" lon="2.67694">
        <ele>1553.63</ele>
        <time>2025-10-17T11:03:08Z</time>
      </trkpt>
      <trkpt lat="45.11177" lon="2.67716">
        <ele>1553.63</ele>
        <time>2025-10-17T11:03:27Z</time>
      </trkpt>
      <trkpt lat="45.11175" lon="2.6774">
        <ele>1552.19</ele>
        <time>2025-10-17T11:03:44Z</time>
      </trkpt>
      <trkpt lat="45.11173" lon="2.67764">
        <ele>1550.74</ele>
        <time>2025-10-17T11:04:01Z</time>
      </trkpt>
      <trkpt lat="45.11171" lon="2.67784">
        <ele>1550.26</ele>
        <time>2025-10-17T11:04:17Z</time>
      </trkpt>
      <trkpt lat="45.11166" lon="2.6779">
        <ele>1552.67</ele>
        <time>2025-10-17T11:04:31Z</time>
      </trkpt>
      <trkpt lat="45.11164" lon="2.67811">
        <ele>1551.71</ele>
        <time>2025-10-17T11:04:49Z</time>
      </trkpt>
      <trkpt lat="45.11161" lon="2.67811">
        <ele>1553.15</ele>
        <time>2025-10-17T11:04:56Z</time>
      </trkpt>
      <trkpt lat="45.11156" lon="2.67822">
        <ele>1554.59</ele>
        <time>2025-10-17T11:05:12Z</time>
      </trkpt>
      <trkpt lat="45.11157" lon="2.67839">
        <ele>1554.59</ele>
        <time>2025-10-17T11:05:29Z</time>
      </trkpt>
      <trkpt lat="45.11157" lon="2.67844">
        <ele>1553.15</ele>
        <time>2025-10-17T11:05:34Z</time>
      </trkpt>
      <trkpt lat="45.11155" lon="2.67862">
        <ele>1553.15</ele>
        <time>2025-10-17T11:05:52Z</time>
      </trkpt>
      <trkpt lat="45.11148" lon="2.67875">
        <ele>1553.63</ele>
        <time>2025-10-17T11:06:06Z</time>
      </trkpt>
      <trkpt lat="45.11142" lon="2.67889">
        <ele>1553.15</ele>
        <time>2025-10-17T11:06:23Z</time>
      </trkpt>
      <trkpt lat="45.11141" lon="2.67897">
        <ele>1554.59</ele>
        <time>2025-10-17T11:06:31Z</time>
      </trkpt>
      <trkpt lat="45.11141" lon="2.67914">
        <ele>1556.51</ele>
        <time>2025-10-17T11:06:49Z</time>
      </trkpt>
      <trkpt lat="45.11142" lon="2.67929">
        <ele>1558.92</ele>
        <time>2025-10-17T11:07:08Z</time>
      </trkpt>
      <trkpt lat="45.11143" lon="2.67945">
        <ele>1560.36</ele>
        <time>2025-10-17T11:07:24Z</time>
      </trkpt>
      <trkpt lat="45.11139" lon="2.67961">
        <ele>1562.76</ele>
        <time>2025-10-17T11:07:40Z</time>
      </trkpt>
      <trkpt lat="45.11136" lon="2.67978">
        <ele>1563.72</ele>
        <time>2025-10-17T11:07:57Z</time>
      </trkpt>
      <trkpt lat="45.11129" lon="2.67991">
        <ele>1565.64</ele>
        <time>2025-10-17T11:08:12Z</time>
      </trkpt>
      <trkpt lat="45.11119" lon="2.67999">
        <ele>1566.61</ele>
        <time>2025-10-17T11:08:26Z</time>
      </trkpt>
      <trkpt lat="45.11118" lon="2.68008">
        <ele>1564.68</ele>
        <time>2025-10-17T11:08:34Z</time>
      </trkpt>
      <trkpt lat="45.11117" lon="2.68011">
        <ele>1564.68</ele>
        <time>2025-10-17T11:08:36Z</time>
      </trkpt>
      <trkpt lat="45.11112" lon="2.68036">
        <ele>1564.2</ele>
        <time>2025-10-17T11:08:52Z</time>
      </trkpt>
      <trkpt lat="45.11108" lon="2.6805">
        <ele>1566.12</ele>
        <time>2025-10-17T11:09:04Z</time>
      </trkpt>
      <trkpt lat="45.11099" lon="2.68073">
        <ele>1566.12</ele>
        <time>2025-10-17T11:09:21Z</time>
      </trkpt>
      <trkpt lat="45.11091" lon="2.68093">
        <ele>1566.61</ele>
        <time>2025-10-17T11:09:37Z</time>
      </trkpt>
      <trkpt lat="45.1108" lon="2.68113">
        <ele>1567.09</ele>
        <time>2025-10-17T11:09:53Z</time>
      </trkpt>
      <trkpt lat="45.11073" lon="2.68125">
        <ele>1568.53</ele>
        <time>2025-10-17T11:10:05Z</time>
      </trkpt>
      <trkpt lat="45.11066" lon="2.68136">
        <ele>1569.97</ele>
        <time>2025-10-17T11:10:18Z</time>
      </trkpt>
      <trkpt lat="45.11057" lon="2.68145">
        <ele>1571.89</ele>
        <time>2025-10-17T11:10:33Z</time>
      </trkpt>
      <trkpt lat="45.11044" lon="2.68154">
        <ele>1573.82</ele>
        <time>2025-10-17T11:10:50Z</time>
      </trkpt>
      <trkpt lat="45.1103" lon="2.68152">
        <ele>1576.22</ele>
        <time>2025-10-17T11:11:08Z</time>
      </trkpt>
      <trkpt lat="45.11017" lon="2.68149">
        <ele>1577.18</ele>
        <time>2025-10-17T11:11:23Z</time>
      </trkpt>
      <trkpt lat="45.11006" lon="2.68145">
        <ele>1577.66</ele>
        <time>2025-10-17T11:11:34Z</time>
      </trkpt>
      <trkpt lat="45.11004" lon="2.68144">
        <ele>1577.66</ele>
        <time>2025-10-17T11:11:36Z</time>
      </trkpt>
      <trkpt lat="45.10983" lon="2.68138">
        <ele>1578.62</ele>
        <time>2025-10-17T11:11:54Z</time>
      </trkpt>
      <trkpt lat="45.10965" lon="2.68126">
        <ele>1578.62</ele>
        <time>2025-10-17T11:12:11Z</time>
      </trkpt>
      <trkpt lat="45.1095" lon="2.68115">
        <ele>1578.14</ele>
        <time>2025-10-17T11:12:28Z</time>
      </trkpt>
      <trkpt lat="45.10949" lon="2.68114">
        <ele>1579.58</ele>
        <time>2025-10-17T11:12:30Z</time>
      </trkpt>
      <trkpt lat="45.10941" lon="2.68098">
        <ele>1581.03</ele>
        <time>2025-10-17T11:12:46Z</time>
      </trkpt>
      <trkpt lat="45.1093" lon="2.68091">
        <ele>1583.43</ele>
        <time>2025-10-17T11:13:01Z</time>
      </trkpt>
      <trkpt lat="45.1092" lon="2.68082">
        <ele>1585.35</ele>
        <time>2025-10-17T11:13:20Z</time>
      </trkpt>
      <trkpt lat="45.10913" lon="2.68076">
        <ele>1588.24</ele>
        <time>2025-10-17T11:13:36Z</time>
      </trkpt>
      <trkpt lat="45.10903" lon="2.68069">
        <ele>1590.16</ele>
        <time>2025-10-17T11:13:55Z</time>
      </trkpt>
      <trkpt lat="45.10888" lon="2.68062">
        <ele>1591.6</ele>
        <time>2025-10-17T11:14:16Z</time>
      </trkpt>
      <trkpt lat="45.10878" lon="2.68052">
        <ele>1594.96</ele>
        <time>2025-10-17T11:14:36Z</time>
      </trkpt>
      <trkpt lat="45.10871" lon="2.68046">
        <ele>1595.93</ele>
        <time>2025-10-17T11:14:52Z</time>
      </trkpt>
      <trkpt lat="45.1087" lon="2.68047">
        <ele>1595.93</ele>
        <time>2025-10-17T11:14:54Z</time>
      </trkpt>
      <trkpt lat="45.10867" lon="2.68049">
        <ele>1594.96</ele>
        <time>2025-10-17T11:14:57Z</time>
      </trkpt>
      <trkpt lat="45.10856" lon="2.68041">
        <ele>1596.89</ele>
        <time>2025-10-17T11:15:13Z</time>
      </trkpt>
      <trkpt lat="45.10845" lon="2.68044">
        <ele>1595.93</ele>
        <time>2025-10-17T11:15:29Z</time>
      </trkpt>
      <trkpt lat="45.10832" lon="2.68044">
        <ele>1597.37</ele>
        <time>2025-10-17T11:15:42Z</time>
      </trkpt>
      <trkpt lat="45.10816" lon="2.68045">
        <ele>1597.85</ele>
        <time>2025-10-17T11:15:59Z</time>
      </trkpt>
      <trkpt lat="45.10803" lon="2.68044">
        <ele>1599.77</ele>
        <time>2025-10-17T11:16:17Z</time>
      </trkpt>
      <trkpt lat="45.10787" lon="2.68046">
        <ele>1601.21</ele>
        <time>2025-10-17T11:16:37Z</time>
      </trkpt>
      <trkpt lat="45.1077" lon="2.68052">
        <ele>1603.14</ele>
        <time>2025-10-17T11:16:57Z</time>
      </trkpt>
      <trkpt lat="45.10754" lon="2.68058">
        <ele>1603.14</ele>
        <time>2025-10-17T11:17:15Z</time>
      </trkpt>
      <trkpt lat="45.10735" lon="2.68059">
        <ele>1603.62</ele>
        <time>2025-10-17T11:17:35Z</time>
      </trkpt>
      <trkpt lat="45.10719" lon="2.68066">
        <ele>1604.58</ele>
        <time>2025-10-17T11:17:53Z</time>
      </trkpt>
      <trkpt lat="45.10699" lon="2.68072">
        <ele>1605.06</ele>
        <time>2025-10-17T11:18:13Z</time>
      </trkpt>
      <trkpt lat="45.10685" lon="2.68083">
        <ele>1606.02</ele>
        <time>2025-10-17T11:18:31Z</time>
      </trkpt>
      <trkpt lat="45.10682" lon="2.68085">
        <ele>1606.02</ele>
        <time>2025-10-17T11:18:34Z</time>
      </trkpt>
      <trkpt lat="45.10668" lon="2.68089">
        <ele>1606.5</ele>
        <time>2025-10-17T11:18:52Z</time>
      </trkpt>
      <trkpt lat="45.10663" lon="2.68089">
        <ele>1606.5</ele>
        <time>2025-10-17T11:19:11Z</time>
      </trkpt>
      <trkpt lat="45.10663" lon="2.6809">
        <ele>1606.5</ele>
        <time>2025-10-17T11:19:43Z</time>
      </trkpt>
      <trkpt lat="45.10662" lon="2.68094">
        <ele>1606.5</ele>
        <time>2025-10-17T11:20:09Z</time>
      </trkpt>
      <trkpt lat="45.10659" lon="2.68103">
        <ele>1606.5</ele>
        <time>2025-10-17T11:20:19Z</time>
      </trkpt>
      <trkpt lat="45.10652" lon="2.68121">
        <ele>1606.5</ele>
        <time>2025-10-17T11:20:35Z</time>
      </trkpt>
      <trkpt lat="45.10646" lon="2.68133">
        <ele>1607.94</ele>
        <time>2025-10-17T11:20:48Z</time>
      </trkpt>
      <trkpt lat="45.10644" lon="2.68144">
        <ele>1607.94</ele>
        <time>2025-10-17T11:20:56Z</time>
      </trkpt>
      <trkpt lat="45.1064" lon="2.68151">
        <ele>1608.42</ele>
        <time>2025-10-17T11:21:03Z</time>
      </trkpt>
      <trkpt lat="45.10638" lon="2.68153">
        <ele>1608.42</ele>
        <time>2025-10-17T11:21:05Z</time>
      </trkpt>
      <trkpt lat="45.10627" lon="2.68162">
        <ele>1608.9</ele>
        <time>2025-10-17T11:21:20Z</time>
      </trkpt>
      <trkpt lat="45.10615" lon="2.68174">
        <ele>1609.38</ele>
        <time>2025-10-17T11:21:36Z</time>
      </trkpt>
      <trkpt lat="45.10614" lon="2.68175">
        <ele>1609.38</ele>
        <time>2025-10-17T11:21:37Z</time>
      </trkpt>
      <trkpt lat="45.10613" lon="2.68177">
        <ele>1608.9</ele>
        <time>2025-10-17T11:21:39Z</time>
      </trkpt>
      <trkpt lat="45.10611" lon="2.6818">
        <ele>1608.9</ele>
        <time>2025-10-17T11:21:42Z</time>
      </trkpt>
      <trkpt lat="45.1061" lon="2.68182">
        <ele>1607.94</ele>
        <time>2025-10-17T11:21:44Z</time>
      </trkpt>
      <trkpt lat="45.10597" lon="2.68194">
        <ele>1607.46</ele>
        <time>2025-10-17T11:21:59Z</time>
      </trkpt>
      <trkpt lat="45.10595" lon="2.68196">
        <ele>1607.46</ele>
        <time>2025-10-17T11:22:01Z</time>
      </trkpt>
      <trkpt lat="45.10593" lon="2.68199">
        <ele>1607.46</ele>
        <time>2025-10-17T11:22:05Z</time>
      </trkpt>
      <trkpt lat="45.10583" lon="2.68212">
        <ele>1607.46</ele>
        <time>2025-10-17T11:22:20Z</time>
      </trkpt>
      <trkpt lat="45.10578" lon="2.68215">
        <ele>1609.38</ele>
        <time>2025-10-17T11:22:32Z</time>
      </trkpt>
      <trkpt lat="45.10572" lon="2.68223">
        <ele>1611.31</ele>
        <time>2025-10-17T11:22:46Z</time>
      </trkpt>
      <trkpt lat="45.10566" lon="2.6823">
        <ele>1613.23</ele>
        <time>2025-10-17T11:23:02Z</time>
      </trkpt>
      <trkpt lat="45.1056" lon="2.68235">
        <ele>1614.67</ele>
        <time>2025-10-17T11:23:14Z</time>
      </trkpt>
      <trkpt lat="45.10556" lon="2.68245">
        <ele>1616.59</ele>
        <time>2025-10-17T11:23:29Z</time>
      </trkpt>
      <trkpt lat="45.10552" lon="2.6825">
        <ele>1618.04</ele>
        <time>2025-10-17T11:23:42Z</time>
      </trkpt>
      <trkpt lat="45.10545" lon="2.68257">
        <ele>1619.48</ele>
        <time>2025-10-17T11:23:56Z</time>
      </trkpt>
      <trkpt lat="45.10534" lon="2.68269">
        <ele>1619.48</ele>
        <time>2025-10-17T11:24:10Z</time>
      </trkpt>
      <trkpt lat="45.10524" lon="2.68277">
        <ele>1618.52</ele>
        <time>2025-10-17T11:24:23Z</time>
      </trkpt>
      <trkpt lat="45.10514" lon="2.68286">
        <ele>1617.07</ele>
        <time>2025-10-17T11:24:37Z</time>
      </trkpt>
      <trkpt lat="45.10514" lon="2.68287">
        <ele>1616.59</ele>
        <time>2025-10-17T11:24:38Z</time>
      </trkpt>
      <trkpt lat="45.10504" lon="2.68299">
        <ele>1615.63</ele>
        <time>2025-10-17T11:24:52Z</time>
      </trkpt>
      <trkpt lat="45.10499" lon="2.68318">
        <ele>1615.63</ele>
        <time>2025-10-17T11:25:08Z</time>
      </trkpt>
      <trkpt lat="45.10497" lon="2.6832">
        <ele>1617.07</ele>
        <time>2025-10-17T11:25:11Z</time>
      </trkpt>
      <trkpt lat="45.10491" lon="2.68323">
        <ele>1618.52</ele>
        <time>2025-10-17T11:25:26Z</time>
      </trkpt>
      <trkpt lat="45.10486" lon="2.6833">
        <ele>1619.48</ele>
        <time>2025-10-17T11:25:44Z</time>
      </trkpt>
      <trkpt lat="45.10479" lon="2.68338">
        <ele>1621.4</ele>
        <time>2025-10-17T11:25:59Z</time>
      </trkpt>
      <trkpt lat="45.10473" lon="2.68348">
        <ele>1623.32</ele>
        <time>2025-10-17T11:26:15Z</time>
      </trkpt>
      <trkpt lat="45.10469" lon="2.68352">
        <ele>1624.28</ele>
        <time>2025-10-17T11:26:29Z</time>
      </trkpt>
      <trkpt lat="45.10465" lon="2.68361">
        <ele>1626.69</ele>
        <time>2025-10-17T11:26:46Z</time>
      </trkpt>
      <trkpt lat="45.10462" lon="2.68368">
        <ele>1628.61</ele>
        <time>2025-10-17T11:27:01Z</time>
      </trkpt>
      <trkpt lat="45.10458" lon="2.68373">
        <ele>1629.57</ele>
        <time>2025-10-17T11:27:14Z</time>
      </trkpt>
      <trkpt lat="45.10455" lon="2.68379">
        <ele>1631.49</ele>
        <time>2025-10-17T11:27:28Z</time>
      </trkpt>
      <trkpt lat="45.10448" lon="2.68386">
        <ele>1632.46</ele>
        <time>2025-10-17T11:27:42Z</time>
      </trkpt>
      <trkpt lat="45.10441" lon="2.68398">
        <ele>1634.38</ele>
        <time>2025-10-17T11:27:59Z</time>
      </trkpt>
      <trkpt lat="45.10437" lon="2.68408">
        <ele>1634.86</ele>
        <time>2025-10-17T11:28:13Z</time>
      </trkpt>
      <trkpt lat="45.10428" lon="2.68423">
        <ele>1634.86</ele>
        <time>2025-10-17T11:28:29Z</time>
      </trkpt>
      <trkpt lat="45.10423" lon="2.6844">
        <ele>1635.82</ele>
        <time>2025-10-17T11:28:43Z</time>
      </trkpt>
      <trkpt lat="45.10416" lon="2.68457">
        <ele>1636.3</ele>
        <time>2025-10-17T11:28:59Z</time>
      </trkpt>
      <trkpt lat="45.10416" lon="2.68458">
        <ele>1636.3</ele>
        <time>2025-10-17T11:29:00Z</time>
      </trkpt>
      <trkpt lat="45.1041" lon="2.68472">
        <ele>1638.22</ele>
        <time>2025-10-17T11:29:16Z</time>
      </trkpt>
      <trkpt lat="45.10407" lon="2.68484">
        <ele>1640.15</ele>
        <time>2025-10-17T11:29:30Z</time>
      </trkpt>
      <trkpt lat="45.10405" lon="2.68499">
        <ele>1640.15</ele>
        <time>2025-10-17T11:29:44Z</time>
      </trkpt>
      <trkpt lat="45.10404" lon="2.68505">
        <ele>1640.15</ele>
        <time>2025-10-17T11:29:49Z</time>
      </trkpt>
      <trkpt lat="45.10396" lon="2.68523">
        <ele>1641.11</ele>
        <time>2025-10-17T11:30:05Z</time>
      </trkpt>
      <trkpt lat="45.10388" lon="2.68536">
        <ele>1641.11</ele>
        <time>2025-10-17T11:30:18Z</time>
      </trkpt>
      <trkpt lat="45.10385" lon="2.68542">
        <ele>1639.67</ele>
        <time>2025-10-17T11:30:23Z</time>
      </trkpt>
      <trkpt lat="45.10373" lon="2.68549">
        <ele>1639.67</ele>
        <time>2025-10-17T11:30:38Z</time>
      </trkpt>
      <trkpt lat="45.10364" lon="2.68554">
        <ele>1635.82</ele>
        <time>2025-10-17T11:30:53Z</time>
      </trkpt>
      <trkpt lat="45.10357" lon="2.68552">
        <ele>1633.42</ele>
        <time>2025-10-17T11:31:07Z</time>
      </trkpt>
      <trkpt lat="45.10353" lon="2.68554">
        <ele>1630.53</ele>
        <time>2025-10-17T11:31:22Z</time>
      </trkpt>
      <trkpt lat="45.10349" lon="2.68555">
        <ele>1628.13</ele>
        <time>2025-10-17T11:31:39Z</time>
      </trkpt>
      <trkpt lat="45.10345" lon="2.68545">
        <ele>1625.25</ele>
        <time>2025-10-17T11:31:51Z</time>
      </trkpt>
      <trkpt lat="45.10343" lon="2.68545">
        <ele>1621.88</ele>
        <time>2025-10-17T11:32:09Z</time>
      </trkpt>
      <trkpt lat="45.10337" lon="2.68548">
        <ele>1618.52</ele>
        <time>2025-10-17T11:32:24Z</time>
      </trkpt>
      <trkpt lat="45.10336" lon="2.68545">
        <ele>1617.07</ele>
        <time>2025-10-17T11:32:44Z</time>
      </trkpt>
      <trkpt lat="45.10339" lon="2.68557">
        <ele>1614.67</ele>
        <time>2025-10-17T11:32:58Z</time>
      </trkpt>
      <trkpt lat="45.10344" lon="2.68561">
        <ele>1614.19</ele>
        <time>2025-10-17T11:33:05Z</time>
      </trkpt>
      <trkpt lat="45.10346" lon="2.68563">
        <ele>1614.19</ele>
        <time>2025-10-17T11:33:07Z</time>
      </trkpt>
      <trkpt lat="45.10356" lon="2.68571">
        <ele>1614.19</ele>
        <time>2025-10-17T11:33:23Z</time>
      </trkpt>
      <trkpt lat="45.10357" lon="2.68571">
        <ele>1614.19</ele>
        <time>2025-10-17T11:33:24Z</time>
      </trkpt>
      <trkpt lat="45.10364" lon="2.68575">
        <ele>1616.11</ele>
        <time>2025-10-17T11:33:40Z</time>
      </trkpt>
      <trkpt lat="45.10369" lon="2.68579">
        <ele>1617.56</ele>
        <time>2025-10-17T11:33:55Z</time>
      </trkpt>
      <trkpt lat="45.10373" lon="2.68583">
        <ele>1619.48</ele>
        <time>2025-10-17T11:34:10Z</time>
      </trkpt>
      <trkpt lat="45.10371" lon="2.68594">
        <ele>1620.92</ele>
        <time>2025-10-17T11:34:26Z</time>
      </trkpt>
      <trkpt lat="45.10376" lon="2.68592">
        <ele>1623.32</ele>
        <time>2025-10-17T11:34:43Z</time>
      </trkpt>
      <trkpt lat="45.10376" lon="2.68598">
        <ele>1624.77</ele>
        <time>2025-10-17T11:35:00Z</time>
      </trkpt>
      <trkpt lat="45.10375" lon="2.68602">
        <ele>1626.21</ele>
        <time>2025-10-17T11:35:17Z</time>
      </trkpt>
      <trkpt lat="45.10374" lon="2.68605">
        <ele>1628.13</ele>
        <time>2025-10-17T11:35:36Z</time>
      </trkpt>
      <trkpt lat="45.10372" lon="2.68611">
        <ele>1629.57</ele>
        <time>2025-10-17T11:35:50Z</time>
      </trkpt>
      <trkpt lat="45.10371" lon="2.68614">
        <ele>1632.46</ele>
        <time>2025-10-17T11:36:09Z</time>
      </trkpt>
      <trkpt lat="45.10372" lon="2.6862">
        <ele>1634.38</ele>
        <time>2025-10-17T11:36:28Z</time>
      </trkpt>
      <trkpt lat="45.10372" lon="2.68629">
        <ele>1636.78</ele>
        <time>2025-10-17T11:36:47Z</time>
      </trkpt>
      <trkpt lat="45.10374" lon="2.68637">
        <ele>1639.19</ele>
        <time>2025-10-17T11:37:06Z</time>
      </trkpt>
      <trkpt lat="45.10375" lon="2.68647">
        <ele>1640.63</ele>
        <time>2025-10-17T11:37:26Z</time>
      </trkpt>
      <trkpt lat="45.10373" lon="2.68658">
        <ele>1642.55</ele>
        <time>2025-10-17T11:37:43Z</time>
      </trkpt>
      <trkpt lat="45.10375" lon="2.68666">
        <ele>1644.95</ele>
        <time>2025-10-17T11:38:00Z</time>
      </trkpt>
      <trkpt lat="45.10375" lon="2.68674">
        <ele>1646.4</ele>
        <time>2025-10-17T11:38:18Z</time>
      </trkpt>
      <trkpt lat="45.10372" lon="2.68686">
        <ele>1648.32</ele>
        <time>2025-10-17T11:38:33Z</time>
      </trkpt>
      <trkpt lat="45.10372" lon="2.68698">
        <ele>1649.76</ele>
        <time>2025-10-17T11:38:49Z</time>
      </trkpt>
      <trkpt lat="45.10369" lon="2.6871">
        <ele>1651.68</ele>
        <time>2025-10-17T11:39:07Z</time>
      </trkpt>
      <trkpt lat="45.10366" lon="2.68724">
        <ele>1652.16</ele>
        <time>2025-10-17T11:39:21Z</time>
      </trkpt>
      <trkpt lat="45.10365" lon="2.68738">
        <ele>1653.6</ele>
        <time>2025-10-17T11:39:36Z</time>
      </trkpt>
      <trkpt lat="45.10364" lon="2.68754">
        <ele>1656.01</ele>
        <time>2025-10-17T11:39:54Z</time>
      </trkpt>
      <trkpt lat="45.10364" lon="2.68767">
        <ele>1657.45</ele>
        <time>2025-10-17T11:40:08Z</time>
      </trkpt>
      <trkpt lat="45.10363" lon="2.68781">
        <ele>1659.37</ele>
        <time>2025-10-17T11:40:26Z</time>
      </trkpt>
      <trkpt lat="45.10364" lon="2.68794">
        <ele>1659.85</ele>
        <time>2025-10-17T11:40:43Z</time>
      </trkpt>
      <trkpt lat="45.10366" lon="2.68809">
        <ele>1661.78</ele>
        <time>2025-10-17T11:41:00Z</time>
      </trkpt>
      <trkpt lat="45.10368" lon="2.6882">
        <ele>1662.74</ele>
        <time>2025-10-17T11:41:16Z</time>
      </trkpt>
      <trkpt lat="45.10371" lon="2.68831">
        <ele>1663.7</ele>
        <time>2025-10-17T11:41:29Z</time>
      </trkpt>
      <trkpt lat="45.10371" lon="2.68844">
        <ele>1665.14</ele>
        <time>2025-10-17T11:41:43Z</time>
      </trkpt>
      <trkpt lat="45.10369" lon="2.68868">
        <ele>1666.1</ele>
        <time>2025-10-17T11:42:01Z</time>
      </trkpt>
      <trkpt lat="45.10362" lon="2.68888">
        <ele>1667.06</ele>
        <time>2025-10-17T11:42:16Z</time>
      </trkpt>
      <trkpt lat="45.10359" lon="2.68906">
        <ele>1667.06</ele>
        <time>2025-10-17T11:42:30Z</time>
      </trkpt>
      <trkpt lat="45.10351" lon="2.68917">
        <ele>1665.14</ele>
        <time>2025-10-17T11:42:44Z</time>
      </trkpt>
      <trkpt lat="45.10349" lon="2.68919">
        <ele>1664.66</ele>
        <time>2025-10-17T11:42:47Z</time>
      </trkpt>
      <trkpt lat="45.1034" lon="2.68934">
        <ele>1663.22</ele>
        <time>2025-10-17T11:43:01Z</time>
      </trkpt>
      <trkpt lat="45.10332" lon="2.68948">
        <ele>1661.78</ele>
        <time>2025-10-17T11:43:16Z</time>
      </trkpt>
      <trkpt lat="45.10324" lon="2.68965">
        <ele>1660.81</ele>
        <time>2025-10-17T11:43:31Z</time>
      </trkpt>
      <trkpt lat="45.10323" lon="2.6898">
        <ele>1658.89</ele>
        <time>2025-10-17T11:43:44Z</time>
      </trkpt>
      <trkpt lat="45.10323" lon="2.68993">
        <ele>1657.45</ele>
        <time>2025-10-17T11:43:56Z</time>
      </trkpt>
      <trkpt lat="45.10323" lon="2.69015">
        <ele>1656.97</ele>
        <time>2025-10-17T11:44:13Z</time>
      </trkpt>
      <trkpt lat="45.10325" lon="2.69036">
        <ele>1656.97</ele>
        <time>2025-10-17T11:44:28Z</time>
      </trkpt>
      <trkpt lat="45.10324" lon="2.69043">
        <ele>1658.41</ele>
        <time>2025-10-17T11:44:33Z</time>
      </trkpt>
      <trkpt lat="45.10323" lon="2.69047">
        <ele>1658.41</ele>
        <time>2025-10-17T11:44:37Z</time>
      </trkpt>
      <trkpt lat="45.10321" lon="2.69052">
        <ele>1658.89</ele>
        <time>2025-10-17T11:44:41Z</time>
      </trkpt>
      <trkpt lat="45.10315" lon="2.69065">
        <ele>1659.85</ele>
        <time>2025-10-17T11:44:55Z</time>
      </trkpt>
      <trkpt lat="45.10309" lon="2.69075">
        <ele>1661.3</ele>
        <time>2025-10-17T11:45:08Z</time>
      </trkpt>
      <trkpt lat="45.10304" lon="2.69089">
        <ele>1662.74</ele>
        <time>2025-10-17T11:45:23Z</time>
      </trkpt>
      <trkpt lat="45.10301" lon="2.69101">
        <ele>1664.66</ele>
        <time>2025-10-17T11:45:36Z</time>
      </trkpt>
      <trkpt lat="45.10301" lon="2.69105">
        <ele>1664.66</ele>
        <time>2025-10-17T11:45:39Z</time>
      </trkpt>
      <trkpt lat="45.10297" lon="2.69125">
        <ele>1665.62</ele>
        <time>2025-10-17T11:45:55Z</time>
      </trkpt>
      <trkpt lat="45.10291" lon="2.69138">
        <ele>1666.1</ele>
        <time>2025-10-17T11:46:08Z</time>
      </trkpt>
      <trkpt lat="45.10289" lon="2.69144">
        <ele>1667.06</ele>
        <time>2025-10-17T11:46:15Z</time>
      </trkpt>
      <trkpt lat="45.10286" lon="2.69155">
        <ele>1667.54</ele>
        <time>2025-10-17T11:46:25Z</time>
      </trkpt>
      <trkpt lat="45.1028" lon="2.69171">
        <ele>1668.02</ele>
        <time>2025-10-17T11:46:41Z</time>
      </trkpt>
      <trkpt lat="45.10279" lon="2.69172">
        <ele>1668.02</ele>
        <time>2025-10-17T11:46:42Z</time>
      </trkpt>
      <trkpt lat="45.10274" lon="2.69188">
        <ele>1668.99</ele>
        <time>2025-10-17T11:46:55Z</time>
      </trkpt>
      <trkpt lat="45.10271" lon="2.69205">
        <ele>1669.47</ele>
        <time>2025-10-17T11:47:09Z</time>
      </trkpt>
      <trkpt lat="45.10269" lon="2.69214">
        <ele>1669.95</ele>
        <time>2025-10-17T11:47:16Z</time>
      </trkpt>
      <trkpt lat="45.10266" lon="2.69216">
        <ele>1669.95</ele>
        <time>2025-10-17T11:47:19Z</time>
      </trkpt>
      <trkpt lat="45.1026" lon="2.69234">
        <ele>1669.95</ele>
        <time>2025-10-17T11:47:34Z</time>
      </trkpt>
      <trkpt lat="45.10255" lon="2.69243">
        <ele>1670.43</ele>
        <time>2025-10-17T11:47:43Z</time>
      </trkpt>
      <trkpt lat="45.10252" lon="2.69265">
        <ele>1668.02</ele>
        <time>2025-10-17T11:47:59Z</time>
      </trkpt>
      <trkpt lat="45.10244" lon="2.69285">
        <ele>1667.06</ele>
        <time>2025-10-17T11:48:15Z</time>
      </trkpt>
      <trkpt lat="45.10246" lon="2.69305">
        <ele>1668.99</ele>
        <time>2025-10-17T11:48:32Z</time>
      </trkpt>
      <trkpt lat="45.10246" lon="2.69306">
        <ele>1668.99</ele>
        <time>2025-10-17T11:48:33Z</time>
      </trkpt>
      <trkpt lat="45.10244" lon="2.69322">
        <ele>1669.95</ele>
        <time>2025-10-17T11:48:45Z</time>
      </trkpt>
      <trkpt lat="45.10242" lon="2.69327">
        <ele>1669.95</ele>
        <time>2025-10-17T11:48:49Z</time>
      </trkpt>
      <trkpt lat="45.10242" lon="2.6934">
        <ele>1670.43</ele>
        <time>2025-10-17T11:48:58Z</time>
      </trkpt>
      <trkpt lat="45.10241" lon="2.69356">
        <ele>1670.43</ele>
        <time>2025-10-17T11:49:08Z</time>
      </trkpt>
      <trkpt lat="45.10243" lon="2.69373">
        <ele>1668.99</ele>
        <time>2025-10-17T11:49:22Z</time>
      </trkpt>
      <trkpt lat="45.10246" lon="2.69377">
        <ele>1668.99</ele>
        <time>2025-10-17T11:49:26Z</time>
      </trkpt>
      <trkpt lat="45.10252" lon="2.69402">
        <ele>1667.54</ele>
        <time>2025-10-17T11:49:43Z</time>
      </trkpt>
      <trkpt lat="45.10259" lon="2.69422">
        <ele>1666.58</ele>
        <time>2025-10-17T11:50:00Z</time>
      </trkpt>
      <trkpt lat="45.10262" lon="2.6943">
        <ele>1664.66</ele>
        <time>2025-10-17T11:50:09Z</time>
      </trkpt>
      <trkpt lat="45.10264" lon="2.69433">
        <ele>1664.66</ele>
        <time>2025-10-17T11:50:13Z</time>
      </trkpt>
      <trkpt lat="45.10269" lon="2.69454">
        <ele>1661.78</ele>
        <time>2025-10-17T11:50:31Z</time>
      </trkpt>
      <trkpt lat="45.10274" lon="2.69464">
        <ele>1659.37</ele>
        <time>2025-10-17T11:50:46Z</time>
      </trkpt>
      <trkpt lat="45.1028" lon="2.69471">
        <ele>1657.45</ele>
        <time>2025-10-17T11:51:00Z</time>
      </trkpt>
      <trkpt lat="45.10289" lon="2.69482">
        <ele>1655.05</ele>
        <time>2025-10-17T11:51:15Z</time>
      </trkpt>
      <trkpt lat="45.10298" lon="2.69489">
        <ele>1653.12</ele>
        <time>2025-10-17T11:51:30Z</time>
      </trkpt>
      <trkpt lat="45.10303" lon="2.695">
        <ele>1650.72</ele>
        <time>2025-10-17T11:51:47Z</time>
      </trkpt>
      <trkpt lat="45.10309" lon="2.69505">
        <ele>1647.36</ele>
        <time>2025-10-17T11:52:01Z</time>
      </trkpt>
      <trkpt lat="45.10316" lon="2.69513">
        <ele>1644.95</ele>
        <time>2025-10-17T11:52:18Z</time>
      </trkpt>
      <trkpt lat="45.10321" lon="2.69518">
        <ele>1641.59</ele>
        <time>2025-10-17T11:52:33Z</time>
      </trkpt>
      <trkpt lat="45.10326" lon="2.69524">
        <ele>1639.67</ele>
        <time>2025-10-17T11:52:47Z</time>
      </trkpt>
      <trkpt lat="45.10333" lon="2.69532">
        <ele>1637.26</ele>
        <time>2025-10-17T11:53:03Z</time>
      </trkpt>
      <trkpt lat="45.10339" lon="2.69536">
        <ele>1634.86</ele>
        <time>2025-10-17T11:53:16Z</time>
      </trkpt>
      <trkpt lat="45.1034" lon="2.69541">
        <ele>1634.38</ele>
        <time>2025-10-17T11:53:21Z</time>
      </trkpt>
      <trkpt lat="45.10343" lon="2.69548">
        <ele>1633.9</ele>
        <time>2025-10-17T11:53:38Z</time>
      </trkpt>
      <trkpt lat="45.10345" lon="2.69554">
        <ele>1633.9</ele>
        <time>2025-10-17T11:53:59Z</time>
      </trkpt>
      <trkpt lat="45.10344" lon="2.69561">
        <ele>1635.82</ele>
        <time>2025-10-17T11:54:10Z</time>
      </trkpt>
      <trkpt lat="45.10348" lon="2.69576">
        <ele>1638.22</ele>
        <time>2025-10-17T11:54:27Z</time>
      </trkpt>
      <trkpt lat="45.10348" lon="2.69577">
        <ele>1638.22</ele>
        <time>2025-10-17T11:54:28Z</time>
      </trkpt>
      <trkpt lat="45.10348" lon="2.69579">
        <ele>1638.22</ele>
        <time>2025-10-17T11:54:30Z</time>
      </trkpt>
      <trkpt lat="45.10348" lon="2.69598">
        <ele>1639.67</ele>
        <time>2025-10-17T11:54:47Z</time>
      </trkpt>
      <trkpt lat="45.10353" lon="2.69618">
        <ele>1640.15</ele>
        <time>2025-10-17T11:55:02Z</time>
      </trkpt>
      <trkpt lat="45.10357" lon="2.69639">
        <ele>1642.07</ele>
        <time>2025-10-17T11:55:21Z</time>
      </trkpt>
      <trkpt lat="45.10363" lon="2.69661">
        <ele>1644.95</ele>
        <time>2025-10-17T11:55:41Z</time>
      </trkpt>
      <trkpt lat="45.10365" lon="2.69671">
        <ele>1644.47</ele>
        <time>2025-10-17T11:55:51Z</time>
      </trkpt>
      <trkpt lat="45.10366" lon="2.69675">
        <ele>1645.91</ele>
        <time>2025-10-17T11:55:54Z</time>
      </trkpt>
      <trkpt lat="45.10375" lon="2.69701">
        <ele>1645.91</ele>
        <time>2025-10-17T11:56:14Z</time>
      </trkpt>
      <trkpt lat="45.10375" lon="2.69702">
        <ele>1645.91</ele>
        <time>2025-10-17T11:56:15Z</time>
      </trkpt>
      <trkpt lat="45.10381" lon="2.69726">
        <ele>1646.88</ele>
        <time>2025-10-17T11:56:33Z</time>
      </trkpt>
      <trkpt lat="45.10382" lon="2.69748">
        <ele>1643.99</ele>
        <time>2025-10-17T11:56:51Z</time>
      </trkpt>
      <trkpt lat="45.10389" lon="2.6977">
        <ele>1641.11</ele>
        <time>2025-10-17T11:57:10Z</time>
      </trkpt>
      <trkpt lat="45.10394" lon="2.6979">
        <ele>1642.07</ele>
        <time>2025-10-17T11:57:24Z</time>
      </trkpt>
      <trkpt lat="45.10403" lon="2.69814">
        <ele>1643.03</ele>
        <time>2025-10-17T11:57:44Z</time>
      </trkpt>
      <trkpt lat="45.1041" lon="2.69834">
        <ele>1644.95</ele>
        <time>2025-10-17T11:58:04Z</time>
      </trkpt>
      <trkpt lat="45.10417" lon="2.69854">
        <ele>1646.88</ele>
        <time>2025-10-17T11:58:23Z</time>
      </trkpt>
      <trkpt lat="45.10421" lon="2.69876">
        <ele>1648.8</ele>
        <time>2025-10-17T11:58:43Z</time>
      </trkpt>
      <trkpt lat="45.10427" lon="2.69897">
        <ele>1650.72</ele>
        <time>2025-10-17T11:59:02Z</time>
      </trkpt>
      <trkpt lat="45.10441" lon="2.69917">
        <ele>1650.72</ele>
        <time>2025-10-17T11:59:23Z</time>
      </trkpt>
      <trkpt lat="45.10444" lon="2.69925">
        <ele>1652.64</ele>
        <time>2025-10-17T11:59:37Z</time>
      </trkpt>
      <trkpt lat="45.10448" lon="2.69928">
        <ele>1652.64</ele>
        <time>2025-10-17T11:59:42Z</time>
      </trkpt>
      <trkpt lat="45.10458" lon="2.69938">
        <ele>1653.12</ele>
        <time>2025-10-17T11:59:56Z</time>
      </trkpt>
      <trkpt lat="45.10463" lon="2.69944">
        <ele>1651.68</ele>
        <time>2025-10-17T12:00:02Z</time>
      </trkpt>
      <trkpt lat="45.10466" lon="2.69948">
        <ele>1650.72</ele>
        <time>2025-10-17T12:00:08Z</time>
      </trkpt>
      <trkpt lat="45.10478" lon="2.69964">
        <ele>1648.8</ele>
        <time>2025-10-17T12:00:24Z</time>
      </trkpt>
      <trkpt lat="45.10488" lon="2.69974">
        <ele>1646.88</ele>
        <time>2025-10-17T12:00:39Z</time>
      </trkpt>
      <trkpt lat="45.10501" lon="2.69989">
        <ele>1644.95</ele>
        <time>2025-10-17T12:00:57Z</time>
      </trkpt>
      <trkpt lat="45.10509" lon="2.70001">
        <ele>1643.03</ele>
        <time>2025-10-17T12:01:12Z</time>
      </trkpt>
      <trkpt lat="45.10516" lon="2.70008">
        <ele>1641.11</ele>
        <time>2025-10-17T12:01:23Z</time>
      </trkpt>
      <trkpt lat="45.10527" lon="2.70022">
        <ele>1640.15</ele>
        <time>2025-10-17T12:01:39Z</time>
      </trkpt>
      <trkpt lat="45.10536" lon="2.70035">
        <ele>1639.67</ele>
        <time>2025-10-17T12:01:51Z</time>
      </trkpt>
      <trkpt lat="45.1054" lon="2.70057">
        <ele>1637.26</ele>
        <time>2025-10-17T12:02:09Z</time>
      </trkpt>
      <trkpt lat="45.10542" lon="2.70067">
        <ele>1636.3</ele>
        <time>2025-10-17T12:02:26Z</time>
      </trkpt>
      <trkpt lat="45.10543" lon="2.70068">
        <ele>1635.82</ele>
        <time>2025-10-17T12:02:54Z</time>
      </trkpt>
      <trkpt lat="45.10542" lon="2.70066">
        <ele>1635.82</ele>
        <time>2025-10-17T12:03:18Z</time>
      </trkpt>
      <trkpt lat="45.10543" lon="2.70076">
        <ele>1634.86</ele>
        <time>2025-10-17T12:03:35Z</time>
      </trkpt>
      <trkpt lat="45.10547" lon="2.70089">
        <ele>1632.94</ele>
        <time>2025-10-17T12:03:49Z</time>
      </trkpt>
      <trkpt lat="45.10547" lon="2.70092">
        <ele>1631.98</ele>
        <time>2025-10-17T12:03:51Z</time>
      </trkpt>
      <trkpt lat="45.10552" lon="2.7011">
        <ele>1630.05</ele>
        <time>2025-10-17T12:04:06Z</time>
      </trkpt>
      <trkpt lat="45.10553" lon="2.70117">
        <ele>1631.49</ele>
        <time>2025-10-17T12:04:11Z</time>
      </trkpt>
      <trkpt lat="45.10558" lon="2.70145">
        <ele>1629.09</ele>
        <time>2025-10-17T12:04:29Z</time>
      </trkpt>
      <trkpt lat="45.10559" lon="2.70169">
        <ele>1627.65</ele>
        <time>2025-10-17T12:04:49Z</time>
      </trkpt>
      <trkpt lat="45.10558" lon="2.70198">
        <ele>1626.21</ele>
        <time>2025-10-17T12:05:10Z</time>
      </trkpt>
      <trkpt lat="45.10557" lon="2.70201">
        <ele>1625.25</ele>
        <time>2025-10-17T12:05:12Z</time>
      </trkpt>
      <trkpt lat="45.10552" lon="2.70229">
        <ele>1625.25</ele>
        <time>2025-10-17T12:05:31Z</time>
      </trkpt>
      <trkpt lat="45.10552" lon="2.70237">
        <ele>1626.69</ele>
        <time>2025-10-17T12:05:38Z</time>
      </trkpt>
      <trkpt lat="45.10552" lon="2.70258">
        <ele>1625.73</ele>
        <time>2025-10-17T12:05:56Z</time>
      </trkpt>
      <trkpt lat="45.10551" lon="2.70265">
        <ele>1626.69</ele>
        <time>2025-10-17T12:06:26Z</time>
      </trkpt>
      <trkpt lat="45.10545" lon="2.70288">
        <ele>1627.17</ele>
        <time>2025-10-17T12:06:44Z</time>
      </trkpt>
      <trkpt lat="45.10545" lon="2.70303">
        <ele>1628.61</ele>
        <time>2025-10-17T12:06:59Z</time>
      </trkpt>
      <trkpt lat="45.10543" lon="2.70326">
        <ele>1628.61</ele>
        <time>2025-10-17T12:07:18Z</time>
      </trkpt>
      <trkpt lat="45.10543" lon="2.7033">
        <ele>1628.61</ele>
        <time>2025-10-17T12:07:20Z</time>
      </trkpt>
      <trkpt lat="45.1055" lon="2.70354">
        <ele>1625.73</ele>
        <time>2025-10-17T12:07:40Z</time>
      </trkpt>
      <trkpt lat="45.10564" lon="2.70371">
        <ele>1622.36</ele>
        <time>2025-10-17T12:08:01Z</time>
      </trkpt>
      <trkpt lat="45.10573" lon="2.70389">
        <ele>1620.44</ele>
        <time>2025-10-17T12:08:16Z</time>
      </trkpt>
      <trkpt lat="45.1058" lon="2.70412">
        <ele>1619</ele>
        <time>2025-10-17T12:08:36Z</time>
      </trkpt>
      <trkpt lat="45.10588" lon="2.7044">
        <ele>1619</ele>
        <time>2025-10-17T12:08:56Z</time>
      </trkpt>
      <trkpt lat="45.10589" lon="2.70466">
        <ele>1617.56</ele>
        <time>2025-10-17T12:09:16Z</time>
      </trkpt>
      <trkpt lat="45.10591" lon="2.70492">
        <ele>1615.15</ele>
        <time>2025-10-17T12:09:34Z</time>
      </trkpt>
      <trkpt lat="45.10591" lon="2.70517">
        <ele>1611.31</ele>
        <time>2025-10-17T12:09:55Z</time>
      </trkpt>
      <trkpt lat="45.1059" lon="2.70536">
        <ele>1609.38</ele>
        <time>2025-10-17T12:10:14Z</time>
      </trkpt>
      <trkpt lat="45.10589" lon="2.70563">
        <ele>1607.46</ele>
        <time>2025-10-17T12:10:33Z</time>
      </trkpt>
      <trkpt lat="45.10593" lon="2.70587">
        <ele>1606.5</ele>
        <time>2025-10-17T12:10:56Z</time>
      </trkpt>
      <trkpt lat="45.10599" lon="2.70593">
        <ele>1603.14</ele>
        <time>2025-10-17T12:11:09Z</time>
      </trkpt>
      <trkpt lat="45.10599" lon="2.70593">
        <ele>1603.14</ele>
        <time>2025-10-17T12:11:10Z</time>
      </trkpt>
      <trkpt lat="45.10613" lon="2.70613">
        <ele>1601.69</ele>
        <time>2025-10-17T12:11:29Z</time>
      </trkpt>
      <trkpt lat="45.10617" lon="2.70614">
        <ele>1603.14</ele>
        <time>2025-10-17T12:11:34Z</time>
      </trkpt>
      <trkpt lat="45.10618" lon="2.70619">
        <ele>1601.21</ele>
        <time>2025-10-17T12:11:40Z</time>
      </trkpt>
      <trkpt lat="45.10623" lon="2.70632">
        <ele>1602.66</ele>
        <time>2025-10-17T12:11:51Z</time>
      </trkpt>
      <trkpt lat="45.1063" lon="2.70642">
        <ele>1599.29</ele>
        <time>2025-10-17T12:12:05Z</time>
      </trkpt>
      <trkpt lat="45.10646" lon="2.70658">
        <ele>1598.81</ele>
        <time>2025-10-17T12:12:22Z</time>
      </trkpt>
      <trkpt lat="45.1065" lon="2.7066">
        <ele>1598.81</ele>
        <time>2025-10-17T12:12:25Z</time>
      </trkpt>
      <trkpt lat="45.10656" lon="2.70664">
        <ele>1598.33</ele>
        <time>2025-10-17T12:12:30Z</time>
      </trkpt>
      <trkpt lat="45.10663" lon="2.70673">
        <ele>1597.37</ele>
        <time>2025-10-17T12:12:40Z</time>
      </trkpt>
      <trkpt lat="45.1067" lon="2.70679">
        <ele>1596.41</ele>
        <time>2025-10-17T12:12:48Z</time>
      </trkpt>
      <trkpt lat="45.10681" lon="2.70708">
        <ele>1594.96</ele>
        <time>2025-10-17T12:13:08Z</time>
      </trkpt>
      <trkpt lat="45.10688" lon="2.7073">
        <ele>1594</ele>
        <time>2025-10-17T12:13:24Z</time>
      </trkpt>
      <trkpt lat="45.10691" lon="2.70751">
        <ele>1595.45</ele>
        <time>2025-10-17T12:13:38Z</time>
      </trkpt>
      <trkpt lat="45.10696" lon="2.70772">
        <ele>1595.93</ele>
        <time>2025-10-17T12:13:53Z</time>
      </trkpt>
      <trkpt lat="45.10696" lon="2.70773">
        <ele>1595.93</ele>
        <time>2025-10-17T12:13:54Z</time>
      </trkpt>
      <trkpt lat="45.10697" lon="2.70799">
        <ele>1595.93</ele>
        <time>2025-10-17T12:14:12Z</time>
      </trkpt>
      <trkpt lat="45.10691" lon="2.7082">
        <ele>1595.93</ele>
        <time>2025-10-17T12:14:26Z</time>
      </trkpt>
      <trkpt lat="45.10697" lon="2.70837">
        <ele>1596.89</ele>
        <time>2025-10-17T12:14:42Z</time>
      </trkpt>
      <trkpt lat="45.107" lon="2.70859">
        <ele>1596.41</ele>
        <time>2025-10-17T12:15:00Z</time>
      </trkpt>
      <trkpt lat="45.10697" lon="2.70872">
        <ele>1594.96</ele>
        <time>2025-10-17T12:15:09Z</time>
      </trkpt>
      <trkpt lat="45.10694" lon="2.70883">
        <ele>1593.52</ele>
        <time>2025-10-17T12:15:16Z</time>
      </trkpt>
      <trkpt lat="45.10687" lon="2.70902">
        <ele>1593.52</ele>
        <time>2025-10-17T12:15:31Z</time>
      </trkpt>
      <trkpt lat="45.10681" lon="2.70916">
        <ele>1593.52</ele>
        <time>2025-10-17T12:15:47Z</time>
      </trkpt>
      <trkpt lat="45.10681" lon="2.70917">
        <ele>1594.96</ele>
        <time>2025-10-17T12:15:54Z</time>
      </trkpt>
      <trkpt lat="45.10677" lon="2.70921">
        <ele>1594</ele>
        <time>2025-10-17T12:15:59Z</time>
      </trkpt>
      <trkpt lat="45.10671" lon="2.70938">
        <ele>1590.64</ele>
        <time>2025-10-17T12:16:15Z</time>
      </trkpt>
      <trkpt lat="45.10676" lon="2.70947">
        <ele>1590.16</ele>
        <time>2025-10-17T12:16:25Z</time>
      </trkpt>
      <trkpt lat="45.10687" lon="2.70959">
        <ele>1593.52</ele>
        <time>2025-10-17T12:16:43Z</time>
      </trkpt>
      <trkpt lat="45.1069" lon="2.70969">
        <ele>1593.04</ele>
        <time>2025-10-17T12:16:54Z</time>
      </trkpt>
      <trkpt lat="45.10695" lon="2.70994">
        <ele>1591.6</ele>
        <time>2025-10-17T12:17:12Z</time>
      </trkpt>
      <trkpt lat="45.10691" lon="2.71011">
        <ele>1589.2</ele>
        <time>2025-10-17T12:17:27Z</time>
      </trkpt>
      <trkpt lat="45.10687" lon="2.71034">
        <ele>1587.75</ele>
        <time>2025-10-17T12:17:43Z</time>
      </trkpt>
      <trkpt lat="45.10686" lon="2.71044">
        <ele>1587.27</ele>
        <time>2025-10-17T12:17:50Z</time>
      </trkpt>
      <trkpt lat="45.10682" lon="2.71049">
        <ele>1586.79</ele>
        <time>2025-10-17T12:17:56Z</time>
      </trkpt>
      <trkpt lat="45.10675" lon="2.71067">
        <ele>1587.75</ele>
        <time>2025-10-17T12:18:09Z</time>
      </trkpt>
      <trkpt lat="45.1067" lon="2.71071">
        <ele>1586.31</ele>
        <time>2025-10-17T12:18:14Z</time>
      </trkpt>
      <trkpt lat="45.10661" lon="2.71079">
        <ele>1585.83</ele>
        <time>2025-10-17T12:18:25Z</time>
      </trkpt>
      <trkpt lat="45.10659" lon="2.71082">
        <ele>1586.31</ele>
        <time>2025-10-17T12:18:28Z</time>
      </trkpt>
      <trkpt lat="45.10657" lon="2.71084">
        <ele>1584.87</ele>
        <time>2025-10-17T12:18:30Z</time>
      </trkpt>
      <trkpt lat="45.10646" lon="2.71102">
        <ele>1583.91</ele>
        <time>2025-10-17T12:18:48Z</time>
      </trkpt>
      <trkpt lat="45.10629" lon="2.71113">
        <ele>1583.43</ele>
        <time>2025-10-17T12:19:04Z</time>
      </trkpt>
      <trkpt lat="45.10612" lon="2.71125">
        <ele>1581.99</ele>
        <time>2025-10-17T12:19:21Z</time>
      </trkpt>
      <trkpt lat="45.10606" lon="2.71129">
        <ele>1581.51</ele>
        <time>2025-10-17T12:19:28Z</time>
      </trkpt>
      <trkpt lat="45.10597" lon="2.7114">
        <ele>1582.95</ele>
        <time>2025-10-17T12:19:39Z</time>
      </trkpt>
      <trkpt lat="45.10591" lon="2.71153">
        <ele>1581.51</ele>
        <time>2025-10-17T12:19:49Z</time>
      </trkpt>
      <trkpt lat="45.10588" lon="2.71176">
        <ele>1580.54</ele>
        <time>2025-10-17T12:20:05Z</time>
      </trkpt>
      <trkpt lat="45.10581" lon="2.71188">
        <ele>1577.66</ele>
        <time>2025-10-17T12:20:21Z</time>
      </trkpt>
      <trkpt lat="45.10577" lon="2.71191">
        <ele>1575.74</ele>
        <time>2025-10-17T12:20:28Z</time>
      </trkpt>
      <trkpt lat="45.1057" lon="2.71201">
        <ele>1575.26</ele>
        <time>2025-10-17T12:20:49Z</time>
      </trkpt>
      <trkpt lat="45.10558" lon="2.71212">
        <ele>1572.85</ele>
        <time>2025-10-17T12:21:05Z</time>
      </trkpt>
      <trkpt lat="45.10549" lon="2.71222">
        <ele>1571.41</ele>
        <time>2025-10-17T12:21:21Z</time>
      </trkpt>
      <trkpt lat="45.10544" lon="2.71234">
        <ele>1569.49</ele>
        <time>2025-10-17T12:21:38Z</time>
      </trkpt>
      <trkpt lat="45.1054" lon="2.71249">
        <ele>1568.53</ele>
        <time>2025-10-17T12:22:01Z</time>
      </trkpt>
      <trkpt lat="45.10534" lon="2.7126">
        <ele>1566.61</ele>
        <time>2025-10-17T12:22:14Z</time>
      </trkpt>
      <trkpt lat="45.10531" lon="2.71271">
        <ele>1565.64</ele>
        <time>2025-10-17T12:22:23Z</time>
      </trkpt>
      <trkpt lat="45.10522" lon="2.71282">
        <ele>1564.2</ele>
        <time>2025-10-17T12:22:33Z</time>
      </trkpt>
      <trkpt lat="45.10509" lon="2.71299">
        <ele>1561.32</ele>
        <time>2025-10-17T12:22:50Z</time>
      </trkpt>
      <trkpt lat="45.105" lon="2.71312">
        <ele>1558.43</ele>
        <time>2025-10-17T12:23:06Z</time>
      </trkpt>
      <trkpt lat="45.10483" lon="2.71321">
        <ele>1557.47</ele>
        <time>2025-10-17T12:23:23Z</time>
      </trkpt>
      <trkpt lat="45.10465" lon="2.71328">
        <ele>1556.99</ele>
        <time>2025-10-17T12:23:39Z</time>
      </trkpt>
      <trkpt lat="45.10448" lon="2.71333">
        <ele>1554.59</ele>
        <time>2025-10-17T12:23:54Z</time>
      </trkpt>
      <trkpt lat="45.10443" lon="2.7134">
        <ele>1553.63</ele>
        <time>2025-10-17T12:24:02Z</time>
      </trkpt>
      <trkpt lat="45.10439" lon="2.71365">
        <ele>1552.19</ele>
        <time>2025-10-17T12:24:18Z</time>
      </trkpt>
      <trkpt lat="45.1044" lon="2.71389">
        <ele>1552.67</ele>
        <time>2025-10-17T12:24:33Z</time>
      </trkpt>
      <trkpt lat="45.1044" lon="2.71396">
        <ele>1551.22</ele>
        <time>2025-10-17T12:24:37Z</time>
      </trkpt>
      <trkpt lat="45.1044" lon="2.71425">
        <ele>1550.74</ele>
        <time>2025-10-17T12:24:55Z</time>
      </trkpt>
      <trkpt lat="45.1044" lon="2.71435">
        <ele>1549.3</ele>
        <time>2025-10-17T12:25:06Z</time>
      </trkpt>
      <trkpt lat="45.10446" lon="2.71447">
        <ele>1546.9</ele>
        <time>2025-10-17T12:25:16Z</time>
      </trkpt>
      <trkpt lat="45.10444" lon="2.71454">
        <ele>1545.94</ele>
        <time>2025-10-17T12:25:23Z</time>
      </trkpt>
      <trkpt lat="45.10441" lon="2.71485">
        <ele>1542.09</ele>
        <time>2025-10-17T12:25:42Z</time>
      </trkpt>
      <trkpt lat="45.1043" lon="2.71518">
        <ele>1540.65</ele>
        <time>2025-10-17T12:26:03Z</time>
      </trkpt>
      <trkpt lat="45.10422" lon="2.71545">
        <ele>1539.69</ele>
        <time>2025-10-17T12:26:21Z</time>
      </trkpt>
      <trkpt lat="45.1041" lon="2.71569">
        <ele>1538.25</ele>
        <time>2025-10-17T12:26:41Z</time>
      </trkpt>
      <trkpt lat="45.104" lon="2.71592">
        <ele>1536.32</ele>
        <time>2025-10-17T12:26:58Z</time>
      </trkpt>
      <trkpt lat="45.10392" lon="2.71603">
        <ele>1536.32</ele>
        <time>2025-10-17T12:27:08Z</time>
      </trkpt>
      <trkpt lat="45.10383" lon="2.71608">
        <ele>1537.77</ele>
        <time>2025-10-17T12:27:18Z</time>
      </trkpt>
      <trkpt lat="45.10375" lon="2.71612">
        <ele>1538.25</ele>
        <time>2025-10-17T12:27:27Z</time>
      </trkpt>
      <trkpt lat="45.10363" lon="2.71615">
        <ele>1538.73</ele>
        <time>2025-10-17T12:27:39Z</time>
      </trkpt>
      <trkpt lat="45.10352" lon="2.71622">
        <ele>1538.73</ele>
        <time>2025-10-17T12:27:55Z</time>
      </trkpt>
      <trkpt lat="45.10352" lon="2.71625">
        <ele>1538.73</ele>
        <time>2025-10-17T12:28:21Z</time>
      </trkpt>
      <trkpt lat="45.10353" lon="2.71625">
        <ele>1538.73</ele>
        <time>2025-10-17T12:28:54Z</time>
      </trkpt>
      <trkpt lat="45.10352" lon="2.71627">
        <ele>1538.25</ele>
        <time>2025-10-17T12:29:33Z</time>
      </trkpt>
      <trkpt lat="45.10351" lon="2.71627">
        <ele>1538.25</ele>
        <time>2025-10-17T12:30:05Z</time>
      </trkpt>
      <trkpt lat="45.10351" lon="2.71627">
        <ele>1538.25</ele>
        <time>2025-10-17T12:30:39Z</time>
      </trkpt>
      <trkpt lat="45.10353" lon="2.71626">
        <ele>1538.25</ele>
        <time>2025-10-17T12:31:12Z</time>
      </trkpt>
      <trkpt lat="45.10352" lon="2.71626">
        <ele>1538.25</ele>
        <time>2025-10-17T12:31:42Z</time>
      </trkpt>
      <trkpt lat="45.1035" lon="2.71626">
        <ele>1538.25</ele>
        <time>2025-10-17T12:32:25Z</time>
      </trkpt>
      <trkpt lat="45.10349" lon="2.71627">
        <ele>1538.25</ele>
        <time>2025-10-17T12:32:59Z</time>
      </trkpt>
      <trkpt lat="45.10352" lon="2.71626">
        <ele>1538.25</ele>
        <time>2025-10-17T12:33:32Z</time>
      </trkpt>
      <trkpt lat="45.10351" lon="2.71625">
        <ele>1538.25</ele>
        <time>2025-10-17T12:34:03Z</time>
      </trkpt>
      <trkpt lat="45.10352" lon="2.71626">
        <ele>1538.25</ele>
        <time>2025-10-17T12:34:36Z</time>
      </trkpt>
      <trkpt lat="45.10351" lon="2.71624">
        <ele>1538.25</ele>
        <time>2025-10-17T12:35:06Z</time>
      </trkpt>
      <trkpt lat="45.1035" lon="2.71624">
        <ele>1538.25</ele>
        <time>2025-10-17T12:35:40Z</time>
      </trkpt>
      <trkpt lat="45.10347" lon="2.71626">
        <ele>1537.77</ele>
        <time>2025-10-17T12:36:16Z</time>
      </trkpt>
      <trkpt lat="45.10346" lon="2.71626">
        <ele>1537.77</ele>
        <time>2025-10-17T12:36:17Z</time>
      </trkpt>
      <trkpt lat="45.1034" lon="2.71628">
        <ele>1536.8</ele>
        <time>2025-10-17T12:36:23Z</time>
      </trkpt>
      <trkpt lat="45.10327" lon="2.71634">
        <ele>1533.92</ele>
        <time>2025-10-17T12:36:38Z</time>
      </trkpt>
      <trkpt lat="45.10317" lon="2.71639">
        <ele>1531.04</ele>
        <time>2025-10-17T12:36:54Z</time>
      </trkpt>
      <trkpt lat="45.10312" lon="2.71644">
        <ele>1530.56</ele>
        <time>2025-10-17T12:37:00Z</time>
      </trkpt>
      <trkpt lat="45.10302" lon="2.71651">
        <ele>1531.04</ele>
        <time>2025-10-17T12:37:11Z</time>
      </trkpt>
      <trkpt lat="45.10292" lon="2.71652">
        <ele>1531.52</ele>
        <time>2025-10-17T12:37:20Z</time>
      </trkpt>
      <trkpt lat="45.1028" lon="2.71649">
        <ele>1532</ele>
        <time>2025-10-17T12:37:32Z</time>
      </trkpt>
      <trkpt lat="45.10264" lon="2.71644">
        <ele>1533.44</ele>
        <time>2025-10-17T12:37:48Z</time>
      </trkpt>
      <trkpt lat="45.10248" lon="2.71641">
        <ele>1533.44</ele>
        <time>2025-10-17T12:38:03Z</time>
      </trkpt>
      <trkpt lat="45.10241" lon="2.71641">
        <ele>1532</ele>
        <time>2025-10-17T12:38:09Z</time>
      </trkpt>
      <trkpt lat="45.10223" lon="2.71638">
        <ele>1532</ele>
        <time>2025-10-17T12:38:26Z</time>
      </trkpt>
      <trkpt lat="45.10206" lon="2.71637">
        <ele>1532.96</ele>
        <time>2025-10-17T12:38:43Z</time>
      </trkpt>
      <trkpt lat="45.10205" lon="2.71637">
        <ele>1532.96</ele>
        <time>2025-10-17T12:38:44Z</time>
      </trkpt>
      <trkpt lat="45.10188" lon="2.71633">
        <ele>1532.96</ele>
        <time>2025-10-17T12:39:00Z</time>
      </trkpt>
      <trkpt lat="45.10182" lon="2.71635">
        <ele>1532.48</ele>
        <time>2025-10-17T12:39:06Z</time>
      </trkpt>
      <trkpt lat="45.10164" lon="2.71636">
        <ele>1532</ele>
        <time>2025-10-17T12:39:21Z</time>
      </trkpt>
      <trkpt lat="45.10156" lon="2.71639">
        <ele>1531.52</ele>
        <time>2025-10-17T12:39:28Z</time>
      </trkpt>
      <trkpt lat="45.10154" lon="2.71639">
        <ele>1531.52</ele>
        <time>2025-10-17T12:39:30Z</time>
      </trkpt>
      <trkpt lat="45.10142" lon="2.71645">
        <ele>1532.96</ele>
        <time>2025-10-17T12:39:42Z</time>
      </trkpt>
      <trkpt lat="45.10126" lon="2.71654">
        <ele>1533.44</ele>
        <time>2025-10-17T12:39:59Z</time>
      </trkpt>
      <trkpt lat="45.10107" lon="2.71662">
        <ele>1533.44</ele>
        <time>2025-10-17T12:40:18Z</time>
      </trkpt>
      <trkpt lat="45.10092" lon="2.71674">
        <ele>1534.4</ele>
        <time>2025-10-17T12:40:37Z</time>
      </trkpt>
      <trkpt lat="45.10089" lon="2.71672">
        <ele>1535.36</ele>
        <time>2025-10-17T12:40:40Z</time>
      </trkpt>
      <trkpt lat="45.10078" lon="2.7167">
        <ele>1534.88</ele>
        <time>2025-10-17T12:40:49Z</time>
      </trkpt>
      <trkpt lat="45.10076" lon="2.71671">
        <ele>1533.92</ele>
        <time>2025-10-17T12:40:51Z</time>
      </trkpt>
      <trkpt lat="45.10075" lon="2.71671">
        <ele>1533.92</ele>
        <time>2025-10-17T12:40:52Z</time>
      </trkpt>
      <trkpt lat="45.10055" lon="2.71661">
        <ele>1533.44</ele>
        <time>2025-10-17T12:41:12Z</time>
      </trkpt>
      <trkpt lat="45.10048" lon="2.7166">
        <ele>1534.88</ele>
        <time>2025-10-17T12:41:20Z</time>
      </trkpt>
      <trkpt lat="45.10031" lon="2.71658">
        <ele>1536.32</ele>
        <time>2025-10-17T12:41:37Z</time>
      </trkpt>
      <trkpt lat="45.10015" lon="2.71655">
        <ele>1537.77</ele>
        <time>2025-10-17T12:41:56Z</time>
      </trkpt>
      <trkpt lat="45.09999" lon="2.71653">
        <ele>1539.21</ele>
        <time>2025-10-17T12:42:13Z</time>
      </trkpt>
      <trkpt lat="45.0998" lon="2.71648">
        <ele>1538.73</ele>
        <time>2025-10-17T12:42:33Z</time>
      </trkpt>
      <trkpt lat="45.09974" lon="2.7165">
        <ele>1539.69</ele>
        <time>2025-10-17T12:42:40Z</time>
      </trkpt>
      <trkpt lat="45.09957" lon="2.71651">
        <ele>1539.21</ele>
        <time>2025-10-17T12:42:58Z</time>
      </trkpt>
      <trkpt lat="45.09955" lon="2.71652">
        <ele>1540.65</ele>
        <time>2025-10-17T12:43:00Z</time>
      </trkpt>
      <trkpt lat="45.09948" lon="2.71653">
        <ele>1541.13</ele>
        <time>2025-10-17T12:43:06Z</time>
      </trkpt>
      <trkpt lat="45.09929" lon="2.71654">
        <ele>1542.57</ele>
        <time>2025-10-17T12:43:24Z</time>
      </trkpt>
      <trkpt lat="45.09913" lon="2.71659">
        <ele>1543.53</ele>
        <time>2025-10-17T12:43:43Z</time>
      </trkpt>
      <trkpt lat="45.09896" lon="2.71665">
        <ele>1544.5</ele>
        <time>2025-10-17T12:44:01Z</time>
      </trkpt>
      <trkpt lat="45.09884" lon="2.71665">
        <ele>1543.05</ele>
        <time>2025-10-17T12:44:13Z</time>
      </trkpt>
      <trkpt lat="45.09875" lon="2.71669">
        <ele>1544.98</ele>
        <time>2025-10-17T12:44:25Z</time>
      </trkpt>
      <trkpt lat="45.09856" lon="2.71673">
        <ele>1543.53</ele>
        <time>2025-10-17T12:44:41Z</time>
      </trkpt>
      <trkpt lat="45.09841" lon="2.71679">
        <ele>1543.05</ele>
        <time>2025-10-17T12:44:57Z</time>
      </trkpt>
      <trkpt lat="45.09836" lon="2.71681">
        <ele>1544.5</ele>
        <time>2025-10-17T12:45:04Z</time>
      </trkpt>
      <trkpt lat="45.09815" lon="2.71688">
        <ele>1544.98</ele>
        <time>2025-10-17T12:45:23Z</time>
      </trkpt>
      <trkpt lat="45.09794" lon="2.71694">
        <ele>1544.98</ele>
        <time>2025-10-17T12:45:43Z</time>
      </trkpt>
      <trkpt lat="45.09776" lon="2.71702">
        <ele>1546.9</ele>
        <time>2025-10-17T12:46:02Z</time>
      </trkpt>
      <trkpt lat="45.09775" lon="2.71702">
        <ele>1546.9</ele>
        <time>2025-10-17T12:46:03Z</time>
      </trkpt>
      <trkpt lat="45.09759" lon="2.71706">
        <ele>1547.38</ele>
        <time>2025-10-17T12:46:20Z</time>
      </trkpt>
      <trkpt lat="45.09739" lon="2.71714">
        <ele>1545.94</ele>
        <time>2025-10-17T12:46:40Z</time>
      </trkpt>
      <trkpt lat="45.09734" lon="2.71717">
        <ele>1547.38</ele>
        <time>2025-10-17T12:46:46Z</time>
      </trkpt>
      <trkpt lat="45.0972" lon="2.71727">
        <ele>1547.86</ele>
        <time>2025-10-17T12:47:03Z</time>
      </trkpt>
      <trkpt lat="45.09696" lon="2.71741">
        <ele>1547.86</ele>
        <time>2025-10-17T12:47:24Z</time>
      </trkpt>
      <trkpt lat="45.09675" lon="2.71751">
        <ele>1547.86</ele>
        <time>2025-10-17T12:47:44Z</time>
      </trkpt>
      <trkpt lat="45.09652" lon="2.71757">
        <ele>1545.94</ele>
        <time>2025-10-17T12:48:04Z</time>
      </trkpt>
      <trkpt lat="45.09633" lon="2.71764">
        <ele>1544.5</ele>
        <time>2025-10-17T12:48:20Z</time>
      </trkpt>
      <trkpt lat="45.09617" lon="2.71761">
        <ele>1544.5</ele>
        <time>2025-10-17T12:48:35Z</time>
      </trkpt>
      <trkpt lat="45.09595" lon="2.71764">
        <ele>1545.94</ele>
        <time>2025-10-17T12:48:53Z</time>
      </trkpt>
      <trkpt lat="45.09594" lon="2.71764">
        <ele>1545.94</ele>
        <time>2025-10-17T12:48:54Z</time>
      </trkpt>
      <trkpt lat="45.09573" lon="2.71767">
        <ele>1545.46</ele>
        <time>2025-10-17T12:49:14Z</time>
      </trkpt>
      <trkpt lat="45.09554" lon="2.71768">
        <ele>1546.42</ele>
        <time>2025-10-17T12:49:32Z</time>
      </trkpt>
      <trkpt lat="45.09542" lon="2.7177">
        <ele>1545.94</ele>
        <time>2025-10-17T12:49:42Z</time>
      </trkpt>
      <trkpt lat="45.09517" lon="2.71771">
        <ele>1545.46</ele>
        <time>2025-10-17T12:50:02Z</time>
      </trkpt>
      <trkpt lat="45.09498" lon="2.71772">
        <ele>1545.46</ele>
        <time>2025-10-17T12:50:20Z</time>
      </trkpt>
      <trkpt lat="45.09479" lon="2.71765">
        <ele>1544.5</ele>
        <time>2025-10-17T12:50:38Z</time>
      </trkpt>
      <trkpt lat="45.09468" lon="2.71764">
        <ele>1544.5</ele>
        <time>2025-10-17T12:50:54Z</time>
      </trkpt>
      <trkpt lat="45.09452" lon="2.71756">
        <ele>1544.5</ele>
        <time>2025-10-17T12:51:09Z</time>
      </trkpt>
      <trkpt lat="45.09433" lon="2.71752">
        <ele>1544.5</ele>
        <time>2025-10-17T12:51:26Z</time>
      </trkpt>
      <trkpt lat="45.0943" lon="2.71751">
        <ele>1544.5</ele>
        <time>2025-10-17T12:51:29Z</time>
      </trkpt>
      <trkpt lat="45.09427" lon="2.71749">
        <ele>1544.5</ele>
        <time>2025-10-17T12:51:32Z</time>
      </trkpt>
      <trkpt lat="45.09408" lon="2.71742">
        <ele>1544.5</ele>
        <time>2025-10-17T12:51:48Z</time>
      </trkpt>
      <trkpt lat="45.09391" lon="2.7173">
        <ele>1543.53</ele>
        <time>2025-10-17T12:52:04Z</time>
      </trkpt>
      <trkpt lat="45.0936" lon="2.71719">
        <ele>1543.05</ele>
        <time>2025-10-17T12:52:31Z</time>
      </trkpt>
      <trkpt lat="45.09339" lon="2.7171">
        <ele>1543.05</ele>
        <time>2025-10-17T12:52:49Z</time>
      </trkpt>
      <trkpt lat="45.09335" lon="2.71705">
        <ele>1544.98</ele>
        <time>2025-10-17T12:52:54Z</time>
      </trkpt>
      <trkpt lat="45.09326" lon="2.71701">
        <ele>1544.01</ele>
        <time>2025-10-17T12:53:02Z</time>
      </trkpt>
      <trkpt lat="45.09308" lon="2.7169">
        <ele>1543.05</ele>
        <time>2025-10-17T12:53:20Z</time>
      </trkpt>
      <trkpt lat="45.09297" lon="2.71684">
        <ele>1541.13</ele>
        <time>2025-10-17T12:53:37Z</time>
      </trkpt>
      <trkpt lat="45.09287" lon="2.71686">
        <ele>1539.69</ele>
        <time>2025-10-17T12:53:53Z</time>
      </trkpt>
      <trkpt lat="45.09269" lon="2.71685">
        <ele>1536.8</ele>
        <time>2025-10-17T12:54:10Z</time>
      </trkpt>
      <trkpt lat="45.09253" lon="2.71683">
        <ele>1532.96</ele>
        <time>2025-10-17T12:54:25Z</time>
      </trkpt>
      <trkpt lat="45.09236" lon="2.71679">
        <ele>1530.56</ele>
        <time>2025-10-17T12:54:41Z</time>
      </trkpt>
      <trkpt lat="45.09232" lon="2.71679">
        <ele>1530.08</ele>
        <time>2025-10-17T12:54:45Z</time>
      </trkpt>
      <trkpt lat="45.09205" lon="2.71687">
        <ele>1529.11</ele>
        <time>2025-10-17T12:55:09Z</time>
      </trkpt>
      <trkpt lat="45.09181" lon="2.71704">
        <ele>1528.15</ele>
        <time>2025-10-17T12:55:30Z</time>
      </trkpt>
      <trkpt lat="45.09156" lon="2.71708">
        <ele>1526.71</ele>
        <time>2025-10-17T12:55:50Z</time>
      </trkpt>
      <trkpt lat="45.09135" lon="2.71709">
        <ele>1526.23</ele>
        <time>2025-10-17T12:56:08Z</time>
      </trkpt>
      <trkpt lat="45.0912" lon="2.71707">
        <ele>1524.31</ele>
        <time>2025-10-17T12:56:23Z</time>
      </trkpt>
      <trkpt lat="45.09118" lon="2.71708">
        <ele>1523.83</ele>
        <time>2025-10-17T12:56:25Z</time>
      </trkpt>
      <trkpt lat="45.091" lon="2.71714">
        <ele>1521.42</ele>
        <time>2025-10-17T12:56:43Z</time>
      </trkpt>
      <trkpt lat="45.09102" lon="2.71713">
        <ele>1520.94</ele>
        <time>2025-10-17T12:57:10Z</time>
      </trkpt>
      <trkpt lat="45.09095" lon="2.71716">
        <ele>1519.5</ele>
        <time>2025-10-17T12:57:32Z</time>
      </trkpt>
      <trkpt lat="45.09081" lon="2.7173">
        <ele>1518.06</ele>
        <time>2025-10-17T12:57:50Z</time>
      </trkpt>
      <trkpt lat="45.09073" lon="2.7174">
        <ele>1515.66</ele>
        <time>2025-10-17T12:58:01Z</time>
      </trkpt>
      <trkpt lat="45.09068" lon="2.71749">
        <ele>1514.21</ele>
        <time>2025-10-17T12:58:08Z</time>
      </trkpt>
      <trkpt lat="45.09066" lon="2.7176">
        <ele>1513.25</ele>
        <time>2025-10-17T12:58:15Z</time>
      </trkpt>
      <trkpt lat="45.0905" lon="2.71779">
        <ele>1510.37</ele>
        <time>2025-10-17T12:58:31Z</time>
      </trkpt>
      <trkpt lat="45.09039" lon="2.71806">
        <ele>1507.48</ele>
        <time>2025-10-17T12:58:49Z</time>
      </trkpt>
      <trkpt lat="45.09036" lon="2.71813">
        <ele>1507</ele>
        <time>2025-10-17T12:58:54Z</time>
      </trkpt>
      <trkpt lat="45.0903" lon="2.7185">
        <ele>1504.6</ele>
        <time>2025-10-17T12:59:16Z</time>
      </trkpt>
      <trkpt lat="45.09031" lon="2.71882">
        <ele>1501.24</ele>
        <time>2025-10-17T12:59:34Z</time>
      </trkpt>
      <trkpt lat="45.09031" lon="2.71904">
        <ele>1498.35</ele>
        <time>2025-10-17T12:59:49Z</time>
      </trkpt>
      <trkpt lat="45.09025" lon="2.71927">
        <ele>1494.03</ele>
        <time>2025-10-17T13:00:05Z</time>
      </trkpt>
      <trkpt lat="45.09018" lon="2.71941">
        <ele>1492.1</ele>
        <time>2025-10-17T13:00:17Z</time>
      </trkpt>
      <trkpt lat="45.09008" lon="2.71965">
        <ele>1490.18</ele>
        <time>2025-10-17T13:00:35Z</time>
      </trkpt>
      <trkpt lat="45.09002" lon="2.71976">
        <ele>1486.82</ele>
        <time>2025-10-17T13:00:46Z</time>
      </trkpt>
      <trkpt lat="45.08986" lon="2.71997">
        <ele>1483.93</ele>
        <time>2025-10-17T13:01:05Z</time>
      </trkpt>
      <trkpt lat="45.08975" lon="2.72008">
        <ele>1480.57</ele>
        <time>2025-10-17T13:01:23Z</time>
      </trkpt>
      <trkpt lat="45.0897" lon="2.72028">
        <ele>1479.13</ele>
        <time>2025-10-17T13:01:42Z</time>
      </trkpt>
      <trkpt lat="45.08965" lon="2.72049">
        <ele>1475.76</ele>
        <time>2025-10-17T13:01:58Z</time>
      </trkpt>
      <trkpt lat="45.08958" lon="2.72071">
        <ele>1472.4</ele>
        <time>2025-10-17T13:02:15Z</time>
      </trkpt>
      <trkpt lat="45.08956" lon="2.72093">
        <ele>1469.51</ele>
        <time>2025-10-17T13:02:31Z</time>
      </trkpt>
      <trkpt lat="45.08955" lon="2.72123">
        <ele>1466.15</ele>
        <time>2025-10-17T13:02:51Z</time>
      </trkpt>
      <trkpt lat="45.08949" lon="2.72149">
        <ele>1463.26</ele>
        <time>2025-10-17T13:03:07Z</time>
      </trkpt>
      <trkpt lat="45.08948" lon="2.7218">
        <ele>1461.34</ele>
        <time>2025-10-17T13:03:26Z</time>
      </trkpt>
      <trkpt lat="45.08947" lon="2.72204">
        <ele>1457.98</ele>
        <time>2025-10-17T13:03:45Z</time>
      </trkpt>
      <trkpt lat="45.08945" lon="2.72232">
        <ele>1455.57</ele>
        <time>2025-10-17T13:04:02Z</time>
      </trkpt>
      <trkpt lat="45.08936" lon="2.72242">
        <ele>1452.21</ele>
        <time>2025-10-17T13:04:16Z</time>
      </trkpt>
      <trkpt lat="45.08928" lon="2.72248">
        <ele>1451.25</ele>
        <time>2025-10-17T13:04:25Z</time>
      </trkpt>
      <trkpt lat="45.08918" lon="2.72256">
        <ele>1449.81</ele>
        <time>2025-10-17T13:04:32Z</time>
      </trkpt>
      <trkpt lat="45.08894" lon="2.72272">
        <ele>1446.92</ele>
        <time>2025-10-17T13:04:55Z</time>
      </trkpt>
      <trkpt lat="45.08882" lon="2.72282">
        <ele>1443.56</ele>
        <time>2025-10-17T13:05:08Z</time>
      </trkpt>
      <trkpt lat="45.0887" lon="2.72296">
        <ele>1440.19</ele>
        <time>2025-10-17T13:05:22Z</time>
      </trkpt>
      <trkpt lat="45.08861" lon="2.72315">
        <ele>1437.31</ele>
        <time>2025-10-17T13:05:40Z</time>
      </trkpt>
      <trkpt lat="45.08848" lon="2.72329">
        <ele>1433.46</ele>
        <time>2025-10-17T13:05:55Z</time>
      </trkpt>
      <trkpt lat="45.08833" lon="2.72346">
        <ele>1431.06</ele>
        <time>2025-10-17T13:06:11Z</time>
      </trkpt>
      <trkpt lat="45.08821" lon="2.72366">
        <ele>1427.7</ele>
        <time>2025-10-17T13:06:29Z</time>
      </trkpt>
      <trkpt lat="45.08817" lon="2.72374">
        <ele>1427.7</ele>
        <time>2025-10-17T13:06:35Z</time>
      </trkpt>
      <trkpt lat="45.08814" lon="2.72379">
        <ele>1426.25</ele>
        <time>2025-10-17T13:06:39Z</time>
      </trkpt>
      <trkpt lat="45.08802" lon="2.72399">
        <ele>1422.41</ele>
        <time>2025-10-17T13:06:57Z</time>
      </trkpt>
      <trkpt lat="45.08801" lon="2.724">
        <ele>1422.41</ele>
        <time>2025-10-17T13:06:58Z</time>
      </trkpt>
      <trkpt lat="45.08792" lon="2.72432">
        <ele>1420</ele>
        <time>2025-10-17T13:07:19Z</time>
      </trkpt>
      <trkpt lat="45.08779" lon="2.72463">
        <ele>1417.6</ele>
        <time>2025-10-17T13:07:42Z</time>
      </trkpt>
      <trkpt lat="45.08771" lon="2.72489">
        <ele>1415.2</ele>
        <time>2025-10-17T13:08:01Z</time>
      </trkpt>
      <trkpt lat="45.08769" lon="2.72525">
        <ele>1412.31</ele>
        <time>2025-10-17T13:08:22Z</time>
      </trkpt>
      <trkpt lat="45.08763" lon="2.72543">
        <ele>1409.91</ele>
        <time>2025-10-17T13:08:34Z</time>
      </trkpt>
      <trkpt lat="45.08758" lon="2.72551">
        <ele>1408.47</ele>
        <time>2025-10-17T13:08:40Z</time>
      </trkpt>
      <trkpt lat="45.08756" lon="2.72554">
        <ele>1407.51</ele>
        <time>2025-10-17T13:08:42Z</time>
      </trkpt>
      <trkpt lat="45.08744" lon="2.72571">
        <ele>1403.66</ele>
        <time>2025-10-17T13:08:57Z</time>
      </trkpt>
      <trkpt lat="45.08743" lon="2.72572">
        <ele>1403.66</ele>
        <time>2025-10-17T13:08:58Z</time>
      </trkpt>
      <trkpt lat="45.0873" lon="2.72583">
        <ele>1400.78</ele>
        <time>2025-10-17T13:09:11Z</time>
      </trkpt>
      <trkpt lat="45.08725" lon="2.72579">
        <ele>1400.3</ele>
        <time>2025-10-17T13:09:28Z</time>
      </trkpt>
      <trkpt lat="45.08717" lon="2.72586">
        <ele>1399.34</ele>
        <time>2025-10-17T13:09:54Z</time>
      </trkpt>
      <trkpt lat="45.08713" lon="2.72601">
        <ele>1395.97</ele>
        <time>2025-10-17T13:10:05Z</time>
      </trkpt>
      <trkpt lat="45.0871" lon="2.72616">
        <ele>1393.57</ele>
        <time>2025-10-17T13:10:16Z</time>
      </trkpt>
      <trkpt lat="45.08707" lon="2.72634">
        <ele>1390.2</ele>
        <time>2025-10-17T13:10:28Z</time>
      </trkpt>
      <trkpt lat="45.08704" lon="2.72646">
        <ele>1389.24</ele>
        <time>2025-10-17T13:10:37Z</time>
      </trkpt>
      <trkpt lat="45.08703" lon="2.72649">
        <ele>1389.24</ele>
        <time>2025-10-17T13:10:39Z</time>
      </trkpt>
      <trkpt lat="45.08699" lon="2.72666">
        <ele>1385.88</ele>
        <time>2025-10-17T13:10:51Z</time>
      </trkpt>
      <trkpt lat="45.08694" lon="2.72692">
        <ele>1382.99</ele>
        <time>2025-10-17T13:11:09Z</time>
      </trkpt>
      <trkpt lat="45.08697" lon="2.72722">
        <ele>1380.59</ele>
        <time>2025-10-17T13:11:29Z</time>
      </trkpt>
      <trkpt lat="45.08698" lon="2.7275">
        <ele>1377.23</ele>
        <time>2025-10-17T13:11:48Z</time>
      </trkpt>
      <trkpt lat="45.08698" lon="2.72753">
        <ele>1377.23</ele>
        <time>2025-10-17T13:11:50Z</time>
      </trkpt>
      <trkpt lat="45.08699" lon="2.72764">
        <ele>1374.82</ele>
        <time>2025-10-17T13:11:57Z</time>
      </trkpt>
      <trkpt lat="45.08701" lon="2.7279">
        <ele>1373.38</ele>
        <time>2025-10-17T13:12:14Z</time>
      </trkpt>
      <trkpt lat="45.08701" lon="2.72793">
        <ele>1372.9</ele>
        <time>2025-10-17T13:12:16Z</time>
      </trkpt>
      <trkpt lat="45.08705" lon="2.72819">
        <ele>1369.54</ele>
        <time>2025-10-17T13:12:34Z</time>
      </trkpt>
      <trkpt lat="45.08707" lon="2.72839">
        <ele>1366.65</ele>
        <time>2025-10-17T13:12:49Z</time>
      </trkpt>
      <trkpt lat="45.08712" lon="2.72861">
        <ele>1363.29</ele>
        <time>2025-10-17T13:13:03Z</time>
      </trkpt>
      <trkpt lat="45.08713" lon="2.72888">
        <ele>1361.84</ele>
        <time>2025-10-17T13:13:22Z</time>
      </trkpt>
      <trkpt lat="45.08712" lon="2.72922">
        <ele>1360.88</ele>
        <time>2025-10-17T13:13:44Z</time>
      </trkpt>
      <trkpt lat="45.08716" lon="2.72951">
        <ele>1360.4</ele>
        <time>2025-10-17T13:14:03Z</time>
      </trkpt>
      <trkpt lat="45.08714" lon="2.72985">
        <ele>1359.92</ele>
        <time>2025-10-17T13:14:22Z</time>
      </trkpt>
      <trkpt lat="45.08709" lon="2.73012">
        <ele>1358.96</ele>
        <time>2025-10-17T13:14:38Z</time>
      </trkpt>
      <trkpt lat="45.08699" lon="2.73043">
        <ele>1357.52</ele>
        <time>2025-10-17T13:14:59Z</time>
      </trkpt>
      <trkpt lat="45.08693" lon="2.7307">
        <ele>1356.56</ele>
        <time>2025-10-17T13:15:16Z</time>
      </trkpt>
      <trkpt lat="45.08689" lon="2.7308">
        <ele>1355.12</ele>
        <time>2025-10-17T13:15:23Z</time>
      </trkpt>
      <trkpt lat="45.08676" lon="2.73097">
        <ele>1353.19</ele>
        <time>2025-10-17T13:15:39Z</time>
      </trkpt>
      <trkpt lat="45.08674" lon="2.73108">
        <ele>1351.27</ele>
        <time>2025-10-17T13:15:46Z</time>
      </trkpt>
      <trkpt lat="45.08669" lon="2.73131">
        <ele>1348.87</ele>
        <time>2025-10-17T13:16:00Z</time>
      </trkpt>
      <trkpt lat="45.08665" lon="2.73145">
        <ele>1345.5</ele>
        <time>2025-10-17T13:16:11Z</time>
      </trkpt>
      <trkpt lat="45.08663" lon="2.73152">
        <ele>1344.54</ele>
        <time>2025-10-17T13:16:16Z</time>
      </trkpt>
      <trkpt lat="45.08661" lon="2.7317">
        <ele>1340.7</ele>
        <time>2025-10-17T13:16:28Z</time>
      </trkpt>
      <trkpt lat="45.08655" lon="2.73184">
        <ele>1337.81</ele>
        <time>2025-10-17T13:16:38Z</time>
      </trkpt>
      <trkpt lat="45.0865" lon="2.73194">
        <ele>1334.93</ele>
        <time>2025-10-17T13:16:46Z</time>
      </trkpt>
      <trkpt lat="45.08641" lon="2.73204">
        <ele>1331.56</ele>
        <time>2025-10-17T13:16:59Z</time>
      </trkpt>
      <trkpt lat="45.08636" lon="2.73219">
        <ele>1328.68</ele>
        <time>2025-10-17T13:17:11Z</time>
      </trkpt>
      <trkpt lat="45.08634" lon="2.73226">
        <ele>1327.24</ele>
        <time>2025-10-17T13:17:17Z</time>
      </trkpt>
      <trkpt lat="45.08628" lon="2.73227">
        <ele>1325.31</ele>
        <time>2025-10-17T13:17:23Z</time>
      </trkpt>
      <trkpt lat="45.08625" lon="2.73233">
        <ele>1324.35</ele>
        <time>2025-10-17T13:17:28Z</time>
      </trkpt>
      <trkpt lat="45.08624" lon="2.73245">
        <ele>1321.47</ele>
        <time>2025-10-17T13:17:39Z</time>
      </trkpt>
      <trkpt lat="45.0862" lon="2.73253">
        <ele>1319.55</ele>
        <time>2025-10-17T13:17:54Z</time>
      </trkpt>
      <trkpt lat="45.0862" lon="2.73258">
        <ele>1318.1</ele>
        <time>2025-10-17T13:17:58Z</time>
      </trkpt>
      <trkpt lat="45.08614" lon="2.73265">
        <ele>1316.18</ele>
        <time>2025-10-17T13:18:07Z</time>
      </trkpt>
      <trkpt lat="45.0861" lon="2.7327">
        <ele>1314.74</ele>
        <time>2025-10-17T13:18:12Z</time>
      </trkpt>
      <trkpt lat="45.08606" lon="2.73286">
        <ele>1312.34</ele>
        <time>2025-10-17T13:18:25Z</time>
      </trkpt>
      <trkpt lat="45.08603" lon="2.73299">
        <ele>1308.97</ele>
        <time>2025-10-17T13:18:35Z</time>
      </trkpt>
      <trkpt lat="45.086" lon="2.73313">
        <ele>1306.57</ele>
        <time>2025-10-17T13:18:47Z</time>
      </trkpt>
      <trkpt lat="45.08598" lon="2.73327">
        <ele>1304.17</ele>
        <time>2025-10-17T13:18:58Z</time>
      </trkpt>
      <trkpt lat="45.08587" lon="2.73353">
        <ele>1301.28</ele>
        <time>2025-10-17T13:19:16Z</time>
      </trkpt>
      <trkpt lat="45.08586" lon="2.73354">
        <ele>1301.28</ele>
        <time>2025-10-17T13:19:17Z</time>
      </trkpt>
      <trkpt lat="45.08581" lon="2.73377">
        <ele>1298.88</ele>
        <time>2025-10-17T13:19:32Z</time>
      </trkpt>
      <trkpt lat="45.08575" lon="2.73394">
        <ele>1296.48</ele>
        <time>2025-10-17T13:19:46Z</time>
      </trkpt>
      <trkpt lat="45.08569" lon="2.73408">
        <ele>1295.03</ele>
        <time>2025-10-17T13:19:57Z</time>
      </trkpt>
      <trkpt lat="45.08558" lon="2.73426">
        <ele>1293.11</ele>
        <time>2025-10-17T13:20:11Z</time>
      </trkpt>
      <trkpt lat="45.08554" lon="2.73449">
        <ele>1291.19</ele>
        <time>2025-10-17T13:20:27Z</time>
      </trkpt>
      <trkpt lat="45.08556" lon="2.73452">
        <ele>1290.71</ele>
        <time>2025-10-17T13:20:48Z</time>
      </trkpt>
      <trkpt lat="45.0855" lon="2.73465">
        <ele>1289.75</ele>
        <time>2025-10-17T13:21:19Z</time>
      </trkpt>
      <trkpt lat="45.08543" lon="2.73498">
        <ele>1287.82</ele>
        <time>2025-10-17T13:21:39Z</time>
      </trkpt>
      <trkpt lat="45.08539" lon="2.7353">
        <ele>1285.9</ele>
        <time>2025-10-17T13:21:57Z</time>
      </trkpt>
      <trkpt lat="45.08529" lon="2.73561">
        <ele>1284.46</ele>
        <time>2025-10-17T13:22:18Z</time>
      </trkpt>
      <trkpt lat="45.08518" lon="2.73585">
        <ele>1282.54</ele>
        <time>2025-10-17T13:22:37Z</time>
      </trkpt>
      <trkpt lat="45.08521" lon="2.73615">
        <ele>1280.61</ele>
        <time>2025-10-17T13:22:55Z</time>
      </trkpt>
      <trkpt lat="45.0853" lon="2.73636">
        <ele>1279.17</ele>
        <time>2025-10-17T13:23:10Z</time>
      </trkpt>
      <trkpt lat="45.08544" lon="2.73659">
        <ele>1277.73</ele>
        <time>2025-10-17T13:23:28Z</time>
      </trkpt>
      <trkpt lat="45.0855" lon="2.73691">
        <ele>1275.81</ele>
        <time>2025-10-17T13:23:48Z</time>
      </trkpt>
      <trkpt lat="45.0855" lon="2.73693">
        <ele>1275.81</ele>
        <time>2025-10-17T13:23:49Z</time>
      </trkpt>
      <trkpt lat="45.08552" lon="2.73724">
        <ele>1273.4</ele>
        <time>2025-10-17T13:24:08Z</time>
      </trkpt>
      <trkpt lat="45.08554" lon="2.73755">
        <ele>1272.44</ele>
        <time>2025-10-17T13:24:28Z</time>
      </trkpt>
      <trkpt lat="45.0856" lon="2.73786">
        <ele>1271</ele>
        <time>2025-10-17T13:24:47Z</time>
      </trkpt>
      <trkpt lat="45.08564" lon="2.73812">
        <ele>1269.56</ele>
        <time>2025-10-17T13:25:05Z</time>
      </trkpt>
      <trkpt lat="45.08573" lon="2.73838">
        <ele>1267.64</ele>
        <time>2025-10-17T13:25:26Z</time>
      </trkpt>
      <trkpt lat="45.08586" lon="2.73874">
        <ele>1265.71</ele>
        <time>2025-10-17T13:25:48Z</time>
      </trkpt>
      <trkpt lat="45.08586" lon="2.73904">
        <ele>1264.75</ele>
        <time>2025-10-17T13:26:07Z</time>
      </trkpt>
      <trkpt lat="45.08579" lon="2.73933">
        <ele>1262.83</ele>
        <time>2025-10-17T13:26:27Z</time>
      </trkpt>
      <trkpt lat="45.08583" lon="2.73954">
        <ele>1261.87</ele>
        <time>2025-10-17T13:26:41Z</time>
      </trkpt>
      <trkpt lat="45.08584" lon="2.73961">
        <ele>1260.43</ele>
        <time>2025-10-17T13:26:47Z</time>
      </trkpt>
      <trkpt lat="45.08581" lon="2.73986">
        <ele>1262.35</ele>
        <time>2025-10-17T13:27:06Z</time>
      </trkpt>
      <trkpt lat="45.08569" lon="2.74007">
        <ele>1263.31</ele>
        <time>2025-10-17T13:27:25Z</time>
      </trkpt>
      <trkpt lat="45.08563" lon="2.74015">
        <ele>1263.79</ele>
        <time>2025-10-17T13:27:33Z</time>
      </trkpt>
      <trkpt lat="45.08559" lon="2.74041">
        <ele>1264.27</ele>
        <time>2025-10-17T13:27:52Z</time>
      </trkpt>
      <trkpt lat="45.08562" lon="2.74069">
        <ele>1265.23</ele>
        <time>2025-10-17T13:28:10Z</time>
      </trkpt>
      <trkpt lat="45.08562" lon="2.74092">
        <ele>1265.23</ele>
        <time>2025-10-17T13:28:27Z</time>
      </trkpt>
      <trkpt lat="45.08559" lon="2.74119">
        <ele>1264.27</ele>
        <time>2025-10-17T13:28:45Z</time>
      </trkpt>
      <trkpt lat="45.08559" lon="2.74157">
        <ele>1262.35</ele>
        <time>2025-10-17T13:29:06Z</time>
      </trkpt>
      <trkpt lat="45.08555" lon="2.74181">
        <ele>1263.79</ele>
        <time>2025-10-17T13:29:23Z</time>
      </trkpt>
      <trkpt lat="45.08558" lon="2.74195">
        <ele>1263.79</ele>
        <time>2025-10-17T13:29:32Z</time>
      </trkpt>
      <trkpt lat="45.08551" lon="2.74214">
        <ele>1262.83</ele>
        <time>2025-10-17T13:29:42Z</time>
      </trkpt>
      <trkpt lat="45.08545" lon="2.74245">
        <ele>1262.83</ele>
        <time>2025-10-17T13:30:03Z</time>
      </trkpt>
      <trkpt lat="45.08536" lon="2.74267">
        <ele>1262.35</ele>
        <time>2025-10-17T13:30:21Z</time>
      </trkpt>
      <trkpt lat="45.08533" lon="2.74297">
        <ele>1263.79</ele>
        <time>2025-10-17T13:30:38Z</time>
      </trkpt>
      <trkpt lat="45.08523" lon="2.74322">
        <ele>1264.27</ele>
        <time>2025-10-17T13:30:56Z</time>
      </trkpt>
      <trkpt lat="45.0851" lon="2.74352">
        <ele>1264.75</ele>
        <time>2025-10-17T13:31:14Z</time>
      </trkpt>
      <trkpt lat="45.08508" lon="2.74363">
        <ele>1263.31</ele>
        <time>2025-10-17T13:31:23Z</time>
      </trkpt>
      <trkpt lat="45.08504" lon="2.74385">
        <ele>1263.31</ele>
        <time>2025-10-17T13:31:40Z</time>
      </trkpt>
      <trkpt lat="45.08505" lon="2.74426">
        <ele>1264.27</ele>
        <time>2025-10-17T13:32:04Z</time>
      </trkpt>
      <trkpt lat="45.08501" lon="2.74455">
        <ele>1262.83</ele>
        <time>2025-10-17T13:32:23Z</time>
      </trkpt>
      <trkpt lat="45.08508" lon="2.74463">
        <ele>1259.46</ele>
        <time>2025-10-17T13:32:39Z</time>
      </trkpt>
      <trkpt lat="45.08513" lon="2.74456">
        <ele>1256.1</ele>
        <time>2025-10-17T13:32:51Z</time>
      </trkpt>
      <trkpt lat="45.08521" lon="2.74456">
        <ele>1252.74</ele>
        <time>2025-10-17T13:33:01Z</time>
      </trkpt>
      <trkpt lat="45.08525" lon="2.74455">
        <ele>1251.29</ele>
        <time>2025-10-17T13:33:05Z</time>
      </trkpt>
      <trkpt lat="45.08528" lon="2.74453">
        <ele>1249.85</ele>
        <time>2025-10-17T13:33:10Z</time>
      </trkpt>
      <trkpt lat="45.08533" lon="2.7445">
        <ele>1246.01</ele>
        <time>2025-10-17T13:33:18Z</time>
      </trkpt>
      <trkpt lat="45.08534" lon="2.74449">
        <ele>1245.53</ele>
        <time>2025-10-17T13:33:19Z</time>
      </trkpt>
      <trkpt lat="45.08542" lon="2.7444">
        <ele>1242.16</ele>
        <time>2025-10-17T13:33:33Z</time>
      </trkpt>
      <trkpt lat="45.08548" lon="2.74435">
        <ele>1238.8</ele>
        <time>2025-10-17T13:33:44Z</time>
      </trkpt>
      <trkpt lat="45.08553" lon="2.7443">
        <ele>1235.43</ele>
        <time>2025-10-17T13:33:55Z</time>
      </trkpt>
      <trkpt lat="45.08561" lon="2.74429">
        <ele>1232.07</ele>
        <time>2025-10-17T13:34:07Z</time>
      </trkpt>
      <trkpt lat="45.0857" lon="2.74427">
        <ele>1228.7</ele>
        <time>2025-10-17T13:34:17Z</time>
      </trkpt>
      <trkpt lat="45.08583" lon="2.74429">
        <ele>1225.34</ele>
        <time>2025-10-17T13:34:37Z</time>
      </trkpt>
      <trkpt lat="45.08591" lon="2.74419">
        <ele>1222.45</ele>
        <time>2025-10-17T13:34:50Z</time>
      </trkpt>
      <trkpt lat="45.08599" lon="2.74424">
        <ele>1219.09</ele>
        <time>2025-10-17T13:35:04Z</time>
      </trkpt>
      <trkpt lat="45.08611" lon="2.74407">
        <ele>1215.24</ele>
        <time>2025-10-17T13:35:20Z</time>
      </trkpt>
      <trkpt lat="45.08618" lon="2.74394">
        <ele>1211.88</ele>
        <time>2025-10-17T13:35:32Z</time>
      </trkpt>
      <trkpt lat="45.0863" lon="2.74392">
        <ele>1208.51</ele>
        <time>2025-10-17T13:35:42Z</time>
      </trkpt>
      <trkpt lat="45.08645" lon="2.74384">
        <ele>1206.59</ele>
        <time>2025-10-17T13:36:00Z</time>
      </trkpt>
      <trkpt lat="45.0866" lon="2.74368">
        <ele>1202.75</ele>
        <time>2025-10-17T13:36:18Z</time>
      </trkpt>
      <trkpt lat="45.08676" lon="2.74355">
        <ele>1199.86</ele>
        <time>2025-10-17T13:36:36Z</time>
      </trkpt>
      <trkpt lat="45.08689" lon="2.74347">
        <ele>1197.46</ele>
        <time>2025-10-17T13:36:56Z</time>
      </trkpt>
      <trkpt lat="45.08694" lon="2.74353">
        <ele>1196.5</ele>
        <time>2025-10-17T13:37:19Z</time>
      </trkpt>
      <trkpt lat="45.08697" lon="2.74357">
        <ele>1196.5</ele>
        <time>2025-10-17T13:37:22Z</time>
      </trkpt>
      <trkpt lat="45.08701" lon="2.74369">
        <ele>1196.5</ele>
        <time>2025-10-17T13:37:26Z</time>
      </trkpt>
      <trkpt lat="45.08705" lon="2.74375">
        <ele>1196.5</ele>
        <time>2025-10-17T13:37:30Z</time>
      </trkpt>
      <trkpt lat="45.08731" lon="2.7438">
        <ele>1196.02</ele>
        <time>2025-10-17T13:37:51Z</time>
      </trkpt>
      <trkpt lat="45.08747" lon="2.74392">
        <ele>1195.54</ele>
        <time>2025-10-17T13:38:06Z</time>
      </trkpt>
      <trkpt lat="45.08763" lon="2.74415">
        <ele>1195.06</ele>
        <time>2025-10-17T13:38:26Z</time>
      </trkpt>
      <trkpt lat="45.0877" lon="2.74429">
        <ele>1194.58</ele>
        <time>2025-10-17T13:38:38Z</time>
      </trkpt>
      <trkpt lat="45.08775" lon="2.74459">
        <ele>1194.09</ele>
        <time>2025-10-17T13:38:55Z</time>
      </trkpt>
      <trkpt lat="45.0878" lon="2.7449">
        <ele>1192.65</ele>
        <time>2025-10-17T13:39:13Z</time>
      </trkpt>
      <trkpt lat="45.0878" lon="2.74491">
        <ele>1192.65</ele>
        <time>2025-10-17T13:39:14Z</time>
      </trkpt>
      <trkpt lat="45.08793" lon="2.74517">
        <ele>1191.69</ele>
        <time>2025-10-17T13:39:32Z</time>
      </trkpt>
      <trkpt lat="45.08811" lon="2.74546">
        <ele>1190.73</ele>
        <time>2025-10-17T13:39:51Z</time>
      </trkpt>
      <trkpt lat="45.08818" lon="2.74564">
        <ele>1189.77</ele>
        <time>2025-10-17T13:40:04Z</time>
      </trkpt>
      <trkpt lat="45.08825" lon="2.74591">
        <ele>1188.81</ele>
        <time>2025-10-17T13:40:23Z</time>
      </trkpt>
      <trkpt lat="45.08834" lon="2.74617">
        <ele>1186.88</ele>
        <time>2025-10-17T13:40:41Z</time>
      </trkpt>
      <trkpt lat="45.08843" lon="2.74644">
        <ele>1185.92</ele>
        <time>2025-10-17T13:41:02Z</time>
      </trkpt>
      <trkpt lat="45.08856" lon="2.74673">
        <ele>1183.52</ele>
        <time>2025-10-17T13:41:21Z</time>
      </trkpt>
      <trkpt lat="45.08864" lon="2.74703">
        <ele>1182.56</ele>
        <time>2025-10-17T13:41:41Z</time>
      </trkpt>
      <trkpt lat="45.08874" lon="2.7473">
        <ele>1181.12</ele>
        <time>2025-10-17T13:41:59Z</time>
      </trkpt>
      <trkpt lat="45.08878" lon="2.74741">
        <ele>1180.16</ele>
        <time>2025-10-17T13:42:07Z</time>
      </trkpt>
      <trkpt lat="45.08891" lon="2.74765">
        <ele>1178.71</ele>
        <time>2025-10-17T13:42:26Z</time>
      </trkpt>
      <trkpt lat="45.08902" lon="2.74786">
        <ele>1177.27</ele>
        <time>2025-10-17T13:42:42Z</time>
      </trkpt>
      <trkpt lat="45.08916" lon="2.74812">
        <ele>1175.35</ele>
        <time>2025-10-17T13:43:03Z</time>
      </trkpt>
      <trkpt lat="45.08933" lon="2.74839">
        <ele>1173.43</ele>
        <time>2025-10-17T13:43:24Z</time>
      </trkpt>
      <trkpt lat="45.08947" lon="2.74855">
        <ele>1171.98</ele>
        <time>2025-10-17T13:43:44Z</time>
      </trkpt>
      <trkpt lat="45.08959" lon="2.74871">
        <ele>1171.02</ele>
        <time>2025-10-17T13:43:58Z</time>
      </trkpt>
      <trkpt lat="45.08975" lon="2.74886">
        <ele>1169.1</ele>
        <time>2025-10-17T13:44:15Z</time>
      </trkpt>
      <trkpt lat="45.08987" lon="2.74893">
        <ele>1168.14</ele>
        <time>2025-10-17T13:44:21Z</time>
      </trkpt>
      <trkpt lat="45.0899" lon="2.74896">
        <ele>1168.14</ele>
        <time>2025-10-17T13:44:23Z</time>
      </trkpt>
      <trkpt lat="45.08979" lon="2.74926">
        <ele>1166.7</ele>
        <time>2025-10-17T13:44:38Z</time>
      </trkpt>
      <trkpt lat="45.08983" lon="2.74957">
        <ele>1165.74</ele>
        <time>2025-10-17T13:44:58Z</time>
      </trkpt>
      <trkpt lat="45.08988" lon="2.74963">
        <ele>1165.26</ele>
        <time>2025-10-17T13:45:03Z</time>
      </trkpt>
      <trkpt lat="45.09007" lon="2.7499">
        <ele>1164.29</ele>
        <time>2025-10-17T13:45:23Z</time>
      </trkpt>
      <trkpt lat="45.0901" lon="2.74996">
        <ele>1164.29</ele>
        <time>2025-10-17T13:45:28Z</time>
      </trkpt>
      <trkpt lat="45.09011" lon="2.74997">
        <ele>1164.29</ele>
        <time>2025-10-17T13:45:29Z</time>
      </trkpt>
      <trkpt lat="45.09012" lon="2.74999">
        <ele>1163.81</ele>
        <time>2025-10-17T13:45:30Z</time>
      </trkpt>
      <trkpt lat="45.09022" lon="2.75022">
        <ele>1162.85</ele>
        <time>2025-10-17T13:45:47Z</time>
      </trkpt>
      <trkpt lat="45.09027" lon="2.75031">
        <ele>1162.85</ele>
        <time>2025-10-17T13:45:54Z</time>
      </trkpt>
      <trkpt lat="45.09032" lon="2.75044">
        <ele>1162.37</ele>
        <time>2025-10-17T13:46:04Z</time>
      </trkpt>
      <trkpt lat="45.09034" lon="2.75047">
        <ele>1162.37</ele>
        <time>2025-10-17T13:46:07Z</time>
      </trkpt>
      <trkpt lat="45.09035" lon="2.75049">
        <ele>1162.37</ele>
        <time>2025-10-17T13:46:08Z</time>
      </trkpt>
      <trkpt lat="45.09035" lon="2.7505">
        <ele>1162.37</ele>
        <time>2025-10-17T13:46:09Z</time>
      </trkpt>
      <trkpt lat="45.09036" lon="2.75052">
        <ele>1162.37</ele>
        <time>2025-10-17T13:46:10Z</time>
      </trkpt>
      <trkpt lat="45.09037" lon="2.75053">
        <ele>1162.37</ele>
        <time>2025-10-17T13:46:11Z</time>
      </trkpt>
      <trkpt lat="45.09054" lon="2.75078">
        <ele>1160.93</ele>
        <time>2025-10-17T13:46:28Z</time>
      </trkpt>
      <trkpt lat="45.09068" lon="2.75101">
        <ele>1159.97</ele>
        <time>2025-10-17T13:46:45Z</time>
      </trkpt>
      <trkpt lat="45.09077" lon="2.75122">
        <ele>1159.49</ele>
        <time>2025-10-17T13:46:59Z</time>
      </trkpt>
      <trkpt lat="45.09095" lon="2.75156">
        <ele>1158.53</ele>
        <time>2025-10-17T13:47:21Z</time>
      </trkpt>
      <trkpt lat="45.09102" lon="2.75186">
        <ele>1157.08</ele>
        <time>2025-10-17T13:47:41Z</time>
      </trkpt>
      <trkpt lat="45.09113" lon="2.75217">
        <ele>1155.16</ele>
        <time>2025-10-17T13:48:04Z</time>
      </trkpt>
      <trkpt lat="45.09121" lon="2.75239">
        <ele>1154.68</ele>
        <time>2025-10-17T13:48:19Z</time>
      </trkpt>
      <trkpt lat="45.09133" lon="2.75268">
        <ele>1154.2</ele>
        <time>2025-10-17T13:48:37Z</time>
      </trkpt>
      <trkpt lat="45.09133" lon="2.75284">
        <ele>1154.68</ele>
        <time>2025-10-17T13:48:45Z</time>
      </trkpt>
      <trkpt lat="45.09137" lon="2.75303">
        <ele>1153.24</ele>
        <time>2025-10-17T13:48:56Z</time>
      </trkpt>
      <trkpt lat="45.09137" lon="2.75307">
        <ele>1153.24</ele>
        <time>2025-10-17T13:48:58Z</time>
      </trkpt>
      <trkpt lat="45.09137" lon="2.75309">
        <ele>1153.24</ele>
        <time>2025-10-17T13:48:59Z</time>
      </trkpt>
      <trkpt lat="45.09126" lon="2.7532">
        <ele>1152.76</ele>
        <time>2025-10-17T13:49:12Z</time>
      </trkpt>
      <trkpt lat="45.09124" lon="2.7532">
        <ele>1152.76</ele>
        <time>2025-10-17T13:49:13Z</time>
      </trkpt>
      <trkpt lat="45.0912" lon="2.75321">
        <ele>1152.76</ele>
        <time>2025-10-17T13:49:14Z</time>
      </trkpt>
      <trkpt lat="45.09118" lon="2.75321">
        <ele>1152.76</ele>
        <time>2025-10-17T13:49:15Z</time>
      </trkpt>
      <trkpt lat="45.09116" lon="2.75321">
        <ele>1152.76</ele>
        <time>2025-10-17T13:49:16Z</time>
      </trkpt>
      <trkpt lat="45.09113" lon="2.75321">
        <ele>1152.76</ele>
        <time>2025-10-17T13:49:17Z</time>
      </trkpt>
      <trkpt lat="45.09112" lon="2.75322">
        <ele>1152.76</ele>
        <time>2025-10-17T13:49:18Z</time>
      </trkpt>
      <trkpt lat="45.09088" lon="2.75332">
        <ele>1152.76</ele>
        <time>2025-10-17T13:49:38Z</time>
      </trkpt>
    </trkseg>
  </trk>
</gpx>